ftp/pub/palmer/observations_modified/2019/July/AR190720_BASE.txt

Download

Sample DateTime	Unit Id	WS Avg 2min	WD Avg 2min	WGS 10min	WGD 10min	Air Temp	Rel Humidity	Dew Point	Pyranometer	Quantum	Air Pressure	Snow Level	Rainfall	PW Current	Visibility	CBase 1	CBase 2	CBase 3	Vert Vis
2019/07/20  00:00:01  BASE  2.3226   53   2.48136  53   -3.8  100   -3.8  0     0     990.1    NA       0.0000   9999     1250  0     0    
2019/07/20  00:01:01  BASE  2.38728  52   2.48136  49   -3.8  100   -3.8  0     0     990.1    NA       0.0000   9999     1250  0     0    
2019/07/20  00:02:01  BASE  2.37552  52   2.54016  52   -3.8  100   -3.8  0     0     990.0    NA       0.0000   9999     1210  0     0    
2019/07/20  00:03:01  BASE  2.3814   51   2.54016  52   -3.8  100   -3.8  0     0     990.0    NA       0.0000   9999     1180  0     0    
2019/07/20  00:04:01  BASE  2.2638   49   2.54016  52   -3.9  100   -3.9  0     0     989.9    NA       0.0000   9999     1210  0     0    
2019/07/20  00:05:01  BASE  1.87572  65   2.54016  52   -3.9  100   -3.9  0     0     989.9    NA       0.0000   9999     1180  0     0    
2019/07/20  00:06:01  BASE  1.59348  87   2.54016  52   -3.9  100   -3.9  0     0     989.9    NA       0.0000   9999     1180  0     0    
2019/07/20  00:07:01  BASE  1.58172  83   2.54016  52   -3.9  100   -3.9  0     0     989.9    NA       0.0000   9999     1210  0     0    
2019/07/20  00:08:01  BASE  1.59348  71   2.54016  52   -3.9  100   -3.9  0     0     989.9    NA       0.0000   9999     1210  0     0    
2019/07/20  00:09:01  BASE  1.72872  68   2.54016  52   -3.9  100   -3.9  0     0     989.9    NA       0.0000   9999     1210  0     0    
2019/07/20  00:10:01  BASE  1.86396  71   2.54016  52   -3.9  100   -3.9  0     0     989.9    NA       0.0000   9999     1210  0     0    
2019/07/20  00:11:01  BASE  1.89924  73   2.54016  52   -3.9  100   -3.9  0     0     989.9    NA       0.0000   9999     1250  0     0    
2019/07/20  00:12:01  BASE  1.82868  73   2.48136  49   -3.9  100   -3.9  0     0     989.9    NA       0.0000   9999     1250  0     0    
2019/07/20  00:13:01  BASE  1.77576  70   2.29908  54   -3.8  100   -3.8  0     0     989.9    NA       0.0000   9999     1210  0     0    
2019/07/20  00:14:01  BASE  1.80516  70   2.1462   56   -3.8  100   -3.8  0     0     989.9    NA       0.0000   9999     1250  0     0    
2019/07/20  00:15:01  BASE  1.75224  69   2.0874   70   -3.8  100   -3.8  0     0     989.9    NA       0.0000   9999     1210  0     0    
2019/07/20  00:16:01  BASE  1.66404  67   2.0874   70   -3.8  100   -3.8  0     0     989.9    NA       0.0000   9999     1210  0     0    
2019/07/20  00:17:01  BASE  1.59936  71   2.0874   70   -3.8  100   -3.8  0     0     989.9    NA       0.0000   9999     1180  0     0    
2019/07/20  00:18:01  BASE  1.617    74   2.0874   70   -3.8  100   -3.8  0     0     989.8    NA       0.0000   9999     1210  0     0    
2019/07/20  00:19:01  BASE  1.66404  74   2.0874   70   -3.8  100   -3.8  0     0     989.8    NA       0.0000   9999     1210  0     0    
2019/07/20  00:20:01  BASE  1.69344  68   2.0874   70   -3.8  100   -3.8  0     0     989.8    NA       0.0000   9999     1180  0     0    
2019/07/20  00:21:01  BASE  1.6464   67   1.93452  73   -3.8  100   -3.8  0     0     989.8    NA       0.0000   9999     1180  0     0    
2019/07/20  00:22:01  BASE  1.56996  65   1.93452  73   -3.8  100   -3.8  0     0     989.8    NA       0.0000   9999     1210  0     0    
2019/07/20  00:23:01  BASE  1.65228  62   2.0874   63   -3.8  100   -3.8  0     0     989.8    NA       0.0000   9999     1250  0     0    
2019/07/20  00:24:01  BASE  1.84632  63   2.1168   71   -3.8  100   -3.8  0     0     989.8    NA       0.0000   9999     1180  0     0    
2019/07/20  00:25:01  BASE  2.10504  67   2.48136  71   -3.8  100   -3.8  0     0     989.8    NA       0.0000   9999     1150  0     0    
2019/07/20  00:26:01  BASE  2.24616  71   2.48136  71   -3.8  100   -3.8  0     0     989.8    NA       0.0000   9999     1150  0     0    
2019/07/20  00:27:01  BASE  2.24028  74   2.48136  71   -3.8  100   -3.8  0     0     989.8    NA       0.0000   9999     1120  0     0    
2019/07/20  00:28:01  BASE  2.25204  75   2.51076  73   -3.8  100   -3.8  0     0     989.8    NA       0.0000   9999     1250  0     0    
2019/07/20  00:29:01  BASE  2.19324  72   2.51076  73   -3.7  100   -3.7  0     0     989.7    NA       0.0000   9999     1250  0     0    
2019/07/20  00:30:01  BASE  2.16972  72   2.51076  73   -3.7  100   -3.7  0     0     989.7    NA       0.0000   9999     1210  0     0    
2019/07/20  00:31:01  BASE  2.1168   77   2.51076  73   -3.7  100   -3.7  0     0     989.7    NA       0.0000   9999     1250  0     0    
2019/07/20  00:32:01  BASE  2.2344   86   2.81064  96   -3.8  100   -3.8  0     0     989.7    NA       0.0000   9999     1210  0     0    
2019/07/20  00:33:01  BASE  2.646    96   3.087    98   -3.9  100   -3.9  0     0     989.7    NA       0.0000   9999     1210  0     0    
2019/07/20  00:34:01  BASE  3.13404  98   3.69264  98   -4.0  100   -4.0  0     0     989.7    NA       0.0000   9999     1210  0     0    
2019/07/20  00:35:01  BASE  3.45156  97   3.69264  98   -4.1  100   -4.1  0     0     989.7    NA       0.0000   9999     1150  0     0    
2019/07/20  00:36:01  BASE  3.58092  96   3.83964  93   -4.2  100   -4.2  0     0     989.7    NA       0.0000   9999     1120  0     0    
2019/07/20  00:37:01  BASE  3.61032  94   3.83964  93   -4.3  100   -4.3  0     0     989.7    NA       0.0000   9999     1180  0     0    
2019/07/20  00:38:01  BASE  3.4398   95   3.83964  93   -4.3  100   -4.3  0     0     989.7    NA       0.0000   9999     1180  0     0    
2019/07/20  00:39:01  BASE  3.34572  97   3.83964  93   -4.3  100   -4.3  0     0     989.7    NA       0.0000   9999     1150  0     0    
2019/07/20  00:40:01  BASE  3.234    97   3.83964  93   -4.3  100   -4.3  0     0     989.7    NA       0.0000   9999     1080  0     0    
2019/07/20  00:41:01  BASE  3.08112  95   3.83964  93   -4.3  100   -4.3  0     0     989.7    NA       0.0000   9999     1180  0     0    
2019/07/20  00:42:01  BASE  3.15756  94   3.83964  93   -4.3  100   -4.3  0     0     989.7    NA       0.0000   9999     1150  0     0    
2019/07/20  00:43:01  BASE  3.07524  93   3.83964  93   -4.3  100   -4.3  0     0     989.7    NA       0.0000   9999     1050  0     0    
2019/07/20  00:44:01  BASE  2.91648  87   3.83964  93   -4.3  100   -4.3  0     0     989.7    NA       0.0000   9999     1080  0     0    
2019/07/20  00:45:01  BASE  2.95176  86   3.83964  93   -4.2  100   -4.2  0     0     989.7    NA       0.0000   9999     1120  0     0    
2019/07/20  00:46:01  BASE  2.77536  88   3.81024  91   -4.2  100   -4.2  0     0     989.7    NA       0.0000   9999     1150  0     0    
2019/07/20  00:47:01  BASE  2.7342   87   3.72204  99   -4.2  100   -4.2  0     0     989.7    NA       0.0000   9999     1180  0     0    
2019/07/20  00:48:01  BASE  2.76948  87   3.56916  102  -4.2  100   -4.2  0     0     989.7    NA       0.0000   9999     1150  0     0    
2019/07/20  00:49:01  BASE  2.65188  90   3.53976  106  -4.2  100   -4.2  0     0     989.7    NA       0.0000   9999     1120  0     0    
2019/07/20  00:50:01  BASE  2.5284   86   3.53976  106  -4.2  100   -4.2  0     0     989.7    NA       0.0000   9999     1050  0     0    
2019/07/20  00:51:01  BASE  2.50488  77   3.53976  106  -4.2  100   -4.2  0     0     989.7    NA       0.0000   9999     1080  0     0    
2019/07/20  00:52:01  BASE  2.66952  72   3.44568  89   -4.1  100   -4.1  0     0     989.7    NA       0.0000   9999     1120  0     0    
2019/07/20  00:53:01  BASE  2.78124  73   3.087    90   -4.1  100   -4.1  0     0     989.7    NA       0.0000   9999     1250  0     0    
2019/07/20  00:54:01  BASE  2.7048   80   3.087    90   -4.1  100   -4.1  0     0     989.7    NA       0.0000   9999     1180  0     0    
2019/07/20  00:55:01  BASE  2.66952  88   3.0576   89   -4.1  100   -4.1  0     0     989.6    NA       0.0000   9999     1120  0     0    
2019/07/20  00:56:01  BASE  2.82828  88   3.26928  90   -4.1  100   -4.1  0     0     989.6    NA       0.0000   9999     1180  0     0    
2019/07/20  00:57:00  BASE  2.8812   84   3.26928  90   -4.0  100   -4.0  0     0     989.6    NA       0.0000   9999     1180  0     0    
2019/07/20  00:58:01  BASE  2.78712  83   3.26928  90   -4.1  100   -4.1  0     0     989.6    NA       0.0000   9999     1080  0     0    
2019/07/20  00:59:01  BASE  2.5872   81   3.26928  90   -4.0  100   -4.0  0     0     989.6    NA       0.0000   9999     1050  0     0    
2019/07/20  01:00:00  BASE  2.48724  73   3.26928  90   -4.0  100   -4.0  0     0     989.6    NA       0.0000   9999     1120  0     0    
2019/07/20  01:01:01  BASE  2.41668  68   3.26928  90   -4.0  100   -4.0  0     0     989.6    NA       0.0000   9999     1150  0     0    
2019/07/20  01:02:01  BASE  2.01096  69   3.26928  90   -4.0  100   -4.0  0     0     989.6    NA       0.0000   9999     1080  0     0    
2019/07/20  01:03:01  BASE  1.79928  79   3.26928  90   -4.0  100   -4.0  0     0     989.6    NA       0.0000   9999     1180  0     0    
2019/07/20  01:04:01  BASE  2.10504  92   3.26928  90   -3.9  100   -3.9  0     0     989.5    NA       0.0000   9999     1180  0     0    
2019/07/20  01:05:01  BASE  2.2932   101  3.26928  90   -4.0  100   -4.0  0     0     989.5    NA       0.0000   9999     1080  0     0    
2019/07/20  01:06:01  BASE  2.2638   98   2.96352  84   -4.0  100   -4.0  0     0     989.5    NA       0.0000   9999     1120  0     0    
2019/07/20  01:07:00  BASE  2.41668  91   2.93412  70   -4.1  100   -4.1  0     0     989.5    NA       0.0000   9999     1150  0     0    
2019/07/20  01:08:00  BASE  2.2932   88   2.93412  70   -4.1  100   -4.1  0     0     989.5    NA       0.0000   9999     1150  0     0    
2019/07/20  01:09:00  BASE  2.1462   89   2.81064  80   -4.1  100   -4.1  0     0     989.5    NA       0.0000   9999     1180  0     0    
2019/07/20  01:10:01  BASE  2.24616  90   2.66364  94   -4.1  100   -4.1  0     0     989.4    NA       0.0000   9999     1210  0     0    
2019/07/20  01:11:00  BASE  2.40492  92   2.75184  88   -4.1  100   -4.1  0     0     989.4    NA       0.0000   9999     1250  0     0    
2019/07/20  01:12:00  BASE  2.646    91   2.87532  89   -4.1  100   -4.1  0     0     989.4    NA       0.0000   9999     1350  0     0    
2019/07/20  01:13:00  BASE  2.74008  89   3.087    84   -4.1  100   -4.1  0     0     989.4    NA       0.0000   9999     1280  0     0    
2019/07/20  01:14:01  BASE  2.74596  83   3.1164   83   -4.2  100   -4.2  0     0     989.4    NA       0.0000   9999     1280  0     0    
2019/07/20  01:15:00  BASE  2.57544  78   3.1164   83   -4.2  100   -4.2  0     0     989.4    NA       0.0000   9999     1210  0     0    
2019/07/20  01:16:01  BASE  2.5872   80   3.1164   83   -4.2  100   -4.2  0     0     989.4    NA       0.0000   9999     1210  0     0    
2019/07/20  01:17:00  BASE  2.75772  82   3.1164   83   -4.3  100   -4.3  0     0     989.4    NA       0.0000   9999     1280  0     0    
2019/07/20  01:18:00  BASE  2.7048   79   3.1164   83   -4.3  100   -4.3  0     0     989.4    NA       0.0000   9999     1280  0     0    
2019/07/20  01:19:00  BASE  2.64012  77   3.1164   83   -4.3  100   -4.3  0     0     989.3    NA       0.0000   9999     1310  0     0    
2019/07/20  01:20:00  BASE  2.51664  81   3.1164   83   -4.3  100   -4.3  0     0     989.3    NA       0.0000   9999     1310  0     0    
2019/07/20  01:21:00  BASE  2.12856  82   3.1164   83   -4.2  100   -4.2  0     0     989.3    NA       0.0000   9999     0     0     0    
2019/07/20  01:22:01  BASE  1.89924  76   3.1164   83   -4.2  100   -4.2  0     0     989.2    NA       0.0000   9999     1380  0     0    
2019/07/20  01:23:00  BASE  1.98156  74   3.1164   83   -4.1  100   -4.1  0     0     989.2    NA       0.0000   9999     1350  0     0    
2019/07/20  01:24:00  BASE  1.86984  73   2.93412  85   -4.1  100   -4.1  0     0     989.3    NA       0.0000   9999     1380  0     0    
2019/07/20  01:25:00  BASE  1.86396  75   2.93412  85   -4.1  100   -4.1  0     0     989.4    NA       0.0000   9999     1410  0     0    
2019/07/20  01:26:01  BASE  2.05212  71   2.87532  88   -4.2  100   -4.2  0     0     989.4    NA       0.0000   9999     1350  0     0    
2019/07/20  01:27:00  BASE  2.05212  65   2.87532  88   -4.2  100   -4.2  0     0     989.4    NA       0.0000   9999     1350  0     0    
2019/07/20  01:28:00  BASE  2.24028  62   2.87532  88   -4.2  100   -4.2  0     0     989.3    NA       0.0000   9999     1310  0     0    
2019/07/20  01:29:00  BASE  2.34024  62   2.87532  88   -4.2  100   -4.2  0     0     989.2    NA       0.0000   9999     1350  10140 0    
2019/07/20  01:30:00  BASE  2.16384  63   2.66364  66   -4.2  100   -4.2  0     0     989.2    NA       0.0000   9999     1350  0     0    
2019/07/20  01:31:00  BASE  2.058    67   2.66364  66   -4.2  100   -4.2  0     0     989.2    NA       0.0000   9999     1350  10110 0    
2019/07/20  01:32:00  BASE  2.01684  73   2.66364  66   -4.3  100   -4.3  0     0     989.2    NA       0.0000   9999     1310  10170 0    
2019/07/20  01:33:01  BASE  2.32848  73   2.87532  65   -4.3  100   -4.3  0     0     989.1    NA       0.0000   9999     1310  10240 0    
2019/07/20  01:34:00  BASE  2.71068  69   3.087    67   -4.3  100   -4.3  0     0     989.2    NA       0.0000   9999     1310  0     0    
2019/07/20  01:35:00  BASE  2.85768  66   3.087    67   -4.4  100   -4.4  0     0     989.2    NA       0.0000   9999     1280  10200 0    
2019/07/20  01:36:00  BASE  2.87532  62   3.1164   58   -4.4  100   -4.4  0     0     989.2    NA       0.0000   9999     1310  10240 0    
2019/07/20  01:37:00  BASE  2.89884  59   3.2046   61   -4.5  100   -4.5  0     0     989.1    NA       0.0000   9999     1280  10040 0    
2019/07/20  01:38:00  BASE  2.86944  61   3.2046   61   -4.5  100   -4.5  0     0     989.1    NA       0.0000   9999     1280  0     0    
2019/07/20  01:39:00  BASE  2.8224   64   3.2046   63   -4.5  100   -4.5  0     0     989.1    NA       0.0000   9999     1310  0     0    
2019/07/20  01:40:00  BASE  2.75772  62   3.2046   63   -4.6  100   -4.6  0     0     989.1    NA       0.0000   9999     1250  0     0    
2019/07/20  01:41:00  BASE  2.6754   59   3.2046   63   -4.6  100   -4.6  0     0     989.1    NA       0.0000   9999     1280  0     0    
2019/07/20  01:42:00  BASE  2.51076  56   3.2046   63   -4.5  100   -4.5  0     0     989.1    NA       0.0000   9999     1280  0     0    
2019/07/20  01:43:00  BASE  2.37552  51   3.2046   63   -4.5  100   -4.5  0     0     989.1    NA       0.0000   9999     1280  0     0    
2019/07/20  01:44:00  BASE  2.44608  51   3.2046   63   -4.5  100   -4.5  0     0     989.1    NA       0.0000   9999     1250  0     0    
2019/07/20  01:45:00  BASE  2.35788  54   3.2046   63   -4.5  100   -4.5  0     0     989.1    NA       0.0000   9999     1250  0     0    
2019/07/20  01:46:00  BASE  2.19912  58   3.2046   63   -4.5  100   -4.5  0     0     989.1    NA       0.0000   9999     1210  0     0    
2019/07/20  01:47:00  BASE  2.27556  60   3.2046   63   -4.5  100   -4.5  0     0     989.1    NA       0.0000   9999     1280  0     0    
2019/07/20  01:48:00  BASE  2.28144  56   3.2046   63   -4.6  100   -4.6  0     0     989.1    NA       0.0000   9999     1250  0     0    
2019/07/20  01:49:00  BASE  2.07564  54   2.93412  59   -4.6  100   -4.6  0     0     989.1    NA       0.0000   9999     1280  0     0    
2019/07/20  01:50:00  BASE  2.01096  52   2.93412  59   -4.6  100   -4.6  0     0     989.1    NA       0.0000   9999     1280  0     0    
2019/07/20  01:51:00  BASE  2.04624  43   2.72244  62   -4.6  100   -4.6  0     0     989.1    NA       0.0000   9999     1280  0     0    
2019/07/20  01:52:00  BASE  1.97568  38   2.72244  62   -4.6  100   -4.6  0     0     989.1    NA       0.0000   9999     1250  7580  10170
2019/07/20  01:53:00  BASE  1.86984  35   2.72244  62   -4.6  100   -4.6  0     0     989.1    NA       0.0000   9999     1380  7510  0    
2019/07/20  01:54:01  BASE  1.82868  33   2.72244  62   -4.6  100   -4.6  0     0     989.1    NA       0.0000   9999     7480  10140 0    
2019/07/20  01:55:00  BASE  1.7052   32   2.72244  62   -4.7  100   -4.7  0     0     989.1    NA       0.0000   9999     1410  7480  10070
2019/07/20  01:56:00  BASE  1.56996  32   2.72244  62   -4.7  100   -4.7  0     0     989.1    NA       0.0000   9999     1280  7550  10010
2019/07/20  01:57:00  BASE  1.56408  29   2.45196  55   -4.7  100   -4.7  0     0     989.1    NA       0.0000   9999     1210  7580  0    
2019/07/20  01:58:00  BASE  1.68168  26   2.24028  48   -4.7  100   -4.7  0     0     989.1    NA       0.0000   9999     1210  7510  9940 
2019/07/20  01:59:00  BASE  1.96392  25   2.63424  29   -4.7  100   -4.7  0     0     989.1    NA       0.0000   9999     1210  7550  0    
2019/07/20  02:00:01  BASE  2.00508  25   2.63424  29   -4.7  100   -4.7  0     0     989.1    NA       0.0000   9999     1250  0     0    
2019/07/20  02:01:00  BASE  1.72284  27   2.63424  29   -4.6  100   -4.6  0     0     989.1    NA       0.0000   9999     1250  0     0    
2019/07/20  02:02:00  BASE  1.4994   27   2.63424  29   -4.6  100   -4.6  0     0     989.1    NA       0.0000   9999     1280  0     0    
2019/07/20  02:03:00  BASE  1.58172  23   2.63424  29   -4.6  100   -4.6  0     0     989.1    NA       0.0000   9999     1250  0     0    
2019/07/20  02:04:00  BASE  1.71696  12   2.63424  29   -4.5  100   -4.5  0     0     989.2    NA       0.0000   9999     1250  0     0    
2019/07/20  02:05:00  BASE  1.764    13   2.63424  29   -4.4  100   -4.4  0     0     989.2    NA       0.0000   9999     1250  0     0    
2019/07/20  02:06:00  BASE  2.01096  16   2.63424  29   -4.4  100   -4.4  0     0     989.2    NA       0.0000   9999     1210  0     0    
2019/07/20  02:07:00  BASE  2.02272  11   2.63424  29   -4.3  100   -4.3  0     0     989.2    NA       0.0000   9999     1250  0     0    
2019/07/20  02:08:00  BASE  1.79928  13   2.63424  29   -4.3  100   -4.3  0     0     989.2    NA       0.0000   9999     1210  0     0    
2019/07/20  02:09:01  BASE  1.5876   19   2.42256  9    -4.2  100   -4.2  0     0     989.2    NA       0.0000   9999     1250  10430 0    
2019/07/20  02:10:01  BASE  1.41708  15   2.42256  9    -4.2  100   -4.2  0     0     989.2    NA       0.0000   9999     1310  8010  10300
2019/07/20  02:11:00  BASE  2.04036  7    3.26928  15   -4.2  100   -4.3  0     0     989.2    NA       0.0000   9999     1310  8070  10370
2019/07/20  02:12:01  BASE  2.86944  9    3.35748  14   -4.3  100   -4.3  0     0     989.2    NA       0.0000   9999     7940  10300 0    
2019/07/20  02:13:01  BASE  2.98116  6    3.35748  14   -4.4  100   -4.4  0     0     989.2    NA       0.0000   9999     8070  10400 0    
2019/07/20  02:14:00  BASE  3.03408  3    3.48096  360  -4.4  100   -4.4  0     0     989.2    NA       0.0000   9999     8170  10400 0    
2019/07/20  02:15:01  BASE  3.62796  8    4.68636  13   -4.5  100   -4.5  0     0     989.2    NA       0.0000   9999     1310  10300 0    
2019/07/20  02:16:01  BASE  4.22184  12   4.68636  13   -4.6  100   -4.6  0     0     989.3    NA       0.0000   9999     1280  10340 0    
2019/07/20  02:17:00  BASE  4.45704  11   5.86824  10   -4.6  100   -4.6  0     0     989.2    NA       0.0000   9999     1280  10430 0    
2019/07/20  02:18:00  BASE  4.92744  15   5.99172  12   -4.7  99    -4.7  0     0     989.2    NA       0.0000   9999     1250  0     0    
2019/07/20  02:19:01  BASE  5.2626   12   5.99172  12   -4.8  99    -4.9  0     0     989.2    NA       0.0000   9999     1250  0     0    
2019/07/20  02:20:00  BASE  5.48016  5    6.02112  3    -4.8  99    -4.9  0     0     989.2    NA       0.0000   9999     1250  0     0    
2019/07/20  02:21:00  BASE  5.66244  359  6.02112  360  -4.8  99    -4.9  0     0     989.2    NA       0.0000   9999     1280  10700 0    
2019/07/20  02:22:00  BASE  5.8212   354  6.41508  354  -4.7  99    -4.8  0     0     989.2    NA       0.0000   9999     1210  10730 0    
2019/07/20  02:23:00  BASE  6.01524  360  6.65616  3    -4.6  99    -4.8  0     0     989.1    NA       0.0000   9999     1180  0     0    
2019/07/20  02:24:00  BASE  6.5268   5    7.4088   8    -4.6  99    -4.7  0     0     989.1    NA       0.0000   9999     1210  0     0    
2019/07/20  02:25:00  BASE  7.05012  5    7.56168  7    -4.6  99    -4.7  0     0     989.1    NA       0.0000   9999     1280  10700 0    
2019/07/20  02:26:00  BASE  7.10892  6    7.56168  7    -4.6  99    -4.7  0     0     989.1    NA       0.0000   9999     1250  0     0    
2019/07/20  02:27:00  BASE  7.056    6    7.65576  3    -4.6  99    -4.7  0     0     989.1    NA       0.0000   9999     1250  0     0    
2019/07/20  02:28:00  BASE  6.96192  6    7.65576  3    -4.7  100   -4.7  0     0     989.1    NA       0.0000   9999     1250  10700 0    
2019/07/20  02:29:00  BASE  7.10892  6    7.71456  3    -4.7  100   -4.7  0     0     989.1    NA       0.0000   9999     1210  10760 0    
2019/07/20  02:30:01  BASE  7.56168  5    8.16732  7    -4.7  100   -4.7  0     0     989.1    NA       0.0000   9999     1250  10760 0    
2019/07/20  02:31:00  BASE  7.72632  7    8.16732  7    -4.7  100   -4.7  0     0     989.1    NA       0.0000   9999     1180  10660 0    
2019/07/20  02:32:01  BASE  7.73808  10   8.2908   17   -4.8  100   -4.8  0     0     989.0    NA       0.0000   9999     1250  10700 0    
2019/07/20  02:33:00  BASE  7.83216  12   8.2908   17   -4.8  100   -4.8  0     0     989.1    NA       0.0000   9999     1210  10660 0    
2019/07/20  02:34:01  BASE  7.59108  10   8.2908   17   -4.8  100   -4.8  0     0     989.1    NA       0.0000   9999     1210  10700 0    
2019/07/20  02:35:00  BASE  7.35     10   8.2908   17   -4.8  100   -4.8  0     0     989.1    NA       0.0000   9999     1250  0     0    
2019/07/20  02:36:00  BASE  7.51464  10   8.379    12   -4.8  100   -4.8  0     0     989.1    NA       0.0000   9999     1210  0     0    
2019/07/20  02:37:00  BASE  7.3794   8    8.379    12   -4.9  100   -4.9  0     0     989.1    NA       0.0000   9999     1250  0     0    
2019/07/20  02:38:00  BASE  7.00308  6    8.379    12   -4.8  100   -4.8  0     0     989.0    NA       0.0000   9999     1250  0     0    
2019/07/20  02:39:00  BASE  7.04424  6    8.379    12   -4.8  100   -4.8  0     0     989.1    NA       0.0000   9999     1250  0     0    
2019/07/20  02:40:00  BASE  7.07952  7    8.379    12   -4.8  100   -4.8  0     0     989.0    NA       0.0000   9999     1250  1740  0    
2019/07/20  02:41:00  BASE  6.92076  6    8.379    12   -4.8  100   -4.8  0     0     989.1    NA       0.0000   9999     1250  0     0    
2019/07/20  02:42:00  BASE  6.76788  6    8.379    12   -4.7  100   -4.7  0     0     989.0    NA       0.0000   9999     1280  0     0    
2019/07/20  02:43:00  BASE  6.77964  7    8.379    12   -4.7  100   -4.7  0     0     989.0    NA       0.0000   9999     1210  0     0    
2019/07/20  02:44:00  BASE  6.63852  7    8.379    12   -4.7  100   -4.7  0     0     989.0    NA       0.0000   9999     1250  0     0    
2019/07/20  02:45:00  BASE  6.2916   7    8.379    12   -4.7  100   -4.7  0     0     989.0    NA       0.0000   9999     1250  0     0    
2019/07/20  02:46:00  BASE  5.85648  8    7.71456  4    -4.7  100   -4.7  0     0     989.0    NA       0.0000   9999     1250  0     0    
2019/07/20  02:47:00  BASE  5.69184  8    7.53228  3    -4.6  100   -4.6  0     0     989.0    NA       0.0000   9999     1350  0     0    
2019/07/20  02:48:01  BASE  5.95056  10   7.4088   5    -4.6  100   -4.6  0     0     989.0    NA       0.0000   9999     1350  0     0    
2019/07/20  02:49:01  BASE  6.36804  14   7.4088   5    -4.6  100   -4.6  0     0     989.0    NA       0.0000   9999     1350  0     0    
2019/07/20  02:50:01  BASE  6.33276  14   7.35     9    -4.5  100   -4.5  0     0     989.0    NA       0.0000   9999     1350  0     0    
2019/07/20  02:51:00  BASE  6.0858   14   7.35     9    -4.5  100   -4.5  0     0     989.0    NA       0.0000   9999     1310  0     0    
2019/07/20  02:52:00  BASE  6.00936  12   7.13832  5    -4.5  100   -4.5  0     0     989.0    NA       0.0000   9999     1350  0     0    
2019/07/20  02:53:00  BASE  5.7036   11   7.02072  14   -4.5  100   -4.5  0     0     989.0    NA       0.0000   9999     1380  0     0    
2019/07/20  02:54:00  BASE  5.49192  14   7.02072  14   -4.5  100   -4.5  0     0     989.0    NA       0.0000   9999     1310  0     0    
2019/07/20  02:55:00  BASE  5.53308  16   7.02072  14   -4.6  100   -4.6  0     0     989.0    NA       0.0000   9999     1280  0     0    
2019/07/20  02:56:00  BASE  5.66244  14   7.02072  14   -4.5  100   -4.5  0     0     989.0    NA       0.0000   9999     1280  0     0    
2019/07/20  02:57:00  BASE  5.51544  16   7.02072  14   -4.5  100   -4.5  0     0     989.1    NA       0.0000   9999     1310  0     0    
2019/07/20  02:58:01  BASE  5.48016  19   7.02072  14   -4.5  100   -4.5  0     0     989.0    NA       0.0000   9999     1410  0     0    
2019/07/20  02:59:00  BASE  5.62128  18   6.71496  11   -4.5  100   -4.5  0     0     989.0    NA       0.0000   9999     1410  0     0    
2019/07/20  03:00:00  BASE  5.42136  19   6.71496  11   -4.5  100   -4.5  0     0     989.0    NA       0.0000   9999     1350  0     0    
2019/07/20  03:01:01  BASE  5.19792  20   6.71496  11   -4.5  100   -4.5  0     0     989.0    NA       0.0000   9999     1350  0     0    
2019/07/20  03:02:00  BASE  5.1744   18   6.2622   11   -4.5  100   -4.5  0     0     989.0    NA       0.0000   9999     1380  0     0    
2019/07/20  03:03:01  BASE  5.1744   15   6.2622   11   -4.5  100   -4.5  0     0     989.1    NA       0.0000   9999     1410  6100  0    
2019/07/20  03:04:00  BASE  5.02152  17   6.16812  12   -4.4  100   -4.4  0     0     989.1    NA       0.0000   9999     1410  0     0    
2019/07/20  03:05:01  BASE  4.80984  20   6.16812  12   -4.5  100   -4.5  0     0     989.1    NA       0.0000   9999     1410  0     0    
2019/07/20  03:06:00  BASE  4.72164  22   5.99172  18   -4.4  100   -4.4  0     0     989.0    NA       0.0000   9999     1380  0     0    
2019/07/20  03:07:00  BASE  4.80396  23   5.99172  18   -4.4  100   -4.4  0     0     989.1    NA       0.0000   9999     1410  5970  8400 
2019/07/20  03:08:00  BASE  4.87452  23   5.99172  18   -4.5  100   -4.5  0     0     989.1    NA       0.0000   9999     1440  5910  7350 
2019/07/20  03:09:01  BASE  4.75104  24   5.86824  20   -4.5  100   -4.5  0     0     989.1    NA       0.0000   9999     1380  6200  0    
2019/07/20  03:10:00  BASE  4.48644  29   5.86824  20   -4.5  100   -4.5  0     0     989.1    NA       0.0000   9999     1380  6000  7610 
2019/07/20  03:11:01  BASE  4.35708  30   5.86824  20   -4.5  100   -4.5  0     0     989.1    NA       0.0000   9999     1410  5770  6730 
2019/07/20  03:12:00  BASE  4.13952  28   5.35668  8    -4.5  100   -4.5  0     0     989.1    NA       0.0000   9999     1350  0     0    
2019/07/20  03:13:00  BASE  3.86904  28   5.2626   25   -4.5  100   -4.5  0     0     989.1    NA       0.0000   9999     1350  0     0    
2019/07/20  03:14:00  BASE  3.84552  29   5.2626   25   -4.5  100   -4.5  0     0     989.1    NA       0.0000   9999     1350  5740  7120 
2019/07/20  03:15:00  BASE  3.79848  29   5.10972  19   -4.5  100   -4.5  0     0     989.1    NA       0.0000   9999     1350  5810  0    
2019/07/20  03:16:00  BASE  3.8808   28   5.10972  19   -4.5  100   -4.5  0     0     989.1    NA       0.0000   9999     1280  0     0    
2019/07/20  03:17:00  BASE  3.92784  25   5.05092  22   -4.5  100   -4.5  0     0     989.1    NA       0.0000   9999     1250  0     0    
2019/07/20  03:18:00  BASE  3.92196  22   5.02152  23   -4.4  100   -4.4  0     0     989.2    NA       0.0000   9999     1250  0     0    
2019/07/20  03:19:00  BASE  3.9102   22   5.02152  23   -4.4  100   -4.4  0     0     989.2    NA       0.0000   9999     1250  0     0    
2019/07/20  03:20:00  BASE  3.75732  22   5.02152  23   -4.4  100   -4.4  0     0     989.2    NA       0.0000   9999     1180  0     0    
2019/07/20  03:21:00  BASE  3.62796  21   4.263    35   -4.3  100   -4.3  0     0     989.2    NA       0.0000   9999     1180  0     0    
2019/07/20  03:22:00  BASE  3.41628  19   4.2042   29   -4.3  100   -4.3  0     0     989.2    NA       0.0000   9999     1210  0     0    
2019/07/20  03:23:00  BASE  3.4104   19   4.2042   29   -4.3  100   -4.3  0     0     989.3    NA       0.0000   9999     1180  0     0    
2019/07/20  03:24:00  BASE  3.48096  19   4.2042   29   -4.3  100   -4.3  0     0     989.4    NA       0.0000   9999     1210  0     0    
2019/07/20  03:25:00  BASE  3.22224  13   4.2042   29   -4.2  100   -4.2  0     0     989.4    NA       0.0000   9999     1250  0     0    
2019/07/20  03:26:00  BASE  3.01056  0    4.1748   20   -4.1  100   -4.1  0     0     989.4    NA       0.0000   9999     1210  0     0    
2019/07/20  03:27:00  BASE  3.11052  1    4.1454   19   -4.1  100   -4.1  0     0     989.4    NA       0.0000   9999     1210  0     0    
2019/07/20  03:28:00  BASE  3.29868  5    4.1454   19   -4.0  100   -4.0  0     0     989.4    NA       0.0000   9999     1210  0     0    
2019/07/20  03:29:00  BASE  3.25752  4    4.1454   19   -4.0  100   -4.0  0     0     989.4    NA       0.0000   9999     1250  0     0    
2019/07/20  03:30:00  BASE  3.16932  7    3.86904  22   -4.0  100   -4.0  0     0     989.4    NA       0.0000   9999     1250  0     0    
2019/07/20  03:31:00  BASE  3.25752  10   3.86904  22   -4.0  100   -4.0  0     0     989.5    NA       0.0000   9999     1250  0     0    
2019/07/20  03:32:00  BASE  3.16344  10   3.86904  22   -4.0  100   -4.0  0     0     989.5    NA       0.0000   9999     1250  0     0    
2019/07/20  03:33:00  BASE  3.06348  8    3.78084  14   -4.0  100   -4.0  0     0     989.5    NA       0.0000   9999     1250  0     0    
2019/07/20  03:34:00  BASE  3.1458   5    3.56916  1    -4.0  100   -4.0  0     0     989.6    NA       0.0000   9999     1250  0     0    
2019/07/20  03:35:00  BASE  3.1458   5    3.53976  4    -3.9  100   -3.9  0     0     989.5    NA       0.0000   9999     1250  0     0    
2019/07/20  03:36:00  BASE  3.06936  6    3.53976  4    -3.9  100   -3.9  0     0     989.5    NA       0.0000   9999     1250  0     0    
2019/07/20  03:37:00  BASE  2.86356  6    3.53976  4    -3.9  100   -3.9  0     0     989.5    NA       0.0000   9999     1250  0     0    
2019/07/20  03:38:00  BASE  2.7342   11   3.48096  1    -3.9  100   -3.9  0     0     989.5    NA       0.0000   9999     1250  0     0    
2019/07/20  03:39:00  BASE  2.80476  9    3.48096  1    -3.9  100   -3.9  0     0     989.5    NA       0.0000   9999     1250  0     0    
2019/07/20  03:40:00  BASE  2.80476  5    3.48096  1    -3.9  100   -3.9  0     0     989.5    NA       0.0000   9999     1250  0     0    
2019/07/20  03:41:00  BASE  2.81064  7    3.41628  5    -3.9  100   -3.9  0     0     989.5    NA       0.0000   9999     1250  0     0    
2019/07/20  03:42:00  BASE  2.793    7    3.41628  5    -3.9  100   -3.9  0     0     989.5    NA       0.0000   9999     1250  0     0    
2019/07/20  03:43:00  BASE  2.78712  8    3.41628  5    -3.9  100   -3.9  0     0     989.5    NA       0.0000   9999     1250  0     0    
2019/07/20  03:44:00  BASE  2.68716  7    3.38688  1    -3.9  100   -3.9  0     0     989.5    NA       0.0000   9999     1250  0     0    
2019/07/20  03:45:00  BASE  2.4696   6    3.29868  1    -3.9  100   -3.9  0     0     989.5    NA       0.0000   9999     1210  0     0    
2019/07/20  03:46:00  BASE  2.55192  11   3.26928  1    -3.9  100   -3.9  0     0     989.5    NA       0.0000   9999     1250  0     0    
2019/07/20  03:47:00  BASE  2.60484  15   3.26928  1    -3.9  100   -3.9  0     0     989.5    NA       0.0000   9999     1210  0     0    
2019/07/20  03:48:00  BASE  2.45784  20   3.26928  1    -3.8  100   -3.8  0     0     989.5    NA       0.0000   9999     1210  0     0    
2019/07/20  03:49:00  BASE  2.2638   24   3.26928  1    -3.8  100   -3.8  0     0     989.5    NA       0.0000   9999     1210  0     0    
2019/07/20  03:50:00  BASE  2.01096  25   3.26928  1    -3.8  100   -3.8  0     0     989.5    NA       0.0000   9999     1180  0     0    
2019/07/20  03:51:00  BASE  1.85808  23   3.26928  1    -3.8  100   -3.8  0     0     989.5    NA       0.0000   9999     1180  0     0    
2019/07/20  03:52:00  BASE  1.79928  20   3.26928  1    -3.8  100   -3.8  0     0     989.5    NA       0.0000   9999     1180  0     0    
2019/07/20  03:53:00  BASE  1.59936  26   3.26928  1    -3.8  100   -3.8  0     0     989.5    NA       0.0000   9999     1150  0     0    
2019/07/20  03:54:00  BASE  1.4994   35   3.02232  16   -3.8  100   -3.8  0     0     989.5    NA       0.0000   9999     1150  0     0    
2019/07/20  03:55:00  BASE  1.68756  34   3.02232  16   -3.9  100   -3.9  0     0     989.5    NA       0.0000   9999     1150  0     0    
2019/07/20  03:56:00  BASE  1.79928  33   2.90472  11   -3.9  100   -3.9  0     0     989.5    NA       0.0000   9999     1150  0     0    
2019/07/20  03:57:00  BASE  1.78164  35   2.51076  17   -3.9  100   -3.9  0     0     989.5    NA       0.0000   9999     1120  0     0    
2019/07/20  03:58:00  BASE  1.99332  37   2.45196  41   -3.9  100   -3.9  0     0     989.5    NA       0.0000   9999     1150  0     0    
2019/07/20  03:59:00  BASE  2.1168   34   2.45196  41   -3.9  100   -3.9  0     0     989.5    NA       0.0000   9999     1150  0     0    
2019/07/20  04:00:00  BASE  2.03448  33   2.45196  41   -3.9  100   -3.9  0     0     989.4    NA       0.0000   9999     1150  0     0    
2019/07/20  04:01:00  BASE  1.93452  34   2.45196  41   -3.9  100   -3.9  0     0     989.4    NA       0.0000   9999     1120  0     0    
2019/07/20  04:02:00  BASE  1.68756  38   2.45196  41   -3.9  100   -3.9  0     0     989.4    NA       0.0000   9999     1150  0     0    
2019/07/20  04:03:00  BASE  1.48176  42   2.45196  41   -3.9  100   -3.9  0     0     989.4    NA       0.0000   9999     1150  0     0    
2019/07/20  04:04:00  BASE  1.35828  39   2.45196  41   -3.9  100   -3.9  0     0     989.4    NA       0.0000   9999     1150  0     0    
2019/07/20  04:05:00  BASE  1.28184  37   2.45196  41   -3.9  100   -3.9  0     0     M        NA       0.0000   M        1150  0     0    
2019/07/20  04:06:00  BASE  1.12896  32   2.45196  41   -3.9  100   -3.9  0     0     989.4    NA       0.0000   9999     1120  0     0    
2019/07/20  04:07:00  BASE  1.08192  35   2.45196  41   -3.9  100   -3.9  0     0     989.4    NA       0.0000   9999     1150  0     0    
2019/07/20  04:08:00  BASE  1.09368  45   2.45196  41   -3.9  100   -3.9  0     0     989.4    NA       0.0000   9999     1250  4460  0    
2019/07/20  04:09:00  BASE  1.16424  55   2.24028  30   -3.9  100   -3.9  0     0     989.4    NA       0.0000   9999     1280  0     0    
2019/07/20  04:10:00  BASE  1.40532  59   2.21088  29   -3.9  100   -3.9  0     0     989.4    NA       0.0000   9999     1180  0     0    
2019/07/20  04:11:00  BASE  1.59936  55   1.87572  35   -4.0  100   -4.0  0     0     989.4    NA       0.0000   9999     1150  0     0    
2019/07/20  04:12:00  BASE  1.57584  56   1.78752  51   -4.0  100   -4.0  0     0     989.4    NA       0.0000   9999     1150  0     0    
2019/07/20  04:13:00  BASE  1.68756  61   1.87572  60   -4.0  100   -4.0  0     0     989.4    NA       0.0000   9999     1150  0     0    
2019/07/20  04:14:00  BASE  1.80516  62   1.9992   59   -4.0  100   -4.0  0     0     989.4    NA       0.0000   9999     1150  0     0    
2019/07/20  04:15:00  BASE  1.764    62   1.9992   59   -4.0  100   -4.0  0     0     989.4    NA       0.0000   9999     1150  0     0    
2019/07/20  04:16:00  BASE  1.71696  66   1.9992   59   -3.9  100   -3.9  0     0     989.3    NA       0.0000   9999     1150  0     0    
2019/07/20  04:17:00  BASE  1.64052  75   1.9992   59   -3.9  100   -3.9  0     0     989.2    NA       0.0000   9999     1120  0     0    
2019/07/20  04:18:00  BASE  1.55232  79   1.9992   59   -4.0  100   -4.0  0     0     989.2    NA       0.0000   9999     1080  0     0    
2019/07/20  04:19:00  BASE  1.5288   78   1.9992   59   -4.0  100   -4.0  0     0     989.2    NA       0.0000   9999     1080  0     0    
2019/07/20  04:20:00  BASE  1.5582   81   1.9992   59   -4.0  100   -4.0  0     0     989.2    NA       0.0000   9999     1080  0     0    
2019/07/20  04:21:00  BASE  1.56408  81   1.9992   59   -4.0  100   -4.0  0     0     989.2    NA       0.0000   9999     1080  0     0    
2019/07/20  04:22:00  BASE  1.50528  80   1.9992   59   -4.0  100   -4.0  0     0     989.2    NA       0.0000   9999     1120  0     0    
2019/07/20  04:23:00  BASE  1.48176  77   1.9992   59   -4.0  100   -4.0  0     0     989.2    NA       0.0000   9999     1120  0     0    
2019/07/20  04:24:00  BASE  1.4112   75   1.81692  83   -3.9  100   -3.9  0     0     989.2    NA       0.0000   9999     1120  0     0    
2019/07/20  04:25:00  BASE  1.31124  71   1.81692  83   -3.9  100   -3.9  0     0     989.2    NA       0.0000   9999     1120  0     0    
2019/07/20  04:26:00  BASE  1.27596  63   1.81692  83   -3.9  100   -3.9  0     0     989.2    NA       0.0000   9999     1120  0     0    
2019/07/20  04:27:00  BASE  1.38768  64   1.81692  83   -3.8  100   -3.8  0     0     989.2    NA       0.0000   9999     1080  0     0    
2019/07/20  04:28:00  BASE  1.54644  66   1.81692  83   -3.8  100   -3.8  0     0     989.2    NA       0.0000   9999     1120  0     0    
2019/07/20  04:29:00  BASE  1.72872  65   2.0874   59   -3.8  100   -3.8  0     0     989.2    NA       0.0000   9999     1120  0     0    
2019/07/20  04:30:00  BASE  1.87572  63   2.0874   59   -3.8  100   -3.8  0     0     989.2    NA       0.0000   9999     1120  0     0    
2019/07/20  04:31:00  BASE  1.78164  63   2.0874   59   -3.8  100   -3.8  0     0     989.2    NA       0.0000   9999     1120  0     0    
2019/07/20  04:32:00  BASE  1.69344  64   2.0874   59   -3.8  100   -3.8  0     0     989.2    NA       0.0000   9999     1120  0     0    
2019/07/20  04:33:00  BASE  1.61112  66   2.0874   59   -3.8  100   -3.8  0     0     989.2    NA       0.0000   9999     1080  0     0    
2019/07/20  04:34:00  BASE  1.44648  70   2.0874   59   -3.8  100   -3.8  0     0     989.2    NA       0.0000   9999     1050  0     0    
2019/07/20  04:35:00  BASE  1.30536  75   2.0874   59   -3.8  100   -3.8  0     0     989.1    NA       0.0000   9999     1050  0     0    
2019/07/20  04:36:00  BASE  1.2348   83   2.0874   59   -3.8  100   -3.8  0     0     989.1    NA       0.0000   9999     1020  0     0    
2019/07/20  04:37:00  BASE  1.22304  87   2.0874   59   -3.8  100   -3.8  0     0     989.1    NA       0.0000   9999     980   0     0    
2019/07/20  04:38:00  BASE  1.19364  85   2.0874   59   -3.8  100   -3.8  0     0     989.1    NA       0.0000   9999     1020  0     0    
2019/07/20  04:39:00  BASE  1.21128  83   2.0286   59   -3.9  100   -3.9  0     0     989.1    NA       0.0000   9999     1020  0     0    
2019/07/20  04:40:00  BASE  1.15836  86   1.87572  63   -3.9  100   -3.9  0     0     989.1    NA       0.0000   9999     1020  0     0    
2019/07/20  04:41:00  BASE  1.01724  94   1.87572  63   -3.9  100   -3.9  0     0     989.1    NA       0.0000   9999     1020  0     0    
2019/07/20  04:42:00  BASE  1.09956  98   1.60524  70   -4.0  100   -4.0  0     0     989.1    NA       0.0000   9999     1050  4720  6270 
2019/07/20  04:43:00  BASE  1.2348   94   1.45236  73   -4.0  100   -4.0  0     0     989.1    NA       0.0000   9999     1080  0     0    
2019/07/20  04:44:00  BASE  1.27008  91   1.39356  89   -4.0  100   -4.0  0     0     989.1    NA       0.0000   9999     1050  0     0    
2019/07/20  04:45:00  BASE  1.34652  91   1.57584  90   -4.0  100   -4.0  0     0     989.1    NA       0.0000   9999     1020  0     0    
2019/07/20  04:46:00  BASE  1.36416  94   1.57584  90   -4.0  100   -4.0  0     0     989.1    NA       0.0000   9999     1020  0     0    
2019/07/20  04:47:00  BASE  1.323    98   1.57584  90   -4.0  100   -4.0  0     0     989.1    NA       0.0000   9999     1020  0     0    
2019/07/20  04:48:00  BASE  1.37592  98   1.57584  100  -4.0  100   -4.0  0     0     989.1    NA       0.0000   9999     1050  0     0    
2019/07/20  04:49:00  BASE  1.45236  98   1.66404  93   -4.0  100   -4.0  0     0     989.1    NA       0.0000   9999     1050  0     0    
2019/07/20  04:50:00  BASE  1.5288   97   1.75224  92   -4.0  100   -4.0  0     0     989.1    NA       0.0000   9999     1080  0     0    
2019/07/20  04:51:01  BASE  1.63464  100  1.81692  104  -4.0  100   -4.0  0     0     989.1    NA       0.0000   9999     1050  0     0    
2019/07/20  04:52:00  BASE  1.62288  106  1.81692  104  -4.0  100   -4.0  0     0     989.1    NA       0.0000   9999     1050  0     0    
2019/07/20  04:53:00  BASE  1.6464   105  1.87572  104  -4.0  100   -4.0  0     0     989.1    NA       0.0000   9999     1020  0     0    
2019/07/20  04:54:00  BASE  1.7052   104  1.87572  104  -4.0  100   -4.0  0     0     989.1    NA       0.0000   9999     1080  0     0    
2019/07/20  04:55:00  BASE  1.66992  101  1.87572  104  -4.0  100   -4.0  0     0     989.0    NA       0.0000   9999     1280  0     0    
2019/07/20  04:56:00  BASE  1.59936  101  1.87572  104  -3.9  100   -3.9  0     0     989.0    NA       0.0000   9999     1280  4760  0    
2019/07/20  04:57:00  BASE  1.55232  106  1.87572  104  -3.9  100   -3.9  0     0     989.0    NA       0.0000   9999     1210  6790  0    
2019/07/20  04:58:00  BASE  1.59348  110  1.87572  104  -3.9  100   -3.9  0     0     989.0    NA       0.0000   9999     1150  6760  0    
2019/07/20  04:59:00  BASE  1.617    112  1.87572  104  -3.9  100   -3.9  0     0     989.0    NA       0.0000   9999     5020  6760  12010
2019/07/20  05:00:00  BASE  1.68168  115  1.87572  117  -3.9  100   -3.9  0     0     988.9    NA       0.0000   9999     4820  6760  0    
2019/07/20  05:01:00  BASE  1.68756  118  1.87572  117  -4.0  100   -4.0  0     0     988.9    NA       0.0000   9999     4720  6460  11940
2019/07/20  05:02:00  BASE  1.84044  117  2.51076  115  -4.1  100   -4.1  0     0     988.9    NA       0.0000   9999     4590  11840 0    
2019/07/20  05:03:00  BASE  2.32848  109  2.78124  102  -4.2  100   -4.2  0     0     988.9    NA       0.0000   9999     4630  11840 0    
2019/07/20  05:04:00  BASE  2.51076  106  2.78124  102  -4.3  100   -4.3  0     0     988.9    NA       0.0000   9999     4530  12040 0    
2019/07/20  05:05:00  BASE  2.4402   108  2.78124  115  -4.3  100   -4.3  0     0     988.9    NA       0.0000   9999     1510  11840 0    
2019/07/20  05:06:00  BASE  2.48136  109  2.78124  115  -4.4  100   -4.4  0     0     988.9    NA       0.0000   9999     1510  4590  11910
2019/07/20  05:07:00  BASE  2.36964  108  2.78124  115  -4.4  100   -4.4  0     0     988.9    NA       0.0000   9999     1510  4660  12110
2019/07/20  05:08:00  BASE  2.24616  106  2.78124  115  -4.4  100   -4.4  0     0     988.9    NA       0.0000   9999     1480  5020  6270 
2019/07/20  05:09:00  BASE  2.15208  106  2.78124  115  -4.3  100   -4.3  0     0     988.9    NA       0.0000   9999     1380  0     0    
2019/07/20  05:10:00  BASE  2.06976  107  2.78124  115  -4.3  100   -4.3  0     0     988.9    NA       0.0000   9999     1250  0     0    
2019/07/20  05:11:00  BASE  2.01684  108  2.78124  115  -4.2  100   -4.2  0     0     988.8    NA       0.0000   9999     1410  5710  0    
2019/07/20  05:12:00  BASE  1.95216  107  2.78124  115  -4.1  100   -4.1  0     0     988.7    NA       0.0000   9999     1410  0     0    
2019/07/20  05:13:00  BASE  1.9698   102  2.78124  115  -4.0  100   -4.0  0     0     988.8    NA       0.0000   9999     1410  0     0    
2019/07/20  05:14:00  BASE  1.9992   97   2.78124  115  -4.0  100   -4.0  0     0     988.8    NA       0.0000   9999     1410  0     0    
2019/07/20  05:15:00  BASE  1.95216  95   2.72244  109  -3.9  100   -3.9  0     0     988.8    NA       0.0000   9999     1350  0     0    
2019/07/20  05:16:00  BASE  1.89336  95   2.51076  110  -3.9  100   -3.9  0     0     988.8    NA       0.0000   9999     1350  0     0    
2019/07/20  05:17:00  BASE  1.82868  98   2.51076  110  -3.9  100   -3.9  0     0     988.7    NA       0.0000   9999     1350  0     0    
2019/07/20  05:18:00  BASE  1.7934   101  2.1756   107  -3.9  100   -3.9  0     0     988.7    NA       0.0000   9999     1280  6170  0    
2019/07/20  05:19:00  BASE  1.75224  102  2.1462   96   -3.9  100   -3.9  0     0     988.7    NA       0.0000   9999     1310  0     0    
2019/07/20  05:20:00  BASE  1.7052   101  2.1462   96   -3.8  100   -3.8  0     0     988.7    NA       0.0000   9999     1350  6590  12070
2019/07/20  05:21:01  BASE  1.69344  100  2.1462   96   -3.8  100   -3.8  0     0     988.7    NA       0.0000   9999     1280  6430  0    
2019/07/20  05:22:01  BASE  1.617    100  2.1462   96   -3.9  100   -3.9  0     0     988.7    NA       0.0000   9999     1250  5050  0    
2019/07/20  05:23:01  BASE  1.4994   100  2.1462   96   -3.9  100   -3.9  0     0     988.7    NA       0.0000   9999     1280  5050  6960 
2019/07/20  05:24:01  BASE  1.49352  102  2.0286   94   -4.0  100   -4.0  0     0     988.7    NA       0.0000   9999     1350  5020  6890 
2019/07/20  05:25:01  BASE  1.58172  105  1.90512  95   -4.1  100   -4.1  0     0     988.7    NA       0.0000   9999     1310  0     0    
2019/07/20  05:26:01  BASE  1.58172  104  1.87572  99   -4.1  100   -4.1  0     0     988.7    NA       0.0000   9999     1280  5220  0    
2019/07/20  05:27:01  BASE  1.51704  101  1.87572  99   -4.1  100   -4.1  0     0     988.7    NA       0.0000   9999     1180  0     0    
2019/07/20  05:28:01  BASE  1.4112   101  1.87572  99   -4.1  100   -4.1  0     0     988.7    NA       0.0000   9999     1210  5050  0    
2019/07/20  05:29:01  BASE  1.323    100  1.87572  99   -4.1  100   -4.1  0     0     988.7    NA       0.0000   9999     1150  0     0    
2019/07/20  05:30:01  BASE  1.34652  94   1.75224  101  -4.1  100   -4.1  0     0     988.7    NA       0.0000   9999     1180  0     0    
2019/07/20  05:31:01  BASE  1.34064  90   1.72284  107  -4.1  100   -4.1  0     0     988.7    NA       0.0000   9999     1180  4890  8430 
2019/07/20  05:32:01  BASE  1.41708  88   1.72284  107  -4.1  100   -4.1  0     0     988.7    NA       0.0000   9999     1210  4790  6400 
2019/07/20  05:33:01  BASE  1.63464  87   1.96392  89   -4.1  100   -4.1  0     0     988.7    NA       0.0000   9999     1180  4720  6630 
2019/07/20  05:34:01  BASE  1.83456  87   2.058    87   -4.1  100   -4.1  0     0     988.6    NA       0.0000   9999     1210  4630  6430 
2019/07/20  05:35:01  BASE  1.92864  86   2.0874   84   -4.1  100   -4.1  0     0     988.6    NA       0.0000   9999     4590  6000  6530 
2019/07/20  05:36:01  BASE  1.91688  87   2.0874   84   -4.1  100   -4.1  0     0     988.5    NA       0.0000   9999     4530  6100  0    
2019/07/20  05:37:01  BASE  1.78752  92   2.0874   84   -4.1  100   -4.1  0     0     988.5    NA       0.0000   9999     1150  4530  5710 
2019/07/20  05:38:01  BASE  1.64052  97   2.0874   84   -4.1  100   -4.1  0     0     988.5    NA       0.0000   9999     1120  4660  6430 
2019/07/20  05:39:01  BASE  1.54056  96   2.0874   84   -4.1  100   -4.1  0     0     988.5    NA       0.0000   9999     4660  0     0    
2019/07/20  05:40:01  BASE  1.37592  92   2.0874   84   -4.1  100   -4.1  0     0     988.5    NA       0.0000   9999     4630  6200  0    
2019/07/20  05:41:01  BASE  1.2348   89   2.0874   84   -4.1  100   -4.1  0     0     988.5    NA       0.0000   9999     4660  6140  0    
2019/07/20  05:42:01  BASE  1.2348   90   2.0874   84   -4.1  100   -4.1  0     0     988.5    NA       0.0000   9999     4590  5870  0    
2019/07/20  05:43:01  BASE  1.22304  96   2.0874   84   -4.1  100   -4.1  0     0     988.5    NA       0.0000   9999     4590  6040  6860 
2019/07/20  05:44:01  BASE  1.2936   99   2.0874   84   -4.1  100   -4.1  0     0     988.5    NA       0.0000   9999     4590  6000  7510 
2019/07/20  05:45:01  BASE  1.45824  100  2.058    93   -4.0  100   -4.0  0     0     988.5    NA       0.0000   9999     4560  8500  0    
2019/07/20  05:46:01  BASE  1.5876   104  1.87572  85   -4.0  100   -4.0  0     0     988.4    NA       0.0000   9999     4590  8500  0    
2019/07/20  05:47:01  BASE  1.7346   106  1.90512  103  -4.0  100   -4.0  0     0     988.4    NA       0.0000   9999     4630  0     0    
2019/07/20  05:48:01  BASE  1.78164  102  1.93452  99   -4.1  100   -4.1  0     0     988.4    NA       0.0000   9999     4690  0     0    
2019/07/20  05:49:01  BASE  1.79928  96   2.0874   96   -4.1  100   -4.1  0     0     988.4    NA       0.0000   9999     1120  4760  5680 
2019/07/20  05:50:01  BASE  1.79928  95   2.0874   96   -4.1  100   -4.1  0     0     988.4    NA       0.0000   9999     4760  5810  6370 
2019/07/20  05:51:01  BASE  1.7934   96   2.0874   99   -4.1  100   -4.1  0     0     988.4    NA       0.0000   9999     4720  6330  8460 
2019/07/20  05:52:01  BASE  1.8522   96   2.0874   99   -4.2  100   -4.2  0     0     988.4    NA       0.0000   9999     4720  6430  0    
2019/07/20  05:53:01  BASE  1.92276  98   2.1462   99   -4.2  100   -4.2  0     0     988.3    NA       0.0000   9999     4860  5810  0    
2019/07/20  05:54:01  BASE  2.01096  100  2.24028  98   -4.2  100   -4.2  0     0     988.3    NA       0.0000   9999     4790  6100  6860 
2019/07/20  05:55:01  BASE  1.9992   101  2.24028  98   -4.3  100   -4.3  0     0     988.3    NA       0.0000   9999     4820  6690  8790 
2019/07/20  05:56:01  BASE  1.9404   101  2.24028  98   -4.3  100   -4.3  0     0     988.3    NA       0.0000   9999     4890  6500  8830 
2019/07/20  05:57:01  BASE  1.9992   102  2.24028  98   -4.3  100   -4.3  0     0     988.3    NA       0.0000   9999     5020  6430  8790 
2019/07/20  05:58:01  BASE  2.058    100  2.24028  98   -4.3  100   -4.3  0     0     988.3    NA       0.0000   9999     5120  6890  0    
2019/07/20  05:59:01  BASE  2.00508  101  2.24028  98   -4.3  100   -4.3  0     0     988.3    NA       0.0000   9999     5220  8790  0    
2019/07/20  06:00:01  BASE  1.96392  102  2.24028  98   -4.2  100   -4.2  0     0     988.3    NA       0.0000   9999     6890  8760  0    
2019/07/20  06:01:01  BASE  1.8228   105  2.24028  98   -4.2  100   -4.2  0     0     988.3    NA       0.0000   9999     5480  8760  0    
2019/07/20  06:02:01  BASE  1.66404  111  2.24028  98   -4.2  100   -4.2  0     0     988.2    NA       0.0000   9999     5350  8690  0    
2019/07/20  06:03:01  BASE  1.56996  110  2.24028  98   -4.1  100   -4.1  0     0     988.2    NA       0.0000   9999     5410  8730  0    
2019/07/20  06:04:01  BASE  1.48764  109  2.1462   108  -4.1  100   -4.1  0     0     988.2    NA       0.0000   9999     5450  6960  8860 
2019/07/20  06:05:01  BASE  1.5288   111  2.1462   108  -4.1  100   -4.1  0     0     988.3    NA       0.0000   9999     6920  8830  0    
2019/07/20  06:06:01  BASE  1.62876  114  2.1462   108  -4.0  100   -4.0  0     0     988.3    NA       0.0000   9999     6890  8790  0    
2019/07/20  06:07:01  BASE  1.617    116  2.1462   108  -4.0  100   -4.0  0     0     988.2    NA       0.0000   9999     5580  9350  0    
2019/07/20  06:08:01  BASE  1.48764  114  2.1462   108  -4.0  100   -4.0  0     0     988.2    NA       0.0000   9999     5610  9060  0    
2019/07/20  06:09:01  BASE  1.53468  114  2.1168   111  -4.0  100   -4.0  0     0     988.2    NA       0.0000   9999     6820  8990  0    
2019/07/20  06:10:01  BASE  1.57584  116  1.87572  112  -4.0  100   -4.0  0     0     988.2    NA       0.0000   9999     6820  0     0    
2019/07/20  06:11:01  BASE  1.60524  116  1.81692  117  -4.0  100   -4.0  0     0     988.2    NA       0.0000   9999     6960  8960  0    
2019/07/20  06:12:01  BASE  1.75812  114  1.93452  118  -4.0  100   -4.0  0     0     988.2    NA       0.0000   9999     5610  8920  0    
2019/07/20  06:13:01  BASE  1.76988  112  1.93452  118  -4.0  100   -4.0  0     0     988.2    NA       0.0000   9999     5610  8920  0    
2019/07/20  06:14:01  BASE  1.68168  112  1.93452  118  -4.0  100   -4.0  0     0     988.2    NA       0.0000   9999     5540  9150  0    
2019/07/20  06:15:01  BASE  1.65228  114  1.93452  118  -4.0  100   -4.0  0     0     988.2    NA       0.0000   9999     5450  6990  8990 
2019/07/20  06:16:01  BASE  1.6464   116  1.93452  118  -4.0  100   -4.0  0     0     988.1    NA       0.0000   9999     5410  6960  8990 
2019/07/20  06:17:01  BASE  1.62876  119  1.93452  118  -4.0  100   -4.0  0     0     988.0    NA       0.0000   9999     5380  6860  11220
2019/07/20  06:18:01  BASE  1.62876  119  1.93452  118  -4.0  100   -4.0  0     0     988.0    NA       0.0000   9999     5410  6820  8960 
2019/07/20  06:19:01  BASE  1.54644  118  1.93452  118  -4.0  100   -4.0  0     0     988.0    NA       0.0000   9999     5410  6760  8960 
2019/07/20  06:20:01  BASE  1.32888  122  1.93452  118  -4.0  100   -4.0  0     0     988.0    NA       0.0000   9999     5350  6760  8400 
2019/07/20  06:21:01  BASE  1.19952  118  1.93452  118  -4.0  100   -4.0  0     0     988.0    NA       0.0000   9999     5380  6690  8330 
2019/07/20  06:22:01  BASE  1.21128  110  1.87572  113  -4.0  100   -4.0  0     0     988.0    NA       0.0000   9999     5410  8400  9220 
2019/07/20  06:23:01  BASE  1.1172   107  1.81692  123  -4.0  100   -4.0  0     0     988.0    NA       0.0000   9999     5450  8400  0    
2019/07/20  06:24:01  BASE  1.09956  98   1.81692  123  -4.0  100   -4.0  0     0     988.0    NA       0.0000   9999     6730  8330  9290 
2019/07/20  06:25:01  BASE  1.12896  89   1.81692  123  -3.9  100   -3.9  0     0     988.0    NA       0.0000   9999     6660  8300  9250 
2019/07/20  06:26:01  BASE  1.12896  83   1.81692  123  -3.9  100   -3.9  0     0     988.0    NA       0.0000   9999     6630  8270  9190 
2019/07/20  06:27:01  BASE  1.16424  76   1.78752  127  -3.9  100   -3.9  0     0     988.0    NA       0.0000   9999     6820  8040  9150 
2019/07/20  06:28:01  BASE  1.10544  78   1.54056  113  -3.9  100   -3.9  0     0     988.0    NA       0.0000   9999     6820  7940  9220 
2019/07/20  06:29:01  BASE  1.14072  76   1.39356  69   -3.9  100   -3.9  0     0     988.0    NA       0.0000   9999     6860  7940  8500 
2019/07/20  06:30:01  BASE  1.25244  72   1.39356  69   -3.8  100   -3.8  0     0     988.0    NA       0.0000   9999     6790  8040  8460 
2019/07/20  06:31:01  BASE  1.14072  77   1.39356  69   -3.8  100   -3.8  0     0     988.0    NA       0.0000   9999     6790  8010  9320 
2019/07/20  06:32:01  BASE  0.9996   76   1.39356  69   -3.9  100   -3.9  0     0     988.0    NA       0.0000   9999     6820  8070  9250 
2019/07/20  06:33:01  BASE  0.98196  73   1.39356  69   -3.9  100   -3.9  0     0     988.0    NA       0.0000   9999     7020  8040  9650 
2019/07/20  06:34:01  BASE  0.9996   79   1.39356  69   -4.0  100   -4.0  0     0     988.0    NA       0.0000   9999     6920  8010  9450 
2019/07/20  06:35:01  BASE  0.9702   80   1.39356  69   -4.0  100   -4.0  0     0     988.0    NA       0.0000   9999     6890  7840  8370 
2019/07/20  06:36:01  BASE  0.96432  72   1.39356  69   -4.0  100   -4.0  0     0     988.0    NA       0.0000   9999     6890  8400  9150 
2019/07/20  06:37:01  BASE  1.02312  65   1.39356  69   -4.0  100   -4.0  0     0     988.0    NA       0.0000   9999     7020  8430  11120
2019/07/20  06:38:01  BASE  1.0584   61   1.39356  69   -4.0  100   -4.0  0     0     988.0    NA       0.0000   9999     6960  7550  8860 
2019/07/20  06:39:01  BASE  1.1172   61   1.35828  67   -4.0  100   -4.0  0     0     988.0    NA       0.0000   9999     6920  7870  8990 
2019/07/20  06:40:01  BASE  1.176    65   1.24068  68   -4.0  100   -4.0  0     0     987.9    NA       0.0000   9999     7480  8730  11090
2019/07/20  06:41:01  BASE  1.2348   67   1.29948  62   -4.0  100   -4.0  0     0     987.9    NA       0.0000   9999     7420  8730  11120
2019/07/20  06:42:01  BASE  1.25832  64   1.29948  63   -4.0  100   -4.0  0     0     988.0    NA       0.0000   9999     7420  8690  10730
2019/07/20  06:43:01  BASE  1.27596  63   1.35828  66   -4.0  100   -4.0  0     0     988.0    NA       0.0000   9999     6990  8760  0    
2019/07/20  06:44:01  BASE  1.32888  63   1.42296  61   -4.0  100   -4.0  0     0     987.9    NA       0.0000   9999     6920  7480  8830 
2019/07/20  06:45:01  BASE  1.29948  61   1.42296  61   -4.0  100   -4.0  0     0     987.9    NA       0.0000   9999     6860  7450  8830 
2019/07/20  06:46:01  BASE  1.21716  62   1.42296  61   -4.0  100   -4.0  0     0     987.9    NA       0.0000   9999     6860  8330  0    
2019/07/20  06:47:01  BASE  1.18776  65   1.42296  61   -4.0  100   -4.0  0     0     987.9    NA       0.0000   9999     6790  8860  9480 
2019/07/20  06:48:01  BASE  1.09956  63   1.42296  61   -4.0  100   -4.0  0     0     987.9    NA       0.0000   9999     6760  8300  10730
2019/07/20  06:49:01  BASE  0.90552  63   1.42296  61   -4.0  100   -4.0  0     0     987.9    NA       0.0000   9999     6790  8270  10630
2019/07/20  06:50:01  BASE  0.67032  64   1.42296  61   -4.0  100   -4.0  0     0     987.9    NA       0.0000   9999     6790  9940  10890
2019/07/20  06:51:01  BASE  0.69972  57   1.42296  61   -4.0  100   -4.0  0     0     987.9    NA       0.0000   9999     6760  8330  9970 
2019/07/20  06:52:01  BASE  0.89964  50   1.42296  61   -4.0  100   -4.0  0     0     987.9    NA       0.0000   9999     6730  8240  10040
2019/07/20  06:53:01  BASE  0.98196  46   1.42296  61   -4.0  100   -4.0  0     0     987.9    NA       0.0000   9999     6760  8200  11020
2019/07/20  06:54:01  BASE  0.9702   49   1.29948  61   -4.0  100   -4.0  0     0     987.9    NA       0.0000   9999     6730  8200  9420 
2019/07/20  06:55:01  BASE  0.91728  58   1.27008  64   -4.0  100   -4.0  0     0     987.8    NA       0.0000   9999     6760  8070  11020
2019/07/20  06:56:01  BASE  0.98784  66   1.27008  64   -4.0  100   -4.0  0     0     987.8    NA       0.0000   9999     6730  8070  9320 
2019/07/20  06:57:01  BASE  1.00548  75   1.18188  43   -4.0  100   -4.0  0     0     987.8    NA       0.0000   9999     6690  8040  8860 
2019/07/20  06:58:01  BASE  1.01136  80   1.18188  43   -4.0  100   -4.0  0     0     987.8    NA       0.0000   9999     6660  8070  9290 
2019/07/20  06:59:01  BASE  1.13484  83   1.24068  82   -4.1  100   -4.1  0     0     987.8    NA       0.0000   9999     6660  8070  9350 
2019/07/20  07:00:01  BASE  1.18188  81   1.24068  82   -4.1  100   -4.1  0     0     987.8    NA       0.0000   9999     6630  7450  9020 
2019/07/20  07:01:01  BASE  1.09956  79   1.24068  82   -4.2  100   -4.2  0     0     987.8    NA       0.0000   9999     6590  7680  8270 
2019/07/20  07:02:01  BASE  1.04076  81   1.24068  82   -4.2  100   -4.2  0     0     987.8    NA       0.0000   9999     6530  7580  8200 
2019/07/20  07:03:01  BASE  1.01724  84   1.24068  82   -4.2  100   -4.2  0     0     987.8    NA       0.0000   9999     6590  7870  8690 
2019/07/20  07:04:01  BASE  0.98784  84   1.24068  82   -4.2  100   -4.2  0     0     987.8    NA       0.0000   9999     6660  7910  9320 
2019/07/20  07:05:01  BASE  1.01136  82   1.24068  81   -4.1  100   -4.1  0     0     987.8    NA       0.0000   9999     6660  7940  9810 
2019/07/20  07:06:01  BASE  0.96432  81   1.24068  81   -4.1  100   -4.1  0     0     987.7    NA       0.0000   9999     6690  7910  9580 
2019/07/20  07:07:01  BASE  0.82908  83   1.24068  81   -4.1  100   -4.1  0     0     987.7    NA       0.0000   9999     6690  7840  8690 
2019/07/20  07:08:01  BASE  0.68796  86   1.24068  81   -4.0  100   -4.0  0     0     987.7    NA       0.0000   9999     6630  7480  8040 
2019/07/20  07:09:01  BASE  0.294    86   1.24068  81   -4.0  100   -4.0  0     0     987.7    NA       0.0000   9999     6630  7780  8730 
2019/07/20  07:10:01  BASE  0        88   1.24068  81   -4.0  100   -4.0  0     0     987.7    NA       0.0000   9999     6590  7640  8600 
2019/07/20  07:11:01  BASE  0        90   1.24068  81   -4.0  100   -4.0  0     0     987.7    NA       0.0000   9999     6590  7450  8630 
2019/07/20  07:12:01  BASE  0        88   1.24068  81   -4.0  100   -4.0  0     0     987.7    NA       0.0000   9999     6630  7320  8100 
2019/07/20  07:13:01  BASE  0.37632  83   1.24068  81   -4.1  100   -4.1  0     0     987.7    NA       0.0000   9999     6660  7970  11520
2019/07/20  07:14:01  BASE  0.77028  78   1.24068  81   -4.1  100   -4.1  0     0     987.7    NA       0.0000   9999     6690  7940  11610
2019/07/20  07:15:01  BASE  0.87024  77   1.42296  81   -4.1  100   -4.1  0     0     987.6    NA       0.0000   9999     6760  7940  11880
2019/07/20  07:16:01  BASE  1.18188  79   1.54056  75   -4.2  100   -4.2  0     0     987.6    NA       0.0000   9999     6860  7840  11650
2019/07/20  07:17:01  BASE  1.47588  78   1.60524  74   -4.2  100   -4.2  0     0     987.6    NA       0.0000   9999     6760  7810  11580
2019/07/20  07:18:01  BASE  1.47588  77   1.60524  74   -4.2  100   -4.2  0     0     987.6    NA       0.0000   9999     6660  7780  11580
2019/07/20  07:19:01  BASE  1.46412  76   1.60524  70   -4.2  100   -4.2  0     0     987.6    NA       0.0000   9999     6530  7190  11610
2019/07/20  07:20:01  BASE  1.5288   71   1.63464  69   -4.3  100   -4.3  0     0     987.6    NA       0.0000   9999     6500  7190  11520
2019/07/20  07:21:01  BASE  1.64052  66   2.0286   60   -4.3  100   -4.3  0     0     987.6    NA       0.0000   9999     6530  7870  11420
2019/07/20  07:22:01  BASE  1.60524  62   2.0286   60   -4.3  100   -4.3  0     0     987.5    NA       0.0000   9999     6590  7810  11350
2019/07/20  07:23:01  BASE  1.42296  62   2.0286   60   -4.3  100   -4.3  0     0     987.4    NA       0.0000   9999     6200  7740  11610
2019/07/20  07:24:01  BASE  1.35828  67   2.0286   60   -4.3  100   -4.3  0     0     987.4    NA       0.0000   9999     6270  11520 0    
2019/07/20  07:25:01  BASE  1.43472  70   2.0286   60   -4.3  100   -4.3  0     0     987.4    NA       0.0000   9999     6300  11550 0    
2019/07/20  07:26:01  BASE  1.56408  66   2.0286   60   -4.3  100   -4.3  0     0     987.4    NA       0.0000   9999     6270  11550 0    
2019/07/20  07:27:01  BASE  1.5288   64   2.0286   60   -4.3  100   -4.3  0     0     987.4    NA       0.0000   9999     6200  11840 0    
2019/07/20  07:28:01  BASE  1.3524   69   2.0286   60   -4.3  100   -4.3  0     0     987.3    NA       0.0000   9999     6200  7350  11750
2019/07/20  07:29:01  BASE  1.22892  71   2.0286   60   -4.3  100   -4.3  0     0     987.3    NA       0.0000   9999     6590  7350  11710
2019/07/20  07:30:01  BASE  1.21128  72   2.0286   60   -4.3  99    -4.3  0     0     987.3    NA       0.0000   9999     6590  7380  11710
2019/07/20  07:31:01  BASE  1.18188  79   1.75224  60   -4.2  99    -4.3  0     0     987.3    NA       0.0000   9999     7050  11650 0    
2019/07/20  07:32:01  BASE  1.12896  83   1.75224  60   -4.2  99    -4.3  0     0     987.3    NA       0.0000   9999     7150  7840  11580
2019/07/20  07:33:01  BASE  1.17012  83   1.75224  60   -4.2  99    -4.3  0     0     987.3    NA       0.0000   9999     6960  11710 0    
2019/07/20  07:34:01  BASE  1.22892  80   1.75224  60   -4.1  99    -4.3  0     0     987.3    NA       0.0000   9999     6890  11610 0    
2019/07/20  07:35:01  BASE  1.29948  74   1.75224  60   -4.1  99    -4.3  0     0     987.3    NA       0.0000   9999     11610 0     0    
2019/07/20  07:36:01  BASE  1.4112   70   1.54056  68   -4.1  99    -4.3  0     0     987.3    NA       0.0000   9999     11680 0     0    
2019/07/20  07:37:01  BASE  1.48176  71   1.54056  76   -4.0  98    -4.2  0     0     987.3    NA       0.0000   9999     11610 0     0    
2019/07/20  07:38:01  BASE  1.53468  78   1.60524  82   -4.0  98    -4.3  0     0     987.3    NA       0.0000   9999     11650 0     0    
2019/07/20  07:39:01  BASE  1.51704  85   1.60524  82   -4.0  98    -4.3  0     0     987.3    NA       0.0000   9999     11650 0     0    
2019/07/20  07:40:01  BASE  1.42296  88   1.60524  82   -4.0  98    -4.4  0     0     987.3    NA       0.0000   9999     6530  11680 0    
2019/07/20  07:41:01  BASE  1.31712  87   1.60524  82   -4.0  97    -4.4  0     0     987.2    NA       0.0000   9999     6460  11580 0    
2019/07/20  07:42:01  BASE  1.27596  85   1.60524  82   -4.0  97    -4.4  0     0     987.2    NA       0.0000   9999     6430  11610 0    
2019/07/20  07:43:01  BASE  1.24068  82   1.60524  82   -4.0  97    -4.4  0     0     987.2    NA       0.0000   9999     6590  11550 0    
2019/07/20  07:44:01  BASE  1.18776  78   1.60524  82   -4.0  97    -4.4  0     0     987.2    NA       0.0000   9999     6560  11520 0    
2019/07/20  07:45:01  BASE  1.25244  76   1.60524  82   -4.0  97    -4.4  0     0     987.2    NA       0.0000   9999     6590  11480 0    
2019/07/20  07:46:01  BASE  1.31712  78   1.60524  82   -4.0  97    -4.4  0     0     987.2    NA       0.0000   9999     6660  11420 0    
2019/07/20  07:47:01  BASE  1.22892  81   1.60524  82   -4.0  97    -4.4  0     0     987.2    NA       0.0000   9999     6760  11520 0    
2019/07/20  07:48:01  BASE  1.1172   80   1.51116  88   -4.0  97    -4.4  0     0     987.2    NA       0.0000   9999     6760  11610 0    
2019/07/20  07:49:01  BASE  1.1466   79   1.45236  91   -4.0  97    -4.4  0     0     987.2    NA       0.0000   9999     6760  11610 0    
2019/07/20  07:50:01  BASE  1.28772  83   1.42296  92   -4.0  97    -4.4  0     0     987.2    NA       0.0000   9999     6660  11610 0    
2019/07/20  07:51:01  BASE  1.16424  85   1.42296  92   -4.1  97    -4.5  0     0     987.2    NA       0.0000   9999     6590  11580 0    
2019/07/20  07:52:01  BASE  0.94668  78   1.42296  92   -4.1  97    -4.5  0     0     987.2    NA       0.0000   9999     6560  11550 0    
2019/07/20  07:53:01  BASE  0.9996   67   1.42296  92   -4.1  97    -4.5  0     0     987.2    NA       0.0000   9999     6590  11580 0    
2019/07/20  07:54:01  BASE  1.09956  61   1.42296  92   -4.2  97    -4.6  0     0     987.2    NA       0.0000   9999     6630  11580 0    
2019/07/20  07:55:01  BASE  1.2054   62   1.54056  64   -4.2  97    -4.6  0     0     987.3    NA       0.0000   9999     6630  11580 0    
2019/07/20  07:56:01  BASE  1.2054   69   1.54056  64   -4.2  96    -4.7  0     0     987.3    NA       0.0000   9999     6690  11710 0    
2019/07/20  07:57:01  BASE  1.21128  78   1.57584  85   -4.2  96    -4.8  0     0     987.3    NA       0.0000   9999     6590  11780 0    
2019/07/20  07:58:01  BASE  1.39356  81   1.63464  73   -4.3  95    -4.9  0     0     987.3    NA       0.0000   9999     6590  11680 0    
2019/07/20  07:59:01  BASE  1.47588  84   1.63464  73   -4.3  94    -5.1  0     0     987.3    NA       0.0000   9999     6560  11810 0    
2019/07/20  08:00:01  BASE  1.48764  84   1.63464  73   -4.3  94    -5.2  0     0     987.3    NA       0.0000   9999     6690  11680 0    
2019/07/20  08:01:01  BASE  1.5582   79   1.66404  75   -4.3  93    -5.3  0     0     987.3    NA       0.0000   9999     6760  11880 0    
2019/07/20  08:02:01  BASE  1.51704  76   1.66404  75   -4.3  92    -5.4  0     0     987.3    NA       0.0000   9999     6920  11780 0    
2019/07/20  08:03:01  BASE  1.51704  72   1.66404  69   -4.3  91    -5.5  0     0     987.2    NA       0.0000   9999     6920  11780 0    
2019/07/20  08:04:01  BASE  1.55232  68   1.69344  68   -4.2  91    -5.5  0     0     987.2    NA       0.0000   9999     6860  11840 0    
2019/07/20  08:05:01  BASE  1.4406   66   1.69344  68   -4.2  90    -5.5  0     0     987.2    NA       0.0000   9999     6860  11780 0    
2019/07/20  08:06:01  BASE  1.47     64   1.69344  68   -4.2  90    -5.5  0     0     987.2    NA       0.0000   9999     6860  11980 0    
2019/07/20  08:07:01  BASE  1.617    58   1.87572  45   -4.2  90    -5.6  0     0     987.2    NA       0.0000   9999     6820  11780 0    
2019/07/20  08:08:01  BASE  1.65228  52   1.87572  45   -4.1  90    -5.5  0     0     987.2    NA       0.0000   9999     6760  11750 0    
2019/07/20  08:09:01  BASE  1.60524  50   1.87572  45   -4.1  90    -5.5  0     0     987.2    NA       0.0000   9999     6760  11750 0    
2019/07/20  08:10:01  BASE  1.5876   47   1.87572  45   -4.1  90    -5.5  0     0     987.1    NA       0.0000   9999     6760  11750 0    
2019/07/20  08:11:01  BASE  1.57584  40   1.87572  45   -4.1  90    -5.5  0     0     987.1    NA       0.0000   9999     6690  11610 0    
2019/07/20  08:12:01  BASE  1.47588  36   1.87572  45   -4.1  91    -5.5  0     0     987.1    NA       0.0000   9999     11750 0     0    
2019/07/20  08:13:01  BASE  1.42296  34   1.87572  45   -4.2  91    -5.4  0     0     987.1    NA       0.0000   9999     11710 0     0    
2019/07/20  08:14:01  BASE  1.51704  32   1.87572  45   -4.2  91    -5.4  0     0     987.1    NA       0.0000   9999     11680 0     0    
2019/07/20  08:15:01  BASE  1.5582   37   1.87572  45   -4.3  92    -5.4  0     0     987.1    NA       0.0000   9999     11650 0     0    
2019/07/20  08:16:01  BASE  1.52292  34   1.87572  45   -4.3  92    -5.4  0     0     987.0    NA       0.0000   9999     11680 0     0    
2019/07/20  08:17:01  BASE  1.56408  26   1.90512  33   -4.3  92    -5.4  0     0     987.0    NA       0.0000   9999     11710 0     0    
2019/07/20  08:18:01  BASE  1.78752  20   2.21088  22   -4.3  92    -5.4  0     0     987.0    NA       0.0000   9999     11550 0     0    
2019/07/20  08:19:00  BASE  2.01096  12   2.29908  354  -4.3  92    -5.4  0     0     987.0    NA       0.0000   9999     11710 0     0    
2019/07/20  08:20:01  BASE  2.0286   3    2.29908  354  -4.3  93    -5.3  0     0     987.1    NA       0.0000   9999     11710 0     0    
2019/07/20  08:21:01  BASE  1.86396  354  2.29908  354  -4.3  93    -5.2  0     0     987.1    NA       0.0000   9999     11610 0     0    
2019/07/20  08:22:01  BASE  1.5876   352  2.29908  354  -4.2  94    -5.0  0     0     987.1    NA       0.0000   9999     11580 0     0    
2019/07/20  08:23:01  BASE  1.35828  351  2.29908  354  -4.2  95    -4.9  0     0     987.1    NA       0.0000   9999     11610 0     0    
2019/07/20  08:24:01  BASE  1.41708  345  2.29908  354  -4.1  95    -4.8  0     0     987.1    NA       0.0000   9999     11550 0     0    
2019/07/20  08:25:01  BASE  1.57584  339  2.29908  354  -4.1  96    -4.7  0     0     987.1    NA       0.0000   9999     11650 0     0    
2019/07/20  08:26:01  BASE  1.6464   336  2.29908  354  -4.1  96    -4.6  0     0     987.1    NA       0.0000   9999     11710 0     0    
2019/07/20  08:27:01  BASE  1.72284  334  2.29908  354  -4.1  96    -4.6  0     0     987.1    NA       0.0000   9999     11520 0     0    
2019/07/20  08:28:01  BASE  1.75812  333  2.29908  354  -4.1  97    -4.6  0     0     987.1    NA       0.0000   9999     11680 0     0    
2019/07/20  08:29:01  BASE  1.72872  333  2.1462   207  -4.2  97    -4.5  0     0     987.1    NA       0.0000   9999     11580 0     0    
2019/07/20  08:30:01  BASE  1.80516  336  2.058    338  -4.2  98    -4.5  0     0     987.1    NA       0.0000   9999     11610 0     0    
2019/07/20  08:31:01  BASE  1.91688  339  2.058    338  -4.2  98    -4.5  0     0     987.1    NA       0.0000   9999     11520 0     0    
2019/07/20  08:32:01  BASE  1.93452  339  2.0874   339  -4.2  98    -4.5  0     0     987.1    NA       0.0000   9999     11550 0     0    
2019/07/20  08:33:01  BASE  2.01096  339  2.0874   341  -4.3  99    -4.4  0     0     987.1    NA       0.0000   9999     11520 0     0    
2019/07/20  08:34:01  BASE  2.02272  341  2.0874   339  -4.2  99    -4.4  0     0     987.1    NA       0.0000   9999     11480 0     0    
2019/07/20  08:35:01  BASE  1.94628  344  2.0874   339  -4.2  99    -4.4  0     0     987.1    NA       0.0000   9999     11450 0     0    
2019/07/20  08:36:01  BASE  1.95804  345  2.0874   345  -4.2  99    -4.4  0     0     987.1    NA       0.0000   9999     11520 0     0    
2019/07/20  08:37:01  BASE  2.0286   345  2.1462   347  -4.2  99    -4.4  0     0     987.1    NA       0.0000   9999     11480 0     0    
2019/07/20  08:38:01  BASE  2.12856  345  2.54016  341  -4.2  99    -4.4  0     0     987.1    NA       0.0000   9999     11520 0     0    
2019/07/20  08:39:01  BASE  2.25204  346  2.54016  341  -4.2  99    -4.4  0     0     987.1    NA       0.0000   9999     11610 0     0    
2019/07/20  08:40:01  BASE  2.3226   349  2.66364  353  -4.2  99    -4.4  0     0     987.1    NA       0.0000   9999     11610 0     0    
2019/07/20  08:41:01  BASE  2.37552  352  2.66364  353  -4.2  99    -4.3  0     0     987.1    NA       0.0000   9999     11520 0     0    
2019/07/20  08:42:00  BASE  2.39904  353  2.66364  353  -4.2  99    -4.3  0     0     987.1    NA       0.0000   9999     11550 0     0    
2019/07/20  08:43:00  BASE  2.39316  352  2.66364  353  -4.2  99    -4.4  0     0     987.1    NA       0.0000   9999     11480 0     0    
2019/07/20  08:44:01  BASE  2.42256  350  2.69304  349  -4.2  98    -4.4  0     0     987.1    NA       0.0000   9999     11520 0     0    
2019/07/20  08:45:00  BASE  2.39316  351  2.69304  349  -4.2  98    -4.4  0     0     987.1    NA       0.0000   9999     11550 0     0    
2019/07/20  08:46:01  BASE  2.33436  352  2.69304  349  -4.1  98    -4.4  0     0     987.1    NA       0.0000   9999     11520 0     0    
2019/07/20  08:47:00  BASE  2.39316  352  2.69304  349  -4.1  98    -4.4  0     0     987.1    NA       0.0000   9999     11520 0     0    
2019/07/20  08:48:00  BASE  2.45196  351  2.72244  348  -4.1  98    -4.4  0     0     987.1    NA       0.0000   9999     11520 0     0    
2019/07/20  08:49:00  BASE  2.43432  348  2.72244  348  -4.1  98    -4.4  0     0     987.1    NA       0.0000   9999     11480 0     0    
2019/07/20  08:50:00  BASE  2.52252  345  2.72244  348  -4.1  98    -4.4  0     0     987.0    NA       0.0000   9999     11450 0     0    
2019/07/20  08:51:00  BASE  2.55192  344  2.72244  348  -4.1  98    -4.3  0     0     987.0    NA       0.0000   9999     11480 0     0    
2019/07/20  08:52:01  BASE  2.50488  343  2.72244  348  -4.1  98    -4.3  0     0     987.0    NA       0.0000   9999     11480 0     0    
2019/07/20  08:53:00  BASE  2.59308  343  2.93412  347  -4.1  98    -4.4  0     0     987.0    NA       0.0000   9999     11450 0     0    
2019/07/20  08:54:00  BASE  2.62836  349  2.93412  349  -4.1  98    -4.4  0     0     987.0    NA       0.0000   9999     11550 0     0    
2019/07/20  08:55:00  BASE  2.52252  351  2.93412  349  -4.1  97    -4.5  0     0     987.0    NA       0.0000   9999     11450 0     0    
2019/07/20  08:56:01  BASE  2.4402   348  2.93412  349  -4.2  97    -4.6  0     0     987.0    NA       0.0000   9999     11450 0     0    
2019/07/20  08:57:00  BASE  2.47548  348  2.96352  354  -4.2  96    -4.7  0     0     987.0    NA       0.0000   9999     11480 0     0    
2019/07/20  08:58:00  BASE  2.6754   349  3.26928  350  -4.2  95    -4.8  0     0     986.9    NA       0.0000   9999     11450 0     0    
2019/07/20  08:59:00  BASE  3.05172  349  3.53976  344  -4.1  94    -5.0  0     0     986.8    NA       0.0000   9999     11580 0     0    
2019/07/20  09:00:00  BASE  3.21048  346  3.53976  344  -4.1  93    -5.1  0     0     986.8    NA       0.0000   9999     11480 0     0    
2019/07/20  09:01:01  BASE  3.15168  344  3.53976  344  -4.1  92    -5.2  0     0     986.8    NA       0.0000   9999     11550 0     0    
2019/07/20  09:02:01  BASE  3.29868  343  3.59856  341  -4.1  91    -5.3  0     0     986.8    NA       0.0000   9999     11550 0     0    
2019/07/20  09:03:01  BASE  3.34572  343  3.59856  341  -4.1  91    -5.3  0     0     986.8    NA       0.0000   9999     11520 0     0    
2019/07/20  09:04:01  BASE  3.41628  342  4.1454   345  -4.0  90    -5.4  0     0     986.8    NA       0.0000   9999     11550 0     0    
2019/07/20  09:05:00  BASE  3.53976  343  4.1454   345  -4.0  90    -5.3  0     0     986.7    NA       0.0000   9999     11520 0     0    
2019/07/20  09:06:01  BASE  3.60444  347  4.1454   345  -3.9  90    -5.3  0     0     986.7    NA       0.0000   9999     11520 0     0    
2019/07/20  09:07:00  BASE  3.55152  347  4.1454   345  -3.9  91    -5.2  0     0     986.7    NA       0.0000   9999     11550 0     0    
2019/07/20  09:08:00  BASE  3.6162   345  4.2042   343  -3.8  91    -5.1  0     0     986.7    NA       0.0000   9999     11520 0     0    
2019/07/20  09:09:00  BASE  3.82788  346  4.263    349  -3.8  91    -5.1  0     0     986.7    NA       0.0000   9999     11610 0     0    
2019/07/20  09:10:00  BASE  3.9396   349  4.29828  360  -3.8  91    -5.0  0     0     986.7    NA       0.0000   9999     11610 0     0    
2019/07/20  09:11:00  BASE  4.06896  349  4.35708  360  -3.8  91    -5.0  0     0     986.7    NA       0.0000   9999     11550 0     0    
2019/07/20  09:12:00  BASE  4.22772  350  4.65696  352  -3.8  92    -5.0  0     0     986.7    NA       0.0000   9999     11610 0     0    
2019/07/20  09:13:00  BASE  4.12776  353  4.65696  352  -3.8  92    -5.0  0     0     986.7    NA       0.0000   9999     11680 0     0    
2019/07/20  09:14:00  BASE  3.969    358  4.65696  352  -3.8  92    -4.9  0     0     986.7    NA       0.0000   9999     11710 0     0    
2019/07/20  09:15:00  BASE  4.18068  1    4.65696  352  -3.8  92    -4.9  0     0     986.7    NA       0.0000   9999     11710 0     0    
2019/07/20  09:16:00  BASE  4.3218   360  4.65696  360  -3.8  92    -4.9  0     0     986.7    NA       0.0000   9999     11750 0     0    
2019/07/20  09:17:00  BASE  4.2336   357  4.65696  360  -3.9  92    -4.9  0     0     986.7    NA       0.0000   9999     11750 0     0    
2019/07/20  09:18:01  BASE  4.01016  355  4.65696  360  -3.9  92    -4.9  0     0     986.7    NA       0.0000   9999     11780 0     0    
2019/07/20  09:19:00  BASE  3.79848  356  4.65696  360  -3.9  93    -4.9  0     0     986.7    NA       0.0000   9999     11810 0     0    
2019/07/20  09:20:00  BASE  3.65736  357  4.65696  360  -3.9  93    -4.9  0     0     986.7    NA       0.0000   9999     11880 0     0    
2019/07/20  09:21:00  BASE  3.5868   354  4.65696  360  -3.9  93    -4.8  0     0     986.7    NA       0.0000   9999     11910 0     0    
2019/07/20  09:22:00  BASE  3.44568  350  4.65696  360  -3.9  93    -4.9  0     0     986.7    NA       0.0000   9999     11910 0     0    
2019/07/20  09:23:00  BASE  3.30456  352  4.65696  360  -3.9  93    -4.9  0     0     986.7    NA       0.0000   9999     11910 0     0    
2019/07/20  09:24:00  BASE  3.35748  354  4.65696  360  -4.0  93    -4.9  0     0     986.7    NA       0.0000   9999     11940 0     0    
2019/07/20  09:25:00  BASE  3.4692   357  4.65696  360  -4.0  94    -4.9  0     0     986.7    NA       0.0000   9999     11940 0     0    
2019/07/20  09:26:00  BASE  3.57504  0    4.59816  360  -4.0  94    -4.9  0     0     986.6    NA       0.0000   9999     11940 0     0    
2019/07/20  09:27:00  BASE  3.7044   2    4.29828  35   -4.0  94    -4.8  0     0     986.6    NA       0.0000   9999     11940 0     0    
2019/07/20  09:28:00  BASE  3.85728  2    4.2336   1    -4.0  94    -4.9  0     0     986.6    NA       0.0000   9999     11980 0     0    
2019/07/20  09:29:00  BASE  4.05132  3    4.44528  1    -4.1  94    -4.9  0     0     986.6    NA       0.0000   9999     11940 0     0    
2019/07/20  09:30:00  BASE  4.25124  3    4.59816  360  -4.1  94    -4.8  0     0     986.6    NA       0.0000   9999     11980 0     0    
2019/07/20  09:31:00  BASE  4.27476  4    4.72164  5    -4.1  95    -4.8  0     0     986.6    NA       0.0000   9999     11980 0     0    
2019/07/20  09:32:00  BASE  4.39236  5    4.75104  3    -4.1  95    -4.7  0     0     986.6    NA       0.0000   9999     11940 0     0    
2019/07/20  09:33:00  BASE  4.55112  4    4.86864  2    -4.0  96    -4.6  0     0     986.6    NA       0.0000   9999     11880 0     0    
2019/07/20  09:34:00  BASE  4.57464  1    4.86864  2    -4.0  96    -4.6  0     0     986.6    NA       0.0000   9999     11910 0     0    
2019/07/20  09:35:00  BASE  4.59816  3    4.96272  353  -4.0  96    -4.5  0     0     986.6    NA       0.0000   9999     11910 0     0    
2019/07/20  09:36:01  BASE  4.72752  358  5.08032  242  -4.0  96    -4.5  0     0     986.6    NA       0.0000   9999     11910 0     0    
2019/07/20  09:37:00  BASE  4.80984  353  5.2038   2    -4.0  97    -4.4  0     0     986.6    NA       0.0000   9999     11940 0     0    
2019/07/20  09:38:01  BASE  4.89216  356  5.2626   1    -4.0  97    -4.4  0     0     986.6    NA       0.0000   9999     0     0     0    
2019/07/20  09:39:00  BASE  5.04504  356  5.41548  337  -4.0  97    -4.4  0     0     986.6    NA       0.0000   9999     0     0     0    
2019/07/20  09:40:00  BASE  5.18616  359  5.47428  354  -4.0  97    -4.3  0     0     986.6    NA       0.0000   9999     11910 0     0    
2019/07/20  09:41:00  BASE  5.30376  359  5.53308  351  -4.0  98    -4.3  0     0     986.6    NA       0.0000   9999     0     0     0    
2019/07/20  09:42:01  BASE  5.22144  1    5.53308  351  -4.0  98    -4.3  0     0     986.6    NA       0.0000   9999     0     0     0    
2019/07/20  09:43:00  BASE  5.04504  5    5.53308  351  -4.0  98    -4.3  0     0     986.6    NA       0.0000   9999     0     0     0    
2019/07/20  09:44:01  BASE  4.85688  5    5.53308  351  -4.0  98    -4.3  0     0     986.6    NA       0.0000   9999     0     0     0    
2019/07/20  09:45:00  BASE  4.69812  5    5.53308  351  -4.1  98    -4.3  0     0     986.6    NA       0.0000   9999     0     0     0    
2019/07/20  09:46:00  BASE  4.7628   9    5.53308  351  -4.1  98    -4.3  0     0     986.6    NA       0.0000   9999     0     0     0    
2019/07/20  09:47:00  BASE  4.851    13   5.53308  351  -4.1  98    -4.4  0     0     986.6    NA       0.0000   9999     0     0     0    
2019/07/20  09:48:00  BASE  5.04504  15   5.53308  351  -4.1  98    -4.4  0     0     986.6    NA       0.0000   9999     0     0     0    
2019/07/20  09:49:00  BASE  5.35668  14   5.99172  17   -4.1  98    -4.4  0     0     986.6    NA       0.0000   9999     0     0     0    
2019/07/20  09:50:00  BASE  5.43312  12   5.99172  17   -4.1  99    -4.3  0     0     986.6    NA       0.0000   9999     0     0     0    
2019/07/20  09:51:00  BASE  5.48604  10   5.99172  17   -4.2  99    -4.3  0     0     986.6    NA       0.0000   9999     0     0     0    
2019/07/20  09:52:00  BASE  5.45076  8    5.99172  17   -4.2  99    -4.3  0     0     986.5    NA       0.0000   9999     0     0     0    
2019/07/20  09:53:00  BASE  5.15088  9    5.99172  17   -4.2  99    -4.3  0     0     986.5    NA       0.0000   9999     0     0     0    
2019/07/20  09:54:00  BASE  5.16264  11   5.99172  17   -4.2  99    -4.3  0     0     986.5    NA       0.0000   9999     0     0     0    
2019/07/20  09:55:00  BASE  5.24496  12   5.99172  17   -4.1  99    -4.2  0     0     986.5    NA       0.0000   9999     0     0     0    
2019/07/20  09:56:00  BASE  5.10384  14   5.99172  17   -4.1  100   -4.2  0     0     986.5    NA       0.0000   9999     0     0     0    
2019/07/20  09:57:00  BASE  5.0862   18   5.99172  17   -4.1  100   -4.1  0     0     986.5    NA       0.0000   9999     0     0     0    
2019/07/20  09:58:00  BASE  4.851    19   5.99172  17   -4.1  100   -4.1  0     0     986.5    NA       0.0000   9999     0     0     0    
2019/07/20  09:59:00  BASE  4.49232  23   5.92704  360  -4.2  100   -4.2  0     0     986.5    NA       0.0000   9999     0     0     0    
2019/07/20  10:00:00  BASE  4.4394   23   5.92704  360  -4.3  100   -4.3  0     0     986.5    NA       0.0000   9999     0     0     0    
2019/07/20  10:01:00  BASE  4.47468  19   5.74476  12   -4.4  100   -4.4  0     0     986.5    NA       0.0000   9999     12240 0     0    
2019/07/20  10:02:00  BASE  4.4394   21   5.74476  12   -4.5  100   -4.5  0     0     986.5    NA       0.0000   9999     12240 0     0    
2019/07/20  10:03:00  BASE  4.35708  23   5.74476  12   -4.6  100   -4.6  0     0     986.5    NA       0.0000   9999     12210 0     0    
2019/07/20  10:04:00  BASE  4.30416  23   5.56836  22   -4.7  100   -4.7  0     0     986.5    NA       0.0000   9999     12270 0     0    
2019/07/20  10:05:00  BASE  4.27476  20   5.56836  22   -4.7  100   -4.7  0     0     986.5    NA       0.0000   9999     12210 0     0    
2019/07/20  10:06:00  BASE  4.23948  17   5.56836  22   -4.7  100   -4.7  0     0     986.5    NA       0.0000   9999     12140 0     0    
2019/07/20  10:07:01  BASE  4.32768  18   4.99212  20   -4.7  100   -4.7  0     0     986.5    NA       0.0000   9999     12170 0     0    
2019/07/20  10:08:01  BASE  4.68048  17   5.292    15   -4.7  100   -4.7  0     0     986.4    NA       0.0000   9999     12140 0     0    
2019/07/20  10:09:00  BASE  4.84512  18   5.292    15   -4.6  100   -4.6  0     0     986.5    NA       0.0000   9999     12110 0     0    
2019/07/20  10:10:00  BASE  4.62168  21   5.3214   21   -4.6  100   -4.6  0     0     986.5    NA       0.0000   9999     12110 0     0    
2019/07/20  10:11:00  BASE  4.6746   22   5.3214   21   -4.7  100   -4.7  0     0     986.4    NA       0.0000   9999     12110 0     0    
2019/07/20  10:12:01  BASE  4.7628   22   5.3214   21   -4.7  100   -4.7  0     0     986.4    NA       0.0000   9999     12140 0     0    
2019/07/20  10:13:00  BASE  4.90392  22   5.3214   18   -4.7  100   -4.7  0     0     986.3    NA       0.0000   9999     12140 0     0    
2019/07/20  10:14:01  BASE  4.98624  23   5.3214   18   -4.8  100   -4.8  0     0     986.3    NA       0.0000   9999     12140 0     0    
2019/07/20  10:15:01  BASE  5.0274   20   5.95644  1    -4.8  100   -4.8  0     0     986.3    NA       0.0000   9999     1150  12140 0    
2019/07/20  10:16:01  BASE  5.07444  18   5.95644  1    -4.8  100   -4.8  0     0     986.3    NA       0.0000   9999     1180  12210 0    
2019/07/20  10:17:00  BASE  4.66284  21   5.95644  1    -4.8  100   -4.8  0     0     986.3    NA       0.0000   9999     1150  0     0    
2019/07/20  10:18:01  BASE  4.48056  20   5.95644  1    -4.8  100   -4.8  0     0     986.3    NA       0.0000   9999     1120  12210 0    
2019/07/20  10:19:00  BASE  4.60404  16   5.95644  1    -4.7  100   -4.7  0     0     986.3    NA       0.0000   9999     1120  12210 0    
2019/07/20  10:20:00  BASE  4.704    13   5.95644  1    -4.7  100   -4.7  0     0     986.3    NA       0.0000   9999     1120  0     0    
2019/07/20  10:21:00  BASE  4.66284  14   5.95644  1    -4.6  100   -4.6  0     0     986.3    NA       0.0000   9999     1080  0     0    
2019/07/20  10:22:00  BASE  4.54524  16   5.95644  1    -4.5  100   -4.5  0     0     986.3    NA       0.0000   9999     1020  0     0    
2019/07/20  10:23:00  BASE  4.49232  15   5.95644  1    -4.5  100   -4.5  0     0     986.3    NA       0.0000   9999     1050  0     0    
2019/07/20  10:24:00  BASE  4.63932  15   5.95644  1    -4.4  100   -4.4  0     0     986.3    NA       0.0000   9999     1080  0     0    
2019/07/20  10:25:00  BASE  4.58052  17   5.41548  19   -4.3  100   -4.3  0     0     986.3    NA       0.0000   9999     1080  0     0    
2019/07/20  10:26:00  BASE  4.36884  18   5.2038   11   -4.3  100   -4.3  0     0     986.3    NA       0.0000   9999     1050  0     0    
2019/07/20  10:27:00  BASE  4.46292  17   5.2038   11   -4.3  100   -4.3  0     0     986.3    NA       0.0000   9999     1080  0     0    
2019/07/20  10:28:00  BASE  4.66872  16   5.2038   11   -4.2  100   -4.2  0     0     986.3    NA       0.0000   9999     1050  0     0    
2019/07/20  10:29:00  BASE  4.75692  18   5.2038   11   -4.2  100   -4.2  0     0     986.3    NA       0.0000   9999     1050  0     0    
2019/07/20  10:30:00  BASE  4.53348  18   5.145    7    -4.1  100   -4.1  0     0     986.3    NA       0.0000   9999     1080  0     0    
2019/07/20  10:31:00  BASE  4.12776  18   5.145    7    -4.1  100   -4.1  0     0     986.3    NA       0.0000   9999     1080  0     0    
2019/07/20  10:32:00  BASE  3.94548  22   5.145    7    -4.1  100   -4.1  0     0     986.3    NA       0.0000   9999     1080  12210 0    
2019/07/20  10:33:00  BASE  4.22184  21   5.145    7    -4.2  100   -4.2  0     0     986.3    NA       0.0000   9999     1080  0     0    
2019/07/20  10:34:00  BASE  4.21008  19   5.145    7    -4.2  100   -4.2  0     0     986.3    NA       0.0000   9999     1080  0     0    
2019/07/20  10:35:00  BASE  3.83964  18   5.145    7    -4.2  100   -4.2  0     0     986.3    NA       0.0000   9999     1120  0     0    
2019/07/20  10:36:00  BASE  3.77496  13   5.145    7    -4.1  100   -4.1  0     0     986.3    NA       0.0000   9999     1120  0     0    
2019/07/20  10:37:01  BASE  3.75144  10   5.145    7    -4.1  100   -4.1  0     0     986.3    NA       0.0000   9999     1080  0     0    
2019/07/20  10:38:01  BASE  3.61032  13   5.145    7    -4.0  100   -4.0  0     0     986.3    NA       0.0000   9999     1080  0     0    
2019/07/20  10:39:00  BASE  3.7632   14   5.145    7    -4.0  100   -4.0  0     0     986.2    NA       0.0000   9999     1080  0     0    
2019/07/20  10:40:00  BASE  3.89844  15   4.75104  17   -3.9  100   -3.9  0     0     986.2    NA       0.0000   9999     1080  12240 0    
2019/07/20  10:41:00  BASE  3.85728  19   4.75104  17   -3.9  100   -3.9  0     0     986.2    NA       0.0000   9999     1080  12170 0    
2019/07/20  10:42:00  BASE  3.83376  18   4.75104  17   -3.9  100   -3.9  0     0     986.2    NA       0.0000   9999     1050  0     0    
2019/07/20  10:43:00  BASE  3.65148  16   4.38648  22   -3.9  100   -3.9  0     0     986.2    NA       0.0000   9999     1020  0     0    
2019/07/20  10:44:01  BASE  3.57504  17   4.2042   12   -4.0  100   -4.0  0     0     986.2    NA       0.0000   9999     1120  0     0    
2019/07/20  10:45:00  BASE  3.33396  19   4.2042   12   -4.0  100   -4.0  0     0     986.2    NA       0.0000   9999     1080  0     0    
2019/07/20  10:46:00  BASE  2.97528  21   4.2042   12   -4.1  100   -4.1  0     0     986.2    NA       0.0000   9999     1050  0     0    
2019/07/20  10:47:00  BASE  2.82828  21   4.2042   12   -4.1  100   -4.1  0     0     986.2    NA       0.0000   9999     1050  0     0    
2019/07/20  10:48:01  BASE  2.84592  21   4.2042   12   -4.1  100   -4.1  0     0     986.2    NA       0.0000   9999     1020  0     0    
2019/07/20  10:49:00  BASE  3.1458   17   4.1454   17   -4.1  100   -4.1  0     0     986.2    NA       0.0000   9999     1050  0     0    
2019/07/20  10:50:00  BASE  3.21636  14   4.1454   17   -4.1  100   -4.1  0     0     986.2    NA       0.0000   9999     1050  0     0    
2019/07/20  10:51:00  BASE  3.36924  15   4.29828  10   -4.0  100   -4.0  0     0     986.2    NA       0.0000   9999     1050  0     0    
2019/07/20  10:52:00  BASE  3.381    16   4.29828  10   -4.0  100   -4.0  0     0     986.2    NA       0.0000   9999     1080  0     0    
2019/07/20  10:53:00  BASE  3.1458   14   4.29828  10   -4.0  100   -4.0  0     0     986.2    NA       0.0000   9999     1080  0     0    
2019/07/20  10:54:00  BASE  3.21048  13   4.29828  10   -3.9  100   -3.9  0     0     986.2    NA       0.0000   9999     1050  0     0    
2019/07/20  10:55:01  BASE  3.2634   17   4.29828  10   -3.9  100   -3.9  0     0     986.2    NA       0.0000   9999     1050  0     0    
2019/07/20  10:56:00  BASE  3.42804  21   4.29828  10   -3.8  100   -3.8  0     0     986.2    NA       0.0000   9999     1050  0     0    
2019/07/20  10:57:00  BASE  3.40452  23   4.29828  10   -3.8  100   -3.8  0     0     986.2    NA       0.0000   9999     1050  0     0    
2019/07/20  10:58:00  BASE  3.19872  24   4.29828  10   -3.8  100   -3.8  0     0     986.2    NA       0.0000   9999     1020  0     0    
2019/07/20  10:59:00  BASE  3.12816  25   4.29828  10   -3.8  100   -3.8  0     0     986.2    NA       0.0000   9999     1020  0     0    
2019/07/20  11:00:00  BASE  3.00468  26   4.29828  10   -3.9  100   -3.9  0     0     986.1    NA       0.0000   9999     1050  0     0    
2019/07/20  11:01:00  BASE  2.84004  24   3.81024  26   -3.9  100   -3.9  0     0     986.1    NA       0.0000   9999     1050  0     0    
2019/07/20  11:02:00  BASE  2.6754   19   3.81024  26   -3.9  100   -3.9  0     0     986.0    NA       0.0000   9999     1020  0     0    
2019/07/20  11:03:00  BASE  2.49312  18   3.81024  26   -3.9  100   -3.9  0     0     986.0    NA       0.0000   9999     1020  0     0    
2019/07/20  11:04:00  BASE  2.4402   22   3.81024  26   -3.9  100   -3.9  0     0     986.0    NA       0.0000   9999     1020  0     0    
2019/07/20  11:05:00  BASE  2.59896  22   3.81024  26   -3.9  100   -3.9  0     0     986.0    NA       0.0000   9999     980   0     0    
2019/07/20  11:06:00  BASE  2.59896  19   3.44568  22   -3.9  100   -3.9  0     0     986.0    NA       0.0000   9999     1020  0     0    
2019/07/20  11:07:00  BASE  2.57544  18   3.44568  22   -3.9  100   -3.9  0     0     986.1    NA       0.0000   9999     1020  0     0    
2019/07/20  11:08:00  BASE  2.63424  18   3.41628  19   -3.9  100   -3.9  0     0     986.1    NA       0.0000   9999     1050  0     0    
2019/07/20  11:09:00  BASE  2.48724  17   3.087    28   -3.9  100   -3.9  0     0     986.1    NA       0.0000   9999     1020  0     0    
2019/07/20  11:10:00  BASE  2.25792  19   2.96352  17   -3.9  100   -3.9  0     0     986.1    NA       0.0000   9999     1050  0     0    
2019/07/20  11:11:00  BASE  2.07564  21   2.96352  17   -3.9  100   -3.9  0     0     986.1    NA       0.0000   9999     1020  0     0    
2019/07/20  11:12:00  BASE  2.1462   20   2.96352  17   -3.9  100   -3.9  0     0     986.1    NA       0.0000   9999     980   0     0    
2019/07/20  11:13:00  BASE  2.2344   0    2.84592  21   -3.9  100   -3.9  0     0     986.1    NA       0.0000   9999     1020  0     0    
2019/07/20  11:14:00  BASE  2.08152  348  2.84592  21   -3.8  100   -3.8  0     0     986.0    NA       0.0000   9999     920   0     0    
2019/07/20  11:15:00  BASE  1.99332  349  2.84592  21   -3.8  100   -3.8  0     0     986.0    NA       0.0000   9999     850   0     0    
2019/07/20  11:16:00  BASE  1.91688  356  2.84592  21   -3.8  100   -3.8  0     0     986.0    NA       0.0000   9999     790   0     0    
2019/07/20  11:17:00  BASE  1.72872  11   2.81064  11   -3.7  100   -3.7  0     0     986.0    NA       0.0000   9999     750   0     0    
2019/07/20  11:18:00  BASE  1.69932  20   2.59896  17   -3.7  100   -3.7  0     0     986.0    NA       0.0000   9999     850   0     0    
2019/07/20  11:19:00  BASE  1.76988  19   2.51076  288  -3.8  100   -3.8  0     0     986.0    NA       0.0000   9999     890   0     0    
2019/07/20  11:20:00  BASE  1.66992  12   2.51076  288  -3.8  100   -3.8  0     0     986.1    NA       0.0000   9999     890   0     0    
2019/07/20  11:21:00  BASE  1.45824  12   2.51076  288  -3.9  100   -3.9  0     0     986.2    NA       0.0000   9999     920   0     0    
2019/07/20  11:22:00  BASE  1.34652  15   2.42256  354  -3.9  100   -3.9  0     0     986.2    NA       0.0000   9999     920   0     0    
2019/07/20  11:23:00  BASE  1.22304  9    2.21088  349  -3.9  100   -3.9  0     0     986.2    NA       0.0000   9999     850   0     0    
2019/07/20  11:24:00  BASE  1.27008  349  2.21088  349  -3.9  100   -3.9  0     0     986.2    NA       0.0000   9999     920   0     0    
2019/07/20  11:25:00  BASE  1.22892  331  2.0286   360  -3.9  100   -3.9  0     0     986.2    NA       0.0000   9999     890   0     0    
2019/07/20  11:26:01  BASE  1.11132  327  1.84632  11   -3.8  100   -3.8  0     0     986.2    NA       0.0000   9999     920   0     0    
2019/07/20  11:27:00  BASE  1.19364  341  1.84632  11   -3.8  100   -3.8  0     0     986.2    NA       0.0000   9999     950   0     0    
2019/07/20  11:28:01  BASE  1.5582   353  2.21088  341  -3.8  100   -3.8  0     0     986.2    NA       0.0000   9999     920   0     0    
2019/07/20  11:29:00  BASE  1.80516  346  2.21088  341  -3.8  100   -3.8  0     0     986.1    NA       0.0000   9999     890   0     0    
2019/07/20  11:30:00  BASE  1.5876   346  2.21088  341  -3.8  100   -3.8  0     0     986.2    NA       0.0000   9999     850   0     0    
2019/07/20  11:31:00  BASE  1.42296  353  2.21088  341  -3.7  100   -3.7  0     0     986.2    NA       0.0000   9999     920   0     0    
2019/07/20  11:32:01  BASE  1.37004  354  2.21088  341  -3.7  100   -3.7  0     0     986.2    NA       0.0000   9999     890   0     0    
2019/07/20  11:33:00  BASE  1.50528  343  2.21088  341  -3.7  100   -3.7  0     0     986.2    NA       0.0000   9999     850   0     0    
2019/07/20  11:34:00  BASE  1.74048  339  2.21088  341  -3.7  100   -3.7  0     0     986.2    NA       0.0000   9999     920   0     0    
2019/07/20  11:35:00  BASE  1.92276  340  2.24028  327  -3.7  100   -3.7  0     0     986.2    NA       0.0000   9999     950   0     0    
2019/07/20  11:36:00  BASE  1.77576  337  2.24028  327  -3.7  100   -3.7  0     0     986.3    NA       0.0000   9999     920   0     0    
2019/07/20  11:37:00  BASE  1.32888  332  2.24028  327  -3.7  100   -3.7  0     0     986.3    NA       0.0000   9999     950   0     0    
2019/07/20  11:38:00  BASE  1.09956  322  2.24028  327  -3.7  100   -3.7  0     0     986.3    NA       0.0000   9999     890   0     0    
2019/07/20  11:39:00  BASE  1.19952  322  2.24028  327  -3.7  100   -3.7  0     0     986.3    NA       0.0000   9999     920   0     0    
2019/07/20  11:40:00  BASE  1.44648  329  2.24028  327  -3.7  100   -3.7  0     0     986.3    NA       0.0000   9999     890   0     0    
2019/07/20  11:41:00  BASE  1.59936  337  2.24028  327  -3.6  100   -3.6  0     0     986.3    NA       0.0000   9999     890   0     0    
2019/07/20  11:42:00  BASE  1.54644  345  2.24028  327  -3.6  100   -3.6  0     0     986.3    NA       0.0000   9999     890   0     0    
2019/07/20  11:43:00  BASE  1.63464  333  2.24028  327  -3.6  100   -3.6  0     0     986.3    NA       0.0000   9999     920   0     0    
2019/07/20  11:44:00  BASE  1.87572  328  2.24028  327  -3.6  100   -3.6  0     0     986.3    NA       0.0000   9999     920   0     0    
2019/07/20  11:45:00  BASE  1.95216  340  2.0874   337  -3.6  100   -3.6  0     0     986.3    NA       0.0000   9999     950   0     0    
2019/07/20  11:46:00  BASE  1.93452  346  2.0874   337  -3.6  100   -3.6  0     0     986.3    NA       0.0000   9999     950   0     0    
2019/07/20  11:47:00  BASE  2.0286   345  2.81064  322  -3.6  100   -3.6  0     0     986.3    NA       0.0000   9999     980   0     0    
2019/07/20  11:48:00  BASE  2.06976  337  2.81064  322  -3.6  100   -3.6  0     0     986.3    NA       0.0000   9999     1050  0     0    
2019/07/20  11:49:00  BASE  2.01096  332  2.81064  322  -3.6  100   -3.6  0     0     986.3    NA       0.0000   9999     1020  0     0    
2019/07/20  11:50:00  BASE  1.89924  333  2.81064  322  -3.7  100   -3.7  0     0     986.3    NA       0.0000   9999     980   0     0    
2019/07/20  11:51:00  BASE  1.71108  336  2.81064  322  -3.7  100   -3.7  0     0     986.3    NA       0.0000   9999     950   0     0    
2019/07/20  11:52:00  BASE  1.64052  339  2.81064  322  -3.7  100   -3.7  0     0     986.3    NA       0.0000   9999     890   0     0    
2019/07/20  11:53:00  BASE  1.69344  339  2.81064  322  -3.7  100   -3.7  0     0     986.3    NA       0.0000   9999     950   0     0    
2019/07/20  11:54:00  BASE  1.77576  339  2.81064  322  -3.7  100   -3.7  0     0     986.3    NA       0.0000   9999     950   0     0    
2019/07/20  11:55:00  BASE  1.7052   341  2.81064  322  -3.7  100   -3.7  0     0     986.3    NA       0.0000   9999     890   0     0    
2019/07/20  11:56:00  BASE  1.47588  336  2.81064  322  -3.7  100   -3.7  0     0     986.3    NA       0.0000   9999     920   0     0    
2019/07/20  11:57:00  BASE  1.41708  326  2.42256  329  -3.7  100   -3.7  0     0     986.3    NA       0.0000   9999     920   0     0    
2019/07/20  11:58:00  BASE  1.39356  327  2.1168   329  -3.7  100   -3.7  0     0     986.3    NA       0.0000   9999     950   0     0    
2019/07/20  11:59:00  BASE  1.54644  336  2.21088  347  -3.7  100   -3.7  0     0     986.3    NA       0.0000   9999     950   0     0    
2019/07/20  12:00:00  BASE  2.01684  343  2.45196  344  -3.7  100   -3.7  0     0     986.3    NA       0.0000   9999     980   0     0    
2019/07/20  12:01:00  BASE  2.1756   348  2.45196  344  -3.7  100   -3.7  0     0     986.3    NA       0.0000   9999     950   0     0    
2019/07/20  12:02:01  BASE  2.1168   347  2.45196  344  -3.6  100   -3.6  0     0     986.3    NA       0.0000   9999     890   0     0    
2019/07/20  12:03:00  BASE  2.16384  342  2.45196  344  -3.6  100   -3.6  0     0     986.3    NA       0.0000   9999     980   0     0    
2019/07/20  12:04:00  BASE  2.28732  340  2.75184  344  -3.6  100   -3.6  0     0     986.3    NA       0.0000   9999     980   0     0    
2019/07/20  12:05:00  BASE  2.19324  341  2.75184  344  -3.6  100   -3.6  0     0     986.3    NA       0.0000   9999     950   0     0    
2019/07/20  12:06:00  BASE  2.02272  342  2.75184  344  -3.6  100   -3.6  0     0     986.3    NA       0.0000   9999     980   0     0    
2019/07/20  12:07:00  BASE  2.14032  341  2.75184  344  -3.6  100   -3.6  0     0     986.3    NA       0.0000   9999     1020  0     0    
2019/07/20  12:08:00  BASE  2.205    337  2.75184  344  -3.6  100   -3.6  0     0     986.3    NA       0.0000   9999     950   0     0    
2019/07/20  12:09:00  BASE  2.15208  337  2.75184  344  -3.6  100   -3.6  0     0     986.3    NA       0.0000   9999     950   0     0    
2019/07/20  12:10:00  BASE  2.09916  339  2.75184  344  -3.6  100   -3.6  0     0     986.3    NA       0.0000   9999     890   0     0    
2019/07/20  12:11:00  BASE  2.08152  341  2.75184  344  -3.6  100   -3.6  0     0     986.3    NA       0.0000   9999     890   0     0    
2019/07/20  12:12:00  BASE  2.1462   330  2.81064  317  -3.6  100   -3.6  0     0     986.3    NA       0.0000   9999     920   0     0    
2019/07/20  12:13:00  BASE  2.06388  324  2.81064  317  -3.6  100   -3.6  0     0     986.3    NA       0.0000   9999     890   0     0    
2019/07/20  12:14:00  BASE  2.14032  334  2.81064  317  -3.6  100   -3.6  0     0     986.3    NA       0.0000   9999     820   0     0    
2019/07/20  12:15:00  BASE  2.2344   333  2.81064  317  -3.6  100   -3.6  0     0     986.3    NA       0.0000   9999     820   0     0    
2019/07/20  12:16:00  BASE  2.19912  325  2.81064  317  -3.6  100   -3.6  0     0     986.3    NA       0.0000   9999     890   0     0    
2019/07/20  12:17:00  BASE  2.01684  327  2.81064  317  -3.6  100   -3.6  0     0     986.3    NA       0.0000   9999     850   0     0    
2019/07/20  12:18:00  BASE  1.95216  328  2.81064  317  -3.6  100   -3.6  0     0     986.3    NA       0.0000   9999     890   0     0    
2019/07/20  12:19:00  BASE  2.03448  322  2.81064  317  -3.6  100   -3.6  0     0     986.3    NA       0.0000   9999     950   0     0    
2019/07/20  12:20:00  BASE  1.77576  327  2.81064  317  -3.6  100   -3.6  0     0     986.3    NA       0.0000   9999     950   0     0    
2019/07/20  12:21:00  BASE  1.61112  340  2.81064  317  -3.6  100   -3.6  0     0     986.3    NA       0.0000   9999     950   0     0    
2019/07/20  12:22:00  BASE  1.68756  344  2.72244  339  -3.6  100   -3.6  0     0     986.3    NA       0.0000   9999     920   0     0    
2019/07/20  12:23:00  BASE  1.45824  338  2.66364  349  -3.6  100   -3.6  0     0     986.3    NA       0.0000   9999     980   0     0    
2019/07/20  12:24:00  BASE  1.2936   333  2.56956  327  -3.6  100   -3.6  0     0     986.3    NA       0.0000   9999     980   0     0    
2019/07/20  12:25:00  BASE  1.33476  326  2.56956  327  -3.6  100   -3.6  0     0     986.3    NA       0.0000   9999     950   0     0    
2019/07/20  12:26:00  BASE  1.05252  324  2.35788  326  -3.6  100   -3.6  0     0     986.2    NA       0.0000   9999     890   0     0    
2019/07/20  12:27:00  BASE  1.00548  325  2.35788  326  -3.6  100   -3.6  0     0     986.2    NA       0.0000   9999     890   0     0    
2019/07/20  12:28:00  BASE  1.24068  313  2.0286   336  -3.6  100   -3.6  0     0     986.2    NA       0.0000   9999     920   0     0    
2019/07/20  12:29:00  BASE  1.24068  310  2.0286   336  -3.6  100   -3.6  0     0     986.2    NA       0.0000   9999     890   0     0    
2019/07/20  12:30:00  BASE  1.13484  318  1.9992   339  -3.6  100   -3.6  0     0     986.2    NA       0.0000   9999     920   0     0    
2019/07/20  12:31:00  BASE  1.28772  321  1.9992   339  -3.6  100   -3.6  0     0     986.2    NA       0.0000   9999     890   0     0    
2019/07/20  12:32:00  BASE  1.28184  322  1.63464  333  -3.6  100   -3.6  0     0     986.2    NA       0.0000   9999     950   0     0    
2019/07/20  12:33:00  BASE  1.00548  326  1.63464  333  -3.6  100   -3.6  0     0     986.2    NA       0.0000   9999     920   0     0    
2019/07/20  12:34:00  BASE  0.9996   329  1.63464  333  -3.7  100   -3.7  0     0     986.2    NA       0.0000   9999     950   0     0    
2019/07/20  12:35:00  BASE  1.40532  316  2.0286   308  -3.7  100   -3.7  0     0     986.2    NA       0.0000   9999     980   0     0    
2019/07/20  12:36:00  BASE  1.9404   295  2.63424  293  -3.7  100   -3.7  0     0     986.2    NA       0.0000   9999     980   0     0    
2019/07/20  12:37:00  BASE  2.01684  269  2.63424  293  -3.6  100   -3.6  0     0     986.2    NA       0.0000   9999     950   0     0    
2019/07/20  12:38:00  BASE  1.43472  257  2.63424  293  -3.6  100   -3.6  0     0     986.2    NA       0.0000   9999     980   0     0    
2019/07/20  12:39:00  BASE  0.96432  276  2.63424  293  -3.6  100   -3.6  0     0     986.2    NA       0.0000   9999     950   0     0    
2019/07/20  12:40:00  BASE  1.24656  296  2.63424  293  -3.7  100   -3.7  0     0     986.2    NA       0.0000   9999     890   0     0    
2019/07/20  12:41:00  BASE  1.45824  294  2.63424  293  -3.7  100   -3.7  0     0     986.2    NA       0.0000   9999     890   0     0    
2019/07/20  12:42:00  BASE  0.77028  289  2.63424  293  -3.7  100   -3.7  0     0     986.2    NA       0.0000   9999     920   0     0    
2019/07/20  12:43:00  BASE  0.48216  293  2.63424  293  -3.7  100   -3.7  0     0     986.2    NA       0.0000   9999     980   0     0    
2019/07/20  12:44:00  BASE  0.37632  298  2.63424  293  -3.7  100   -3.7  0     0     986.2    NA       0.0000   9999     980   0     0    
2019/07/20  12:45:00  BASE  0        308  2.63424  293  -3.7  100   -3.7  0     0     986.1    NA       0.0000   9999     980   0     0    
2019/07/20  12:46:00  BASE  0        314  2.29908  249  -3.7  100   -3.7  0     0     986.0    NA       0.0000   9999     980   0     0    
2019/07/20  12:47:00  BASE  0.36456  313  2.1756   280  -3.7  100   -3.7  0     0     986.0    NA       0.0000   9999     980   0     0    
2019/07/20  12:48:00  BASE  1.01136  322  2.1756   280  -3.7  100   -3.7  0     0     986.0    NA       0.0000   9999     950   0     0    
2019/07/20  12:49:00  BASE  1.2054   331  2.1756   280  -3.7  100   -3.7  0     0     986.0    NA       0.0000   9999     980   0     0    
2019/07/20  12:50:00  BASE  0.8526   336  2.1756   280  -3.7  100   -3.7  0     0     986.0    NA       0.0000   9999     950   0     0    
2019/07/20  12:51:00  BASE  0.74676  314  1.51116  330  -3.7  100   -3.7  0     0     986.0    NA       0.0000   9999     950   0     0    
2019/07/20  12:52:00  BASE  1.15248  282  1.69344  273  -3.7  100   -3.7  0     0     986.0    NA       0.0000   9999     950   0     0    
2019/07/20  12:53:00  BASE  1.42296  273  1.69344  274  -3.7  100   -3.7  0     0     986.0    NA       0.0000   9999     980   0     0    
2019/07/20  12:54:00  BASE  1.4406   272  1.69344  272  -3.7  100   -3.7  0     0     986.0    NA       0.0000   9999     920   0     0    
2019/07/20  12:55:00  BASE  1.52292  278  1.84632  287  -3.7  100   -3.7  0     0     986.0    NA       0.0000   9999     950   0     0    
2019/07/20  12:56:00  BASE  1.4994   291  1.84632  287  -3.7  100   -3.7  0     0     986.0    NA       0.0000   9999     980   0     0    
2019/07/20  12:57:00  BASE  1.41708  283  1.84632  287  -3.7  100   -3.7  0     0     986.0    NA       0.0000   9999     950   0     0    
2019/07/20  12:58:00  BASE  1.81692  267  2.51076  264  -3.7  100   -3.7  0     0     985.9    NA       0.0000   9999     950   0     0    
2019/07/20  12:59:00  BASE  2.19912  262  2.54016  259  -3.7  100   -3.7  0     0     985.9    NA       0.0000   9999     950   0     0    
2019/07/20  13:00:00  BASE  2.37552  253  2.93412  249  -3.8  100   -3.8  0     0     985.9    NA       0.0000   9999     950   0     0    
2019/07/20  13:01:00  BASE  2.76948  252  3.35748  258  -3.8  100   -3.8  0     0     985.9    NA       0.0000   9999     890   0     0    
2019/07/20  13:02:00  BASE  3.01056  262  3.35748  258  -3.8  100   -3.8  0     0     985.9    NA       0.0000   9999     920   0     0    
2019/07/20  13:03:00  BASE  2.76948  262  3.35748  258  -3.8  100   -3.8  0     0     985.9    NA       0.0000   9999     790   0     0    
2019/07/20  13:04:00  BASE  2.28144  271  3.35748  258  -3.8  100   -3.8  0     0     985.9    NA       0.0000   9999     790   0     0    
2019/07/20  13:05:00  BASE  2.04036  284  3.35748  258  -3.8  100   -3.8  0     0     985.9    NA       0.0000   9999     820   0     0    
2019/07/20  13:06:00  BASE  1.65228  283  3.35748  258  -3.8  100   -3.8  0     0     985.9    NA       0.0000   9999     790   0     0    
2019/07/20  13:07:00  BASE  1.22304  292  3.35748  258  -3.8  100   -3.8  0     0     985.9    NA       0.0000   9999     790   0     0    
2019/07/20  13:08:00  BASE  1.09956  297  3.35748  258  -3.8  100   -3.8  0     0     985.9    NA       0.0000   9999     890   0     0    
2019/07/20  13:09:00  BASE  0.75264  284  3.35748  258  -3.8  100   -3.8  0     0     985.9    NA       0.0000   9999     820   0     0    
2019/07/20  13:10:00  BASE  0.22932  239  3.35748  258  -3.8  100   -3.8  0     0     985.9    NA       0.0000   9999     790   0     0    
2019/07/20  13:11:00  BASE  0        180  3.32808  266  -3.8  100   -3.8  0     0     985.9    NA       0.0000   9999     790   0     0    
2019/07/20  13:12:00  BASE  0.07644  201  2.93412  265  -3.8  100   -3.8  0     0     985.9    NA       0.0000   9999     790   0     0    
2019/07/20  13:13:00  BASE  0.07644  278  2.29908  290  -3.8  100   -3.8  0     0     985.9    NA       0.0000   9999     820   0     0    
2019/07/20  13:14:00  BASE  0.28224  314  2.29908  290  -3.8  100   -3.8  0     0     985.9    NA       0.0000   9999     890   0     0    
2019/07/20  13:15:00  BASE  0.74088  323  1.84632  291  -3.9  100   -3.9  0     0     985.9    NA       0.0000   9999     950   0     0    
2019/07/20  13:16:00  BASE  0.78204  306  1.48176  269  -3.9  100   -3.9  0     0     985.9    NA       0.0000   9999     920   0     0    
2019/07/20  13:17:00  BASE  0.3234   303  1.48176  269  -3.9  100   -3.9  0     0     985.9    NA       0.0000   9999     950   0     0    
2019/07/20  13:18:00  BASE  0        318  1.0878   297  -3.9  100   -3.9  0     0     985.8    NA       0.0000   9999     850   0     0    
2019/07/20  13:19:00  BASE  0        337  0.9702   323  -3.9  100   -3.9  1     0     985.8    NA       0.0000   9999     750   0     0    
2019/07/20  13:20:00  BASE  0        11   0.9702   323  -3.8  100   -3.8  1     0     985.8    NA       0.0000   9999     750   0     0    
2019/07/20  13:21:00  BASE  0        48   0.9702   323  -3.8  100   -3.8  1     0     985.8    NA       0.0000   9999     790   0     0    
2019/07/20  13:22:00  BASE  0        85   0.9702   323  -3.8  100   -3.8  1     0     985.8    NA       0.0000   9999     790   0     0    
2019/07/20  13:23:00  BASE  0.07644  96   0.9702   323  -3.8  100   -3.8  1     0     985.8    NA       0.0000   9999     750   0     0    
2019/07/20  13:24:00  BASE  0.31752  88   0.9702   323  -3.8  100   -3.8  1     0     985.8    NA       0.0000   9999     790   0     0    
2019/07/20  13:25:00  BASE  0.78204  83   1.21128  68   -3.9  100   -3.9  1     0     985.8    NA       0.0000   9999     820   0     0    
2019/07/20  13:26:00  BASE  0.98784  84   1.21128  68   -3.8  100   -3.8  1     0     985.8    NA       0.0000   9999     820   0     0    
2019/07/20  13:27:00  BASE  0.82908  85   1.21128  68   -3.8  100   -3.8  1     0     985.8    NA       0.0000   9999     850   0     0    
2019/07/20  13:28:00  BASE  0.77028  79   1.21128  68   -3.9  100   -3.9  1     0     985.8    NA       0.0000   9999     820   0     0    
2019/07/20  13:29:00  BASE  0.80556  73   1.21128  68   -3.8  100   -3.8  1     0     985.9    NA       0.0000   9999     850   0     0    
2019/07/20  13:30:00  BASE  0.59976  69   1.21128  68   -3.8  100   -3.8  1     0     985.9    NA       0.0000   9999     890   0     0    
2019/07/20  13:31:00  BASE  0.18816  71   1.21128  68   -3.8  100   -3.8  1     0     985.9    NA       0.0000   9999     890   0     0    
2019/07/20  13:32:00  BASE  0        78   1.21128  68   -3.8  100   -3.8  1     0     985.9    NA       0.0000   9999     890   0     0    
2019/07/20  13:33:00  BASE  0        82   1.21128  68   -3.8  100   -3.8  1     0     985.9    NA       0.0000   9999     890   0     0    
2019/07/20  13:34:00  BASE  0        82   1.21128  68   -3.8  100   -3.8  1     0     985.9    NA       0.0000   9999     890   0     0    
2019/07/20  13:35:00  BASE  0        82   0.9996   86   -3.8  100   -3.8  1     0     985.8    NA       0.0000   9999     890   0     0    
2019/07/20  13:36:00  BASE  0        88   0.9702   68   -3.8  100   -3.8  1     0     985.8    NA       0.0000   9999     890   0     0    
2019/07/20  13:37:00  BASE  0        95   0.9702   68   -3.8  100   -3.8  1     0     985.8    NA       0.0000   9999     890   0     0    
2019/07/20  13:38:00  BASE  0        96   0.9702   68   -3.8  100   -3.8  1     0     985.8    NA       0.0000   9999     850   0     0    
2019/07/20  13:39:00  BASE  0        95   0.69384  68   -3.8  100   -3.8  1     0     985.8    NA       0.0000   9999     890   0     0    
2019/07/20  13:40:00  BASE  0        86   0        M    -3.8  100   -3.8  1     0     985.8    NA       0.0000   9999     750   0     0    
2019/07/20  13:41:00  BASE  0        34   0        M    -3.8  100   -3.8  2     0     985.8    NA       0.0000   9999     750   0     0    
2019/07/20  13:42:00  BASE  0.4998   347  1.54056  335  -3.8  100   -3.8  2     0     985.7    NA       0.0000   9999     790   0     0    
2019/07/20  13:43:00  BASE  1.29948  310  2.058    293  -3.8  100   -3.8  2     0     985.7    NA       0.0000   9999     850   0     0    
2019/07/20  13:44:00  BASE  1.3524   290  2.058    293  -3.8  100   -3.8  2     0     985.7    NA       0.0000   9999     750   0     0    
2019/07/20  13:45:00  BASE  1.19952  304  2.058    293  -3.9  100   -3.9  2     0     985.7    NA       0.0000   9999     820   0     0    
2019/07/20  13:46:00  BASE  1.0878   296  2.058    293  -3.8  100   -3.8  2     0     985.7    NA       0.0000   9999     820   0     0    
2019/07/20  13:47:00  BASE  0.8232   285  2.058    293  -3.8  100   -3.8  2     0     985.7    NA       0.0000   9999     820   0     0    
2019/07/20  13:48:00  BASE  0.8526   282  2.058    293  -3.8  100   -3.8  2     0     985.6    NA       0.0000   9999     850   0     0    
2019/07/20  13:49:00  BASE  0.90552  278  2.058    293  -3.8  100   -3.8  2     0     985.6    NA       0.0000   9999     850   0     0    
2019/07/20  13:50:00  BASE  0.93492  271  2.058    293  -3.8  100   -3.8  3     0     985.6    NA       0.0000   9999     890   0     0    
2019/07/20  13:51:00  BASE  1.0878   270  2.058    293  -3.8  100   -3.8  3     0     985.6    NA       0.0000   9999     920   0     0    
2019/07/20  13:52:00  BASE  0.89964  269  2.058    293  -3.8  100   -3.8  3     0     985.6    NA       0.0000   9999     920   0     0    
2019/07/20  13:53:00  BASE  0.67032  259  1.57584  304  -3.8  100   -3.8  3     0     985.6    NA       0.0000   9999     920   0     0    
2019/07/20  13:54:00  BASE  0.6174   255  1.57584  304  -3.8  100   -3.8  3     0     985.6    NA       0.0000   9999     920   0     0    
2019/07/20  13:55:00  BASE  0.25872  260  1.54056  284  -3.8  100   -3.8  3     0     985.5    NA       0.0000   9999     920   0     0    
2019/07/20  13:56:00  BASE  0.45864  257  1.54056  284  -3.8  100   -3.8  3     0     985.4    NA       0.0000   9999     920   0     0    
2019/07/20  13:57:00  BASE  0.95256  233  1.54056  284  -3.8  100   -3.8  4     0     985.4    NA       0.0000   9999     920   0     0    
2019/07/20  13:58:00  BASE  1.12896  218  1.87572  212  -3.8  100   -3.8  4     0     985.4    NA       0.0000   9999     890   0     0    
2019/07/20  13:59:00  BASE  1.66404  208  2.75184  204  -3.9  100   -3.9  4     0     985.4    NA       0.0000   9999     790   0     0    
2019/07/20  14:00:00  BASE  1.63464  185  2.75184  204  -3.9  100   -3.9  4     0     985.4    NA       0.0000   9999     790   0     0    
2019/07/20  14:01:00  BASE  1.28184  178  2.75184  204  -3.9  100   -3.9  4     0     985.4    NA       0.0000   9999     790   0     0    
2019/07/20  14:02:00  BASE  1.50528  180  2.75184  204  -3.9  100   -3.9  4     0     985.4    NA       0.0000   9999     820   0     0    
2019/07/20  14:03:00  BASE  1.7934   169  2.75184  204  -3.9  100   -3.9  4     0     985.4    NA       0.0000   9999     890   0     0    
2019/07/20  14:04:00  BASE  2.21088  159  2.99292  157  -3.9  100   -3.9  4     0     985.4    NA       0.0000   9999     850   0     0    
2019/07/20  14:05:00  BASE  2.34024  151  2.99292  157  -3.9  100   -3.9  5     0     985.4    NA       0.0000   9999     790   0     0    
2019/07/20  14:06:00  BASE  2.02272  155  2.99292  157  -4.0  100   -4.0  5     0     985.4    NA       0.0000   9999     820   0     0    
2019/07/20  14:07:00  BASE  1.59936  156  2.99292  157  -4.0  100   -4.0  6     0     985.3    NA       0.0000   9999     850   0     0    
2019/07/20  14:08:00  BASE  1.40532  148  2.99292  157  -4.0  100   -4.0  6     0     985.4    NA       0.0000   9999     890   0     0    
2019/07/20  14:09:00  BASE  1.52292  144  2.99292  157  -4.0  100   -4.0  6     0     985.4    NA       0.0000   9999     850   0     0    
2019/07/20  14:10:00  BASE  1.66404  142  2.99292  157  -4.0  100   -4.0  6     0     985.4    NA       0.0000   9999     850   0     0    
2019/07/20  14:11:00  BASE  1.64052  146  2.99292  157  -4.0  100   -4.0  7     0     985.4    NA       0.0000   9999     950   0     0    
2019/07/20  14:12:00  BASE  1.48176  151  2.99292  157  -4.0  100   -4.0  7     0     985.4    NA       0.0000   9999     950   0     0    
2019/07/20  14:13:00  BASE  1.47     151  2.99292  157  -4.0  100   -4.0  7     0     985.4    NA       0.0000   9999     890   0     0    
2019/07/20  14:14:00  BASE  1.56408  147  2.42256  145  -4.0  100   -4.0  7     0     985.4    NA       0.0000   9999     920   0     0    
2019/07/20  14:15:00  BASE  1.7052   151  2.29908  163  -4.0  100   -4.0  7     0     985.4    NA       0.0000   9999     890   0     0    
2019/07/20  14:16:00  BASE  1.911    164  2.48136  170  -4.0  100   -4.0  7     0     985.4    NA       0.0000   9999     920   0     0    
2019/07/20  14:17:00  BASE  2.1462   180  2.54016  197  -4.0  100   -4.0  7     0     985.4    NA       0.0000   9999     890   0     0    
2019/07/20  14:18:00  BASE  2.24028  195  2.56956  200  -4.0  100   -4.0  7     0     985.4    NA       0.0000   9999     820   0     0    
2019/07/20  14:19:00  BASE  2.16972  193  2.56956  200  -3.9  100   -3.9  7     0     985.3    NA       0.0000   9999     790   0     0    
2019/07/20  14:20:00  BASE  1.86396  202  2.56956  200  -3.9  100   -3.9  7     0     985.3    NA       0.0000   9999     820   0     0    
2019/07/20  14:21:00  BASE  1.59348  223  2.56956  200  -3.9  100   -3.9  7     0     985.4    NA       0.0000   9999     850   0     0    
2019/07/20  14:22:00  BASE  1.71696  230  2.56956  200  -3.8  100   -3.8  8     0     985.4    NA       0.0000   9999     720   0     0    
2019/07/20  14:23:00  BASE  1.68168  239  2.56956  200  -3.8  100   -3.8  8     0     985.4    NA       0.0000   9999     720   0     0    
2019/07/20  14:24:00  BASE  1.27596  246  2.56956  200  -3.8  100   -3.8  8     0     985.4    NA       0.0000   9999     790   0     0    
2019/07/20  14:25:00  BASE  1.05252  243  2.56956  200  -3.8  100   -3.8  8     0     985.4    NA       0.0000   9999     720   0     0    
2019/07/20  14:26:00  BASE  1.40532  239  2.56956  200  -3.8  100   -3.8  8     0     985.4    NA       0.0000   9999     820   0     0    
2019/07/20  14:27:00  BASE  1.94628  229  2.56956  200  -3.8  100   -3.8  8     0     985.3    NA       0.0000   9999     920   0     0    
2019/07/20  14:28:00  BASE  1.94628  218  2.45196  183  -3.8  100   -3.8  8     0     985.3    NA       0.0000   9999     790   0     0    
2019/07/20  14:29:00  BASE  1.61112  209  2.35788  224  -3.8  100   -3.8  8     0     985.3    NA       0.0000   9999     820   0     0    
2019/07/20  14:30:00  BASE  1.48764  206  2.35788  224  -3.8  100   -3.8  9     0     985.3    NA       0.0000   9999     790   0     0    
2019/07/20  14:31:00  BASE  1.47588  204  2.35788  224  -3.8  100   -3.8  9     0     985.3    NA       0.0000   9999     750   0     0    
2019/07/20  14:32:00  BASE  1.21128  197  2.35788  224  -3.8  100   -3.8  10    0     985.3    NA       0.0000   9999     820   0     0    
2019/07/20  14:33:00  BASE  1.09956  207  2.35788  224  -3.8  100   -3.8  11    0     985.3    NA       0.0000   9999     890   0     0    
2019/07/20  14:34:00  BASE  1.07604  243  2.35788  224  -3.8  100   -3.8  11    0     985.3    NA       0.0000   9999     1020  0     0    
2019/07/20  14:35:00  BASE  0.95256  287  2.35788  224  -3.8  100   -3.8  12    0     985.3    NA       0.0000   9999     1020  0     0    
2019/07/20  14:36:00  BASE  0.94668  294  2.35788  224  -3.8  100   -3.8  11    0     985.3    NA       0.0000   9999     1050  0     0    
2019/07/20  14:37:00  BASE  1.00548  280  2.21088  208  -3.8  100   -3.8  11    0     985.2    NA       0.0000   9999     950   0     0    
2019/07/20  14:38:00  BASE  0.7938   278  1.96392  196  -3.8  100   -3.8  11    0     985.2    NA       0.0000   9999     950   0     0    
2019/07/20  14:39:00  BASE  0.79968  279  1.75224  215  -3.8  100   -3.8  11    0     985.2    NA       0.0000   9999     950   0     0    
2019/07/20  14:40:00  BASE  1.2348   277  1.69344  206  -3.8  100   -3.8  11    0     985.2    NA       0.0000   9999     980   0     0    
2019/07/20  14:41:00  BASE  1.10544  282  1.51116  273  -3.8  100   -3.8  11    0     985.2    NA       0.0000   9999     980   0     0    
2019/07/20  14:42:00  BASE  0.78204  294  1.51116  273  -3.8  100   -3.8  11    0     985.2    NA       0.0000   9999     980   0     0    
2019/07/20  14:43:00  BASE  0.68208  305  1.51116  273  -3.8  100   -3.8  11    0     985.2    NA       0.0000   9999     920   0     0    
2019/07/20  14:44:00  BASE  0.79968  316  1.51116  273  -3.8  100   -3.8  11    0     985.2    NA       0.0000   9999     890   0     0    
2019/07/20  14:45:00  BASE  1.01136  328  1.51116  273  -3.8  100   -3.8  12    0     985.2    NA       0.0000   9999     920   0     0    
2019/07/20  14:46:00  BASE  1.2936   335  1.96392  342  -3.8  100   -3.8  12    0     985.1    NA       0.0000   9999     920   0     0    
2019/07/20  14:47:00  BASE  1.5582   341  1.96392  342  -3.8  100   -3.8  12    0     985.1    NA       0.0000   9999     920   0     0    
2019/07/20  14:48:00  BASE  1.6758   344  2.1462   339  -3.8  100   -3.8  12    0     985.1    NA       0.0000   9999     950   0     0    
2019/07/20  14:49:00  BASE  1.81104  337  2.1462   339  -3.8  100   -3.8  12    0     985.1    NA       0.0000   9999     950   0     0    
2019/07/20  14:50:00  BASE  1.84632  325  2.26968  324  -3.8  100   -3.8  12    0     985.1    NA       0.0000   9999     920   0     0    
2019/07/20  14:51:00  BASE  1.9992   320  2.35788  324  -3.8  100   -3.8  12    0     985.1    NA       0.0000   9999     950   0     0    
2019/07/20  14:52:01  BASE  2.0874   332  2.35788  324  -3.8  100   -3.8  12    0     985.1    NA       0.0000   9999     950   0     0    
2019/07/20  14:53:00  BASE  1.87572  340  2.48136  339  -3.8  100   -3.8  12    0     985.1    NA       0.0000   9999     980   0     0    
2019/07/20  14:54:00  BASE  1.92276  343  2.48136  339  -3.8  100   -3.8  12    0     985.1    NA       0.0000   9999     980   0     0    
2019/07/20  14:55:00  BASE  1.71108  2    2.48136  339  -3.8  100   -3.8  12    0     985.1    NA       0.0000   9999     950   0     0    
2019/07/20  14:56:00  BASE  1.323    3    2.48136  339  -3.8  100   -3.8  12    0     985.1    NA       0.0000   9999     750   0     0    
2019/07/20  14:57:00  BASE  1.69344  348  2.48136  339  -3.8  100   -3.8  12    0     985.1    NA       0.0000   9999     890   0     0    
2019/07/20  14:58:00  BASE  2.03448  341  2.59896  348  -3.8  100   -3.8  12    0     985.1    NA       0.0000   9999     820   0     0    
2019/07/20  14:59:00  BASE  1.9404   345  2.59896  348  -3.8  100   -3.8  12    0     985.1    NA       0.0000   9999     890   0     0    
2019/07/20  15:00:00  BASE  1.89336  351  2.59896  348  -3.8  100   -3.8  12    0     985.1    NA       0.0000   9999     920   0     0    
2019/07/20  15:01:00  BASE  1.74636  352  2.59896  348  -3.8  100   -3.8  13    0     985.1    NA       0.0000   9999     890   0     0    
2019/07/20  15:02:00  BASE  1.64052  356  2.59896  348  -3.8  100   -3.8  13    0     985.1    NA       0.0000   9999     890   0     0    
2019/07/20  15:03:00  BASE  1.89336  6    2.59896  348  -3.8  100   -3.8  14    0     985.1    NA       0.0000   9999     820   0     0    
2019/07/20  15:04:00  BASE  2.0286   12   2.59896  348  -3.8  100   -3.8  14    0     985.1    NA       0.0000   9999     750   0     0    
2019/07/20  15:05:00  BASE  1.92276  10   2.59896  348  -3.8  100   -3.8  14    0     985.1    NA       0.0000   9999     690   0     0    
2019/07/20  15:06:00  BASE  1.81692  5    2.59896  348  -3.8  100   -3.8  14    0     985.0    NA       0.0000   9999     690   0     0    
2019/07/20  15:07:00  BASE  1.7052   354  2.59896  348  -3.8  100   -3.8  14    0     984.9    NA       0.0000   9999     750   0     0    
2019/07/20  15:08:00  BASE  1.5288   351  2.42256  9    -3.8  100   -3.8  14    0     984.9    NA       0.0000   9999     750   0     0    
2019/07/20  15:09:00  BASE  1.5288   352  2.42256  9    -3.8  100   -3.8  14    0     984.9    NA       0.0000   9999     850   0     0    
2019/07/20  15:10:00  BASE  1.80516  348  2.42256  9    -3.9  100   -3.9  15    0     984.8    NA       0.0000   9999     850   0     0    
2019/07/20  15:11:00  BASE  1.92864  351  2.42256  9    -3.9  100   -3.9  15    0     984.8    NA       0.0000   9999     890   0     0    
2019/07/20  15:12:00  BASE  1.9992   360  2.42256  9    -3.9  100   -3.9  15    0     984.8    NA       0.0000   9999     790   0     0    
2019/07/20  15:13:00  BASE  2.1168   11   2.42256  25   -3.9  100   -3.9  15    0     984.8    NA       0.0000   9999     820   0     0    
2019/07/20  15:14:00  BASE  2.10504  17   2.42256  25   -3.9  100   -3.9  15    0     984.8    NA       0.0000   9999     850   0     0    
2019/07/20  15:15:00  BASE  2.11092  18   2.42256  25   -3.9  100   -3.9  15    0     984.8    NA       0.0000   9999     850   0     0    
2019/07/20  15:16:00  BASE  2.04624  21   2.42256  25   -3.9  100   -3.9  14    0     984.8    NA       0.0000   9999     850   0     0    
2019/07/20  15:17:00  BASE  1.8816   21   2.42256  25   -4.0  100   -4.0  14    0     984.8    NA       0.0000   9999     820   0     0    
2019/07/20  15:18:00  BASE  1.8816   20   2.42256  25   -4.0  100   -4.0  14    0     984.8    NA       0.0000   9999     820   0     0    
2019/07/20  15:19:00  BASE  2.03448  21   2.48136  22   -4.0  100   -4.0  13    0     984.8    NA       0.0000   9999     820   0     0    
2019/07/20  15:20:00  BASE  2.01684  22   2.48136  22   -4.0  100   -4.0  13    0     984.8    NA       0.0000   9999     790   0     0    
2019/07/20  15:21:00  BASE  1.911    25   2.48136  22   -4.0  100   -4.0  13    0     984.8    NA       0.0000   9999     790   0     0    
2019/07/20  15:22:00  BASE  1.75224  27   2.48136  22   -4.0  100   -4.0  13    0     984.8    NA       0.0000   9999     750   0     0    
2019/07/20  15:23:00  BASE  1.82868  32   2.54016  40   -4.0  100   -4.0  14    0     984.8    NA       0.0000   9999     750   0     0    
2019/07/20  15:24:00  BASE  2.09916  31   2.54016  40   -4.0  100   -4.0  14    0     984.8    NA       0.0000   9999     790   0     0    
2019/07/20  15:25:00  BASE  2.2638   30   2.69304  36   -4.0  100   -4.0  14    0     984.8    NA       0.0000   9999     790   0     0    
2019/07/20  15:26:00  BASE  2.31672  34   2.69304  36   -4.0  100   -4.0  14    0     984.8    NA       0.0000   9999     850   0     0    
2019/07/20  15:27:00  BASE  1.95216  34   2.69304  36   -4.0  100   -4.1  14    0     984.7    NA       0.0000   9999     820   0     0    
2019/07/20  15:28:00  BASE  1.45824  17   2.69304  36   -4.1  100   -4.1  14    0     984.7    NA       0.0000   9999     820   0     0    
2019/07/20  15:29:00  BASE  1.29948  13   2.69304  36   -4.1  100   -4.1  14    0     984.7    NA       0.0000   9999     790   0     0    
2019/07/20  15:30:00  BASE  1.38768  22   2.69304  36   -4.1  100   -4.1  14    0     984.7    NA       0.0000   9999     750   0     0    
2019/07/20  15:31:00  BASE  1.47     23   2.69304  36   -4.1  100   -4.1  14    0     984.7    NA       0.0000   9999     720   0     0    
2019/07/20  15:32:00  BASE  1.27008  29   2.69304  36   -4.1  100   -4.1  15    0     984.7    NA       0.0000   9999     720   0     0    
2019/07/20  15:33:00  BASE  0.7644   36   2.69304  36   -4.1  100   -4.1  15    0     984.7    NA       0.0000   9999     750   0     0    
2019/07/20  15:34:00  BASE  0.588    35   2.69304  36   -4.1  100   -4.1  15    0     984.7    NA       0.0000   9999     790   0     0    
2019/07/20  15:35:00  BASE  0.54096  26   2.54016  41   -4.1  100   -4.1  15    0     984.7    NA       0.0000   9999     750   0     0    
2019/07/20  15:36:00  BASE  0.46452  8    2.1462   36   -4.1  100   -4.1  15    0     984.7    NA       0.0000   9999     750   0     0    
2019/07/20  15:37:00  BASE  0.78204  333  1.81692  19   -4.1  100   -4.1  15    0     984.7    NA       0.0000   9999     750   0     0    
2019/07/20  15:38:00  BASE  0.96432  298  1.81692  19   -4.1  100   -4.1  15    0     984.7    NA       0.0000   9999     750   0     0    
2019/07/20  15:39:00  BASE  0.56448  289  1.81692  19   -4.1  100   -4.1  15    0     984.7    NA       0.0000   9999     750   0     0    
2019/07/20  15:40:00  BASE  0.19404  294  1.81692  19   -4.0  100   -4.0  15    0     984.6    NA       0.0000   9999     750   0     0    
2019/07/20  15:41:00  BASE  0.31752  331  1.29948  33   -4.0  100   -4.0  15    0     984.6    NA       0.0000   9999     720   0     0    
2019/07/20  15:42:00  BASE  0.60564  7    1.24068  324  -4.0  100   -4.0  15    0     984.6    NA       0.0000   9999     720   0     0    
2019/07/20  15:43:00  BASE  0.92316  360  1.24068  324  -4.0  100   -4.0  15    0     984.6    NA       0.0000   9999     720   0     0    
2019/07/20  15:44:00  BASE  1.31712  351  1.90512  351  -4.0  100   -4.0  15    0     984.6    NA       0.0000   9999     690   0     0    
2019/07/20  15:45:00  BASE  1.47     350  1.90512  351  -4.0  100   -4.0  15    0     984.6    NA       0.0000   9999     660   0     0    
2019/07/20  15:46:00  BASE  1.43472  357  1.90512  351  -4.0  100   -4.0  15    0     984.5    NA       0.0000   9999     690   0     0    
2019/07/20  15:47:00  BASE  1.4112   5    1.90512  351  -4.0  100   -4.0  15    0     984.5    NA       0.0000   9999     660   0     0    
2019/07/20  15:48:00  BASE  1.34652  7    1.90512  351  -4.0  100   -4.0  15    0     984.5    NA       0.0000   9999     620   0     0    
2019/07/20  15:49:00  BASE  1.31712  9    1.90512  351  -4.0  100   -4.0  15    0     984.5    NA       0.0000   9999     690   0     0    
2019/07/20  15:50:00  BASE  1.37592  18   1.90512  351  -4.0  100   -4.0  15    0     984.5    NA       0.0000   9999     620   0     0    
2019/07/20  15:51:00  BASE  1.62876  23   1.96392  18   -4.0  100   -4.0  15    0     984.5    NA       0.0000   9999     620   0     0    
2019/07/20  15:52:00  BASE  1.81104  21   2.0286   13   -4.0  100   -4.0  15    0     984.4    NA       0.0000   9999     620   0     0    
2019/07/20  15:53:00  BASE  1.83456  15   2.0286   1    -4.0  100   -4.0  15    0     984.4    NA       0.0000   9999     720   0     0    
2019/07/20  15:54:00  BASE  1.75812  7    2.0286   1    -4.0  100   -4.0  15    0     984.3    NA       0.0000   9999     720   0     0    
2019/07/20  15:55:00  BASE  1.53468  8    2.0286   1    -4.0  100   -4.0  15    0     984.3    NA       0.0000   9999     690   0     0    
2019/07/20  15:56:00  BASE  1.3524   17   2.0286   1    -4.0  100   -4.0  16    0     984.4    NA       0.0000   9999     660   0     0    
2019/07/20  15:57:00  BASE  1.2054   23   2.0286   1    -4.0  100   -4.0  16    0     984.4    NA       0.0000   9999     720   0     0    
2019/07/20  15:58:00  BASE  1.07604  25   2.0286   1    -4.0  100   -4.0  16    0     984.4    NA       0.0000   9999     720   0     0    
2019/07/20  15:59:00  BASE  1.15836  25   2.0286   1    -4.0  100   -4.0  16    0     984.3    NA       0.0000   9999     660   0     0    
2019/07/20  16:00:00  BASE  1.16424  30   2.0286   1    -4.0  100   -4.0  16    0     984.3    NA       0.0000   9999     690   0     0    
2019/07/20  16:01:00  BASE  1.04664  42   2.0286   1    -4.0  100   -4.0  17    0     984.3    NA       0.0000   9999     690   0     0    
2019/07/20  16:02:00  BASE  0.9702   49   2.0286   1    -4.0  100   -4.0  17    0     984.3    NA       0.0000   9999     720   0     0    
2019/07/20  16:03:00  BASE  0.97608  48   1.90512  4    -4.0  100   -4.0  17    0     984.2    NA       0.0000   9999     750   0     0    
2019/07/20  16:04:00  BASE  1.09368  40   1.60524  6    -4.0  100   -4.0  17    0     984.2    NA       0.0000   9999     750   0     0    
2019/07/20  16:05:00  BASE  1.17012  34   1.51116  23   -4.0  100   -4.0  17    0     984.2    NA       0.0000   9999     750   0     0    
2019/07/20  16:06:00  BASE  1.24656  30   1.42296  25   -4.0  100   -4.0  17    0     984.2    NA       0.0000   9999     720   23000 0    
2019/07/20  16:07:00  BASE  1.30536  32   1.39356  19   -4.0  100   -4.0  16    0     984.2    NA       0.0000   9999     690   0     0    
2019/07/20  16:08:00  BASE  1.2936   29   1.39356  19   -4.0  100   -4.0  16    0     984.2    NA       0.0000   9999     750   0     0    
2019/07/20  16:09:00  BASE  1.176    29   1.35828  26   -4.0  100   -4.0  16    0     984.2    NA       0.0000   9999     750   0     0    
2019/07/20  16:10:00  BASE  1.05252  26   1.35828  26   -4.0  100   -4.0  16    0     984.2    NA       0.0000   9999     790   0     0    
2019/07/20  16:11:00  BASE  1.08192  3    1.35828  354  -4.0  100   -4.0  16    0     984.2    NA       0.0000   9999     820   0     0    
2019/07/20  16:12:00  BASE  0.94668  348  1.35828  354  -4.0  100   -4.0  16    0     984.2    NA       0.0000   9999     850   0     0    
2019/07/20  16:13:00  BASE  0.65856  353  1.35828  354  -4.0  100   -4.0  16    0     984.2    NA       0.0000   9999     790   0     0    
2019/07/20  16:14:00  BASE  0.69972  4    1.35828  354  -4.0  100   -4.0  16    0     984.1    NA       0.0000   9999     750   0     0    
2019/07/20  16:15:00  BASE  0.8232   11   1.35828  354  -4.0  100   -4.0  17    0     984.1    NA       0.0000   9999     750   0     0    
2019/07/20  16:16:00  BASE  0.9114   7    1.35828  354  -4.0  100   -4.0  17    0     984.1    NA       0.0000   9999     820   0     0    
2019/07/20  16:17:00  BASE  1.00548  356  1.35828  354  -4.0  100   -4.0  17    0     984.1    NA       0.0000   9999     750   1210  0    
2019/07/20  16:18:00  BASE  0.9408   357  1.35828  354  -4.0  100   -4.0  18    0     984.1    NA       0.0000   9999     790   0     0    
2019/07/20  16:19:00  BASE  0.91728  4    1.35828  354  -4.0  100   -4.0  18    0     984.1    NA       0.0000   9999     850   0     0    
2019/07/20  16:20:00  BASE  1.14072  8    1.42296  10   -4.0  100   -4.0  17    0     984.1    NA       0.0000   9999     820   0     0    
2019/07/20  16:21:00  BASE  1.15836  11   1.42296  14   -4.0  100   -4.0  17    0     984.1    NA       0.0000   9999     920   0     0    
2019/07/20  16:22:00  BASE  0.92904  12   1.42296  14   -4.0  100   -4.0  17    0     984.1    NA       0.0000   9999     850   0     0    
2019/07/20  16:23:00  BASE  0.68208  2    1.42296  14   -3.9  100   -3.9  17    0     984.1    NA       0.0000   9999     790   0     0    
2019/07/20  16:24:00  BASE  0.24696  339  1.42296  14   -3.9  100   -3.9  17    0     984.1    NA       0.0000   9999     750   0     0    
2019/07/20  16:25:00  BASE  0.0294   313  1.42296  14   -3.9  100   -3.9  17    0     984.1    NA       0.0000   9999     790   0     0    
2019/07/20  16:26:00  BASE  0.0294   301  1.42296  14   -3.9  100   -3.9  18    0     984.1    NA       0.0000   9999     750   0     0    
2019/07/20  16:27:00  BASE  0        298  1.42296  14   -3.9  100   -3.9  18    0     984.1    NA       0.0000   9999     790   0     0    
2019/07/20  16:28:00  BASE  0        296  1.42296  14   -3.9  100   -3.9  18    0     984.1    NA       0.0000   9999     790   0     0    
2019/07/20  16:29:00  BASE  0        296  1.42296  14   -3.9  100   -3.9  18    0     984.1    NA       0.0000   9999     820   0     0    
2019/07/20  16:30:00  BASE  0        296  1.42296  14   -3.9  100   -3.9  17    0     984.1    NA       0.0000   9999     1080  0     0    
2019/07/20  16:31:00  BASE  0        296  1.029    21   -3.9  100   -3.9  17    0     984.1    NA       0.0000   9999     1050  0     0    
2019/07/20  16:32:00  BASE  0        297  0.81732  355  -3.9  100   -3.9  17    0     984.1    NA       0.0000   9999     950   0     0    
2019/07/20  16:33:00  BASE  0        281  0.63504  302  -3.9  100   -3.9  17    0     984.1    NA       0.0000   9999     980   0     0    
2019/07/20  16:34:00  BASE  0        117  0.63504  302  -3.9  100   -3.9  17    0     984.1    NA       0.0000   9999     980   0     0    
2019/07/20  16:35:00  BASE  0        100  0        M    -3.9  100   -3.9  16    0     984.1    NA       0.0000   9999     950   0     0    
2019/07/20  16:36:00  BASE  0        98   0        M    -3.9  100   -3.9  16    0     984.1    NA       0.0000   9999     890   0     0    
2019/07/20  16:37:00  BASE  0        109  0        M    -3.9  100   -3.9  16    0     984.1    NA       0.0000   9999     890   0     0    
2019/07/20  16:38:00  BASE  0        119  0        M    -3.9  100   -3.9  17    0     984.1    NA       0.0000   9999     890   0     0    
2019/07/20  16:39:00  BASE  0        132  0        M    -3.9  100   -3.9  17    0     984.1    NA       0.0000   9999     890   0     0    
2019/07/20  16:40:00  BASE  0        147  0        M    -3.9  100   -3.9  17    0     984.1    NA       0.0000   9999     750   0     0    
2019/07/20  16:41:00  BASE  0        162  0        M    -3.9  100   -3.9  17    0     984.0    NA       0.0000   9999     750   0     0    
2019/07/20  16:42:01  BASE  0        172  0        M    -3.9  100   -3.9  17    0     984.0    NA       0.0000   9999     820   0     0    
2019/07/20  16:43:00  BASE  0        177  0        M    -3.9  100   -3.9  17    0     984.1    NA       0.0000   9999     1050  0     0    
2019/07/20  16:44:00  BASE  0        195  0        M    -3.9  100   -3.9  17    0     984.1    NA       0.0000   9999     980   0     0    
2019/07/20  16:45:00  BASE  0        217  0        M    -3.9  100   -3.9  17    0     984.0    NA       0.0000   9999     790   0     0    
2019/07/20  16:46:00  BASE  0        217  0        M    -3.9  100   -3.9  17    0     984.0    NA       0.0000   9999     950   0     0    
2019/07/20  16:47:00  BASE  0        138  0        M    -3.9  100   -3.9  17    0     984.0    NA       0.0000   9999     950   0     0    
2019/07/20  16:48:00  BASE  0.08232  72   0.72324  70   -3.9  100   -3.9  17    0     984.0    NA       0.0000   9999     890   0     0    
2019/07/20  16:49:00  BASE  0.37044  73   0.72324  70   -3.9  100   -3.9  16    0     984.0    NA       0.0000   9999     920   0     0    
2019/07/20  16:50:00  BASE  0.58212  83   0.84672  90   -3.9  100   -3.9  16    0     984.0    NA       0.0000   9999     920   0     0    
2019/07/20  16:51:00  BASE  0.55272  93   1.0584   100  -3.9  100   -3.9  16    0     984.0    NA       0.0000   9999     890   0     0    
2019/07/20  16:52:00  BASE  0.71736  97   1.0584   100  -3.9  100   -3.9  16    0     984.0    NA       0.0000   9999     890   0     0    
2019/07/20  16:53:00  BASE  0.62328  96   1.0584   100  -3.9  100   -3.9  15    0     984.0    NA       0.0000   9999     820   0     0    
2019/07/20  16:54:00  BASE  0.31164  103  1.0584   100  -4.0  100   -4.0  15    0     984.0    NA       0.0000   9999     790   0     0    
2019/07/20  16:55:00  BASE  0.441    113  1.0584   100  -4.0  100   -4.0  15    0     984.0    NA       0.0000   9999     890   0     0    
2019/07/20  16:56:00  BASE  0.42336  133  1.0584   100  -4.0  100   -4.0  15    0     984.0    NA       0.0000   9999     920   0     0    
2019/07/20  16:57:00  BASE  0.12936  165  1.0584   100  -4.0  100   -4.0  16    0     984.0    NA       0.0000   9999     890   0     0    
2019/07/20  16:58:00  BASE  0        180  1.0584   100  -3.9  100   -3.9  16    0     984.0    NA       0.0000   9999     890   0     0    
2019/07/20  16:59:00  BASE  0        186  1.0584   100  -3.9  100   -3.9  16    0     984.0    NA       0.0000   9999     890   0     0    
2019/07/20  17:00:00  BASE  0        185  1.0584   100  -3.9  100   -3.9  16    0     984.0    NA       0.0000   9999     850   0     0    
2019/07/20  17:01:00  BASE  0        183  1.029    100  -3.8  100   -3.8  15    0     984.0    NA       0.0000   9999     950   0     0    
2019/07/20  17:02:00  BASE  0        168  0.84672  136  -3.8  100   -3.8  15    0     984.0    NA       0.0000   9999     920   0     0    
2019/07/20  17:03:00  BASE  0        160  0.84672  136  -3.8  100   -3.8  15    0     984.0    NA       0.0000   9999     950   0     0    
2019/07/20  17:04:00  BASE  0.28224  164  0.90552  164  -3.8  100   -3.8  15    0     984.0    NA       0.0000   9999     890   0     0    
2019/07/20  17:05:00  BASE  0.50568  168  0.90552  164  -3.8  100   -3.8  15    0     983.9    NA       0.0000   9999     890   0     0    
2019/07/20  17:06:00  BASE  0.88788  179  1.63464  191  -3.8  100   -3.8  15    0     983.9    NA       0.0000   9999     890   0     0    
2019/07/20  17:07:00  BASE  1.46412  180  1.9992   176  -3.8  100   -3.8  15    0     983.9    NA       0.0000   9999     820   0     0    
2019/07/20  17:08:00  BASE  1.53468  168  1.9992   176  -3.8  100   -3.8  15    0     983.9    NA       0.0000   9999     820   0     0    
2019/07/20  17:09:00  BASE  1.43472  159  1.9992   176  -3.8  100   -3.8  15    0     983.9    NA       0.0000   9999     820   0     0    
2019/07/20  17:10:00  BASE  1.74636  163  2.48136  168  -3.8  100   -3.8  15    0     983.9    NA       0.0000   9999     790   0     0    
2019/07/20  17:11:00  BASE  1.59348  166  2.48136  168  -3.8  100   -3.8  15    0     983.9    NA       0.0000   9999     790   0     0    
2019/07/20  17:12:00  BASE  1.21128  167  2.48136  168  -3.8  100   -3.8  15    0     983.9    NA       0.0000   9999     790   0     0    
2019/07/20  17:13:00  BASE  1.39944  169  2.48136  168  -3.7  100   -3.7  14    0     983.9    NA       0.0000   9999     820   0     0    
2019/07/20  17:14:00  BASE  1.38768  165  2.48136  168  -3.7  100   -3.7  14    0     983.9    NA       0.0000   9999     890   0     0    
2019/07/20  17:15:00  BASE  1.31712  168  2.48136  168  -3.7  100   -3.7  14    0     983.9    NA       0.0000   9999     920   0     0    
2019/07/20  17:16:00  BASE  1.18188  181  2.48136  168  -3.7  100   -3.7  14    0     983.9    NA       0.0000   9999     890   0     0    
2019/07/20  17:17:00  BASE  0.56448  190  2.48136  168  -3.7  100   -3.7  14    0     983.9    NA       0.0000   9999     890   0     0    
2019/07/20  17:18:00  BASE  0.42924  188  2.48136  168  -3.7  100   -3.7  14    0     983.9    NA       0.0000   9999     950   0     0    
2019/07/20  17:19:00  BASE  0.87612  176  2.48136  168  -3.7  100   -3.7  14    0     983.9    NA       0.0000   9999     980   0     0    
2019/07/20  17:20:00  BASE  0.87612  156  2.0874   163  -3.7  100   -3.7  15    0     983.9    NA       0.0000   9999     1120  0     0    
2019/07/20  17:21:00  BASE  0.7938   144  1.69344  163  -3.8  100   -3.8  15    0     983.9    NA       0.0000   9999     1120  0     0    
2019/07/20  17:22:00  BASE  0.74088  144  1.69344  163  -3.8  100   -3.8  15    0     983.9    NA       0.0000   9999     1080  0     0    
2019/07/20  17:23:00  BASE  0.89376  158  1.72284  171  -3.8  100   -3.8  15    0     983.9    NA       0.0000   9999     1020  0     0    
2019/07/20  17:24:00  BASE  1.25832  168  1.72284  171  -3.8  100   -3.8  15    0     983.9    NA       0.0000   9999     1020  0     0    
2019/07/20  17:25:00  BASE  1.15248  158  1.72284  171  -3.8  100   -3.8  14    0     983.9    NA       0.0000   9999     980   0     0    
2019/07/20  17:26:00  BASE  1.01136  140  1.72284  171  -3.8  100   -3.8  14    0     983.9    NA       0.0000   9999     980   0     0    
2019/07/20  17:27:00  BASE  1.4112   138  2.1462   149  -3.8  100   -3.8  14    0     983.8    NA       0.0000   9999     1020  0     0    
2019/07/20  17:28:00  BASE  1.5876   156  2.1462   149  -3.8  100   -3.8  14    0     983.7    NA       0.0000   9999     950   0     0    
2019/07/20  17:29:00  BASE  1.39944  177  2.1462   149  -3.8  100   -3.8  14    0     983.7    NA       0.0000   9999     980   0     0    
2019/07/20  17:30:00  BASE  1.48764  198  2.1756   200  -3.9  100   -3.9  14    0     983.7    NA       0.0000   9999     820   0     0    
2019/07/20  17:31:00  BASE  1.764    214  2.1756   200  -3.9  100   -3.9  14    0     983.7    NA       0.0000   9999     620   0     0    
2019/07/20  17:32:00  BASE  1.88748  217  2.1756   200  -3.9  100   -3.9  14    0     983.7    NA       0.0000   9999     920   0     0    
2019/07/20  17:33:00  BASE  1.65816  211  2.1756   200  -3.8  100   -3.8  14    0     983.7    NA       0.0000   9999     920   0     0    
2019/07/20  17:34:00  BASE  1.25832  201  2.1756   200  -3.8  100   -3.8  13    0     983.7    NA       0.0000   9999     950   0     0    
2019/07/20  17:35:00  BASE  1.2936   182  2.1756   200  -3.8  100   -3.8  13    0     983.7    NA       0.0000   9999     920   0     0    
2019/07/20  17:36:00  BASE  1.40532  159  2.1756   200  -3.8  100   -3.8  13    0     983.7    NA       0.0000   9999     890   0     0    
2019/07/20  17:37:00  BASE  1.22304  156  2.1756   200  -3.8  100   -3.8  13    0     983.7    NA       0.0000   9999     920   0     0    
2019/07/20  17:38:00  BASE  1.08192  162  2.1756   200  -3.8  100   -3.8  13    0     983.7    NA       0.0000   9999     980   0     0    
2019/07/20  17:39:00  BASE  1.01724  169  2.1756   200  -3.8  100   -3.8  13    0     983.7    NA       0.0000   9999     890   0     0    
2019/07/20  17:40:00  BASE  0.79968  176  2.1462   218  -3.8  100   -3.8  13    0     983.7    NA       0.0000   9999     950   0     0    
2019/07/20  17:41:00  BASE  0.6762   188  2.1462   218  -3.8  100   -3.8  13    0     983.7    NA       0.0000   9999     920   0     0    
2019/07/20  17:42:00  BASE  0.80556  201  1.87572  209  -3.8  100   -3.8  12    0     983.7    NA       0.0000   9999     980   0     0    
2019/07/20  17:43:00  BASE  1.12896  198  1.90512  186  -3.8  100   -3.8  12    0     983.6    NA       0.0000   9999     890   0     0    
2019/07/20  17:44:00  BASE  1.34064  203  1.90512  186  -3.8  100   -3.8  12    0     983.5    NA       0.0000   9999     820   0     0    
2019/07/20  17:45:00  BASE  1.323    197  1.90512  186  -3.8  100   -3.8  12    0     983.5    NA       0.0000   9999     890   0     0    
2019/07/20  17:46:00  BASE  1.47     187  1.90512  186  -3.8  100   -3.8  12    0     983.5    NA       0.0000   9999     950   0     0    
2019/07/20  17:47:00  BASE  1.94628  197  2.75184  197  -3.8  100   -3.8  12    0     983.5    NA       0.0000   9999     950   0     0    
2019/07/20  17:48:00  BASE  2.49312  210  2.81064  215  -3.7  100   -3.7  12    0     983.5    NA       0.0000   9999     950   0     0    
2019/07/20  17:49:00  BASE  2.71068  218  2.87532  226  -3.7  100   -3.7  12    0     983.5    NA       0.0000   9999     890   0     0    
2019/07/20  17:50:00  BASE  2.74008  222  3.087    229  -3.7  100   -3.7  12    0     983.5    NA       0.0000   9999     890   0     0    
2019/07/20  17:51:00  BASE  2.88708  218  3.29868  209  -3.7  100   -3.7  11    0     983.5    NA       0.0000   9999     850   0     0    
2019/07/20  17:52:00  BASE  2.90472  210  3.29868  206  -3.7  100   -3.7  11    0     983.5    NA       0.0000   9999     850   0     0    
2019/07/20  17:53:00  BASE  2.76948  209  3.29868  206  -3.7  100   -3.7  11    0     983.5    NA       0.0000   9999     850   0     0    
2019/07/20  17:54:00  BASE  3.16932  211  3.86904  218  -3.7  100   -3.7  11    0     983.5    NA       0.0000   9999     850   0     0    
2019/07/20  17:55:00  BASE  3.47508  205  3.86904  218  -3.7  100   -3.7  10    0     983.5    NA       0.0000   9999     850   0     0    
2019/07/20  17:56:00  BASE  3.24576  193  3.86904  218  -3.8  100   -3.8  10    0     983.5    NA       0.0000   9999     820   0     0    
2019/07/20  17:57:00  BASE  3.21048  188  3.86904  218  -3.8  100   -3.8  10    0     983.5    NA       0.0000   9999     750   0     0    
2019/07/20  17:58:00  BASE  2.95764  188  3.86904  218  -3.8  100   -3.8  10    0     983.5    NA       0.0000   9000     720   0     0    
2019/07/20  17:59:00  BASE  2.83416  186  4.1454   180  -3.8  100   -3.8  10    0     983.5    NA       0.0000   9999     750   0     0    
2019/07/20  18:00:00  BASE  3.2046   191  4.1454   180  -3.8  100   -3.8  10    0     983.5    NA       0.0000   9999     890   0     0    
2019/07/20  18:01:00  BASE  3.63972  196  4.41588  194  -3.8  100   -3.8  10    0     983.5    NA       0.0000   9999     890   0     0    
2019/07/20  18:02:00  BASE  3.66912  190  4.41588  194  -3.8  100   -3.8  9     0     983.4    NA       0.0000   9999     720   0     0    
2019/07/20  18:03:00  BASE  3.32808  187  4.41588  194  -3.9  100   -3.9  9     0     983.4    NA       0.0000   9999     660   0     0    
2019/07/20  18:04:00  BASE  3.18108  186  4.41588  194  -3.9  100   -3.9  9     0     983.4    NA       0.0000   9999     690   0     0    
2019/07/20  18:05:00  BASE  2.89884  183  4.41588  194  -3.9  100   -3.9  9     0     983.4    NA       0.0000   9999     750   0     0    
2019/07/20  18:06:00  BASE  2.793    176  4.41588  194  -3.9  100   -3.9  9     0     983.4    NA       0.0000   9999     690   0     0    
2019/07/20  18:07:00  BASE  2.2638   168  4.41588  194  -3.9  100   -3.9  9     0     983.4    NA       0.0000   9999     660   0     0    
2019/07/20  18:08:00  BASE  1.37592  170  4.41588  194  -3.9  100   -3.9  9     0     983.4    NA       0.0000   9999     590   0     0    
2019/07/20  18:09:00  BASE  1.06428  171  4.41588  194  -3.9  100   -3.9  9     0     983.4    NA       0.0000   9999     490   0     0    
2019/07/20  18:10:00  BASE  0.9408   179  4.41588  194  -3.9  100   -3.9  9     0     983.4    NA       0.0000   8000     820   0     0    
2019/07/20  18:11:00  BASE  0.9114   193  3.75144  193  -3.9  100   -3.9  9     0     983.4    NA       0.0000   9000     690   0     0    
2019/07/20  18:12:00  BASE  1.15248  206  3.75144  193  -3.9  100   -3.9  9     0     983.4    NA       0.0000   9999     620   0     0    
2019/07/20  18:13:00  BASE  1.25832  206  3.53976  185  -3.9  100   -3.9  9     0     983.4    NA       0.0000   9999     590   0     0    
2019/07/20  18:14:00  BASE  1.42296  200  3.41628  179  -3.9  100   -3.9  9     0     983.3    NA       0.0000   9999     950   0     0    
2019/07/20  18:15:00  BASE  1.9404   195  3.41628  179  -3.9  100   -3.9  9     0     983.3    NA       0.0000   9999     1020  0     0    
2019/07/20  18:16:00  BASE  2.48724  190  3.2046   188  -3.9  100   -3.9  9     0     983.3    NA       0.0000   9999     790   0     0    
2019/07/20  18:17:00  BASE  2.54016  191  3.2046   188  -3.9  100   -3.9  9     0     983.3    NA       0.0000   9999     490   0     0    
2019/07/20  18:18:00  BASE  2.15208  188  3.2046   188  -3.9  100   -3.9  9     0     983.3    NA       0.0000   9999     920   0     0    
2019/07/20  18:19:00  BASE  2.01684  184  3.2046   188  -3.9  100   -3.9  9     0     983.3    NA       0.0000   9999     620   0     0    
2019/07/20  18:20:00  BASE  2.22852  184  3.2046   188  -3.9  100   -3.9  9     0     983.3    NA       0.0000   9999     980   0     0    
2019/07/20  18:21:00  BASE  2.56956  183  3.234    177  -3.9  100   -3.9  9     0     983.3    NA       0.0000   9999     1020  0     0    
2019/07/20  18:22:00  BASE  2.86944  180  3.29868  179  -3.9  100   -3.9  9     0     983.3    NA       0.0000   9999     950   0     0    
2019/07/20  18:23:00  BASE  3.08112  181  3.35748  180  -3.9  100   -3.9  9     0     983.3    NA       0.0000   9999     950   0     0    
2019/07/20  18:24:00  BASE  2.83416  185  3.35748  180  -3.9  100   -3.9  9     0     983.3    NA       0.0000   9999     590   0     0    
2019/07/20  18:25:00  BASE  2.2344   188  3.35748  180  -3.9  100   -3.9  9     0     983.3    NA       0.0000   9999     1020  0     0    
2019/07/20  18:26:00  BASE  1.72872  198  3.35748  180  -3.8  100   -3.8  9     0     983.3    NA       0.0000   9999     1020  0     0    
2019/07/20  18:27:00  BASE  1.64052  203  3.35748  180  -3.8  100   -3.8  8     0     983.3    NA       0.0000   9999     920   0     0    
2019/07/20  18:28:00  BASE  1.97568  202  3.35748  180  -3.8  100   -3.8  8     0     983.3    NA       0.0000   9999     590   0     0    
2019/07/20  18:29:00  BASE  2.09328  198  3.35748  180  -3.8  100   -3.8  8     0     983.2    NA       0.0000   9999     820   0     0    
2019/07/20  18:30:00  BASE  2.09916  196  3.35748  180  -3.8  100   -3.8  8     0     983.2    NA       0.0000   9999     560   0     0    
2019/07/20  18:31:00  BASE  2.205    191  3.35748  180  -3.8  100   -3.8  8     0     983.2    NA       0.0000   9999     690   0     0    
2019/07/20  18:32:00  BASE  2.352    182  3.35748  180  -3.8  100   -3.8  7     0     983.2    NA       0.0000   9999     950   0     0    
2019/07/20  18:33:00  BASE  2.31672  181  2.81064  182  -3.8  100   -3.8  7     0     983.2    NA       0.0000   9999     920   0     0    
2019/07/20  18:34:00  BASE  2.14032  177  2.81064  182  -3.9  100   -3.9  7     0     983.2    NA       0.0000   9999     920   0     0    
2019/07/20  18:35:00  BASE  2.71656  171  3.72204  169  -3.9  100   -3.9  7     0     983.1    NA       0.0000   9999     890   0     0    
2019/07/20  18:36:00  BASE  3.06348  166  3.72204  169  -3.9  100   -3.9  7     0     983.1    NA       0.0000   9999     790   0     0    
2019/07/20  18:37:00  BASE  2.8518   170  3.72204  169  -3.9  100   -3.9  6     0     983.1    NA       0.0000   9999     950   0     0    
2019/07/20  18:38:00  BASE  2.5284   179  3.72204  169  -3.9  100   -3.9  6     0     983.1    NA       0.0000   9999     820   0     0    
2019/07/20  18:39:00  BASE  2.21676  174  3.72204  169  -3.9  100   -3.9  6     0     983.1    NA       0.0000   9999     850   0     0    
2019/07/20  18:40:00  BASE  2.12268  154  3.72204  169  -3.9  100   -3.9  6     0     983.1    NA       0.0000   9999     920   0     0    
2019/07/20  18:41:00  BASE  1.90512  145  3.72204  169  -3.9  100   -3.9  6     0     983.1    NA       0.0000   9999     950   0     0    
2019/07/20  18:42:00  BASE  1.77576  148  3.72204  169  -3.9  100   -3.9  6     0     983.1    NA       0.0000   9999     920   0     0    
2019/07/20  18:43:00  BASE  1.5582   142  3.72204  169  -3.9  100   -3.9  5     0     983.1    NA       0.0000   9999     1020  0     0    
2019/07/20  18:44:00  BASE  1.35828  143  3.72204  169  -3.9  100   -3.9  5     0     983.1    NA       0.0000   9999     1080  0     0    
2019/07/20  18:45:00  BASE  1.39944  153  3.087    177  -3.9  100   -3.9  5     0     983.1    NA       0.0000   9999     980   0     0    
2019/07/20  18:46:00  BASE  1.6464   156  3.087    177  -3.9  100   -3.9  5     0     983.1    NA       0.0000   9999     1020  0     0    
2019/07/20  18:47:00  BASE  2.16972  148  2.81064  134  -3.9  100   -3.9  4     0     983.1    NA       0.0000   9999     950   0     0    
2019/07/20  18:48:00  BASE  2.5872   140  3.65736  150  -3.9  100   -3.9  4     0     983.1    NA       0.0000   9999     790   0     0    
2019/07/20  18:49:00  BASE  3.0282   144  3.96312  149  -3.9  100   -3.9  4     0     983.1    NA       0.0000   9999     920   0     0    
2019/07/20  18:50:00  BASE  3.62796  145  4.1454   143  -3.9  100   -3.9  4     0     983.0    NA       0.0000   9999     980   0     0    
2019/07/20  18:51:00  BASE  3.50448  142  4.1454   143  -3.9  100   -3.9  4     0     983.1    NA       0.0000   9999     950   0     0    
2019/07/20  18:52:00  BASE  2.89884  140  4.1454   143  -3.9  100   -3.9  4     0     983.1    NA       0.0000   9999     850   0     0    
2019/07/20  18:53:00  BASE  2.68128  141  4.1454   143  -3.9  100   -3.9  4     0     983.1    NA       0.0000   9000     920   0     0    
2019/07/20  18:54:00  BASE  2.36964  139  4.1454   143  -3.9  100   -3.9  4     0     983.1    NA       0.0000   9999     850   0     0    
2019/07/20  18:55:00  BASE  2.21088  142  4.1454   143  -3.9  100   -3.9  4     0     983.0    NA       0.0000   9999     890   0     0    
2019/07/20  18:56:00  BASE  2.22264  148  4.1454   143  -3.9  100   -3.9  3     0     983.0    NA       0.0000   9999     1020  0     0    
2019/07/20  18:57:00  BASE  2.05212  157  4.1454   143  -3.9  100   -3.9  3     0     983.1    NA       0.0000   9999     1020  0     0    
2019/07/20  18:58:00  BASE  1.86396  166  4.1454   143  -3.9  100   -3.9  3     0     983.1    NA       0.0000   9999     920   0     0    
2019/07/20  18:59:00  BASE  1.98156  181  4.1454   143  -3.9  100   -3.9  3     0     983.0    NA       0.0000   9999     890   0     0    
2019/07/20  19:00:00  BASE  2.50488  212  3.62796  142  -3.9  100   -3.9  3     0     983.0    NA       0.0000   9999     850   0     0    
2019/07/20  19:01:00  BASE  2.71068  223  3.1458   228  -3.9  100   -3.9  3     0     982.9    NA       0.0000   9999     920   0     0    
2019/07/20  19:02:00  BASE  2.47548  208  3.1458   228  -3.8  100   -3.8  3     0     982.9    NA       0.0000   9999     750   0     0    
2019/07/20  19:03:00  BASE  2.25204  210  3.1458   228  -3.8  100   -3.8  3     0     982.9    NA       0.0000   9999     750   0     0    
2019/07/20  19:04:00  BASE  2.35788  220  3.1458   228  -3.8  100   -3.8  2     0     982.9    NA       0.0000   9999     660   0     0    
2019/07/20  19:05:00  BASE  2.18148  203  3.1458   228  -3.8  100   -3.8  2     0     982.9    NA       0.0000   9999     790   0     0    
2019/07/20  19:06:00  BASE  2.15796  184  3.1458   228  -3.8  100   -3.8  2     0     982.9    NA       0.0000   9999     620   0     0    
2019/07/20  19:07:00  BASE  2.22264  191  3.1458   228  -3.8  100   -3.8  2     0     982.9    NA       0.0000   9999     790   0     0    
2019/07/20  19:08:00  BASE  1.8816   199  3.1458   228  -3.8  100   -3.8  2     0     982.9    NA       0.0000   9000     560   0     0    
2019/07/20  19:09:00  BASE  1.78164  194  3.1458   228  -3.8  100   -3.8  2     0     982.9    NA       0.0000   8000     590   0     0    
2019/07/20  19:10:00  BASE  1.93452  185  3.087    213  -3.8  100   -3.8  2     0     982.9    NA       0.0000   6000     620   0     0    
2019/07/20  19:11:00  BASE  2.25204  194  2.93412  210  -3.8  100   -3.8  2     0     982.9    NA       0.0000   BR       7000  520   0    
2019/07/20  19:12:00  BASE  2.81064  205  3.51036  202  -3.8  100   -3.8  2     0     982.9    NA       0.0000   BR       9999  590   0    
2019/07/20  19:13:00  BASE  3.41628  204  4.35708  203  -3.8  100   -3.8  2     0     982.9    NA       0.0000   BR       9999  950   0    
2019/07/20  19:14:00  BASE  3.7044   201  4.35708  203  -3.8  100   -3.8  2     0     982.9    NA       0.0000   BR       9999  950   0    
2019/07/20  19:15:00  BASE  3.60444  196  4.35708  203  -3.8  100   -3.8  2     0     982.9    NA       0.0000   BR       9999  490   0    
2019/07/20  19:16:00  BASE  3.528    193  4.35708  203  -3.8  100   -3.8  2     0     982.9    NA       0.0000   BR       9999  460   0    
2019/07/20  19:17:00  BASE  3.51036  186  4.35708  203  -3.8  100   -3.8  1     0     982.9    NA       0.0000   BR       9999  590   0    
2019/07/20  19:18:00  BASE  3.13404  189  4.35708  203  -3.8  100   -3.8  1     0     982.9    NA       0.0000   9999     690   0     0    
2019/07/20  19:19:00  BASE  2.44608  196  4.35708  203  -3.9  100   -3.9  1     0     982.9    NA       0.0000   9999     690   0     0    
2019/07/20  19:20:00  BASE  2.10504  185  4.35708  203  -3.9  100   -3.9  1     0     982.9    NA       0.0000   9999     820   0     0    
2019/07/20  19:21:00  BASE  1.93452  181  4.35708  203  -3.9  100   -3.9  1     0     982.9    NA       0.0000   9999     820   0     0    
2019/07/20  19:22:00  BASE  1.617    185  4.35708  203  -3.9  100   -3.9  1     0     982.9    NA       0.0000   9999     750   0     0    
2019/07/20  19:23:00  BASE  1.18776  184  4.08072  203  -3.9  100   -3.9  1     0     982.9    NA       0.0000   9999     750   0     0    
2019/07/20  19:24:00  BASE  1.176    180  3.86904  181  -3.9  100   -3.9  1     0     982.9    NA       0.0000   9999     720   0     0    
2019/07/20  19:25:00  BASE  1.31124  185  3.86904  181  -3.9  100   -3.9  1     0     982.9    NA       0.0000   9999     720   0     0    
2019/07/20  19:26:00  BASE  1.10544  192  3.81024  172  -3.9  100   -3.9  1     0     982.9    NA       0.0000   9999     790   0     0    
2019/07/20  19:27:00  BASE  1.07604  193  3.2046   195  -3.9  100   -3.9  1     0     982.9    NA       0.0000   9999     890   0     0    
2019/07/20  19:28:00  BASE  1.27596  193  2.42256  200  -3.9  100   -3.9  1     0     982.9    NA       0.0000   9999     890   0     0    
2019/07/20  19:29:00  BASE  1.76988  193  3.087    211  -3.9  100   -3.9  1     0     982.9    NA       0.0000   9999     660   0     0    
2019/07/20  19:30:00  BASE  2.16972  206  3.087    211  -3.9  100   -3.9  1     0     982.9    NA       0.0000   9000     850   0     0    
2019/07/20  19:31:00  BASE  2.62836  203  3.78084  194  -3.9  100   -3.9  1     0     982.8    NA       0.0000   9999     950   0     0    
2019/07/20  19:32:00  BASE  3.30456  177  4.1454   166  -3.9  100   -3.9  1     0     982.8    NA       0.0000   9999     690   0     0    
2019/07/20  19:33:00  BASE  3.12228  175  4.1454   166  -3.9  100   -3.9  1     0     982.8    NA       0.0000   9999     980   0     0    
2019/07/20  19:34:00  BASE  2.54016  183  4.1454   166  -3.9  100   -3.9  1     0     982.8    NA       0.0000   9999     950   0     0    
2019/07/20  19:35:00  BASE  2.48136  170  4.1454   166  -3.9  100   -3.9  1     0     982.8    NA       0.0000   9999     750   0     0    
2019/07/20  19:36:00  BASE  2.6166   154  4.1454   166  -3.9  100   -3.9  1     0     982.8    NA       0.0000   9999     950   0     0    
2019/07/20  19:37:00  BASE  2.47548  147  4.1454   166  -3.9  100   -3.9  1     0     982.8    NA       0.0000   9999     820   0     0    
2019/07/20  19:38:00  BASE  2.205    140  4.1454   166  -3.9  100   -3.9  1     0     982.8    NA       0.0000   9999     790   0     0    
2019/07/20  19:39:00  BASE  2.09916  141  4.1454   166  -3.9  100   -3.9  1     0     982.8    NA       0.0000   9999     850   0     0    
2019/07/20  19:40:00  BASE  2.06388  149  4.1454   166  -3.9  100   -3.9  1     0     982.8    NA       0.0000   9999     850   0     0    
2019/07/20  19:41:00  BASE  2.2638   161  4.1454   166  -3.9  100   -3.9  1     0     982.8    NA       0.0000   9999     890   0     0    
2019/07/20  19:42:00  BASE  2.55192  170  3.48096  173  -3.9  100   -3.9  1     0     982.8    NA       0.0000   9999     850   0     0    
2019/07/20  19:43:00  BASE  2.5872   170  3.48096  173  -3.9  100   -3.9  1     0     982.8    NA       0.0000   9999     850   0     0    
2019/07/20  19:44:00  BASE  2.24028  175  3.48096  173  -3.9  100   -3.9  1     0     982.8    NA       0.0000   9999     590   0     0    
2019/07/20  19:45:00  BASE  1.911    187  3.48096  173  -3.9  100   -3.9  1     0     982.8    NA       0.0000   9999     750   0     0    
2019/07/20  19:46:00  BASE  1.78752  201  3.48096  173  -3.9  100   -3.9  1     0     982.8    NA       0.0000   9999     750   0     0    
2019/07/20  19:47:00  BASE  1.65816  202  3.48096  173  -3.9  100   -3.9  0     0     982.8    NA       0.0000   9999     820   0     0    
2019/07/20  19:48:00  BASE  1.4994   192  3.48096  173  -3.9  100   -3.9  0     0     982.8    NA       0.0000   9999     920   0     0    
2019/07/20  19:49:00  BASE  1.54056  191  3.48096  173  -3.8  100   -3.8  0     0     982.8    NA       0.0000   9999     950   0     0    
2019/07/20  19:50:00  BASE  2.15796  196  3.48096  173  -3.8  100   -3.8  0     0     982.7    NA       0.0000   9999     850   0     0    
2019/07/20  19:51:00  BASE  2.6754   197  3.48096  173  -3.8  100   -3.8  0     0     982.7    NA       0.0000   9999     820   0     0    
2019/07/20  19:52:00  BASE  2.352    187  3.1752   201  -3.8  100   -3.8  0     0     982.7    NA       0.0000   9999     920   0     0    
2019/07/20  19:53:00  BASE  2.50488  183  3.41628  184  -3.9  100   -3.9  0     0     982.7    NA       0.0000   9999     820   0     0    
2019/07/20  19:54:00  BASE  2.62836  175  3.41628  184  -3.9  100   -3.9  0     0     982.7    NA       0.0000   9999     620   0     0    
2019/07/20  19:55:00  BASE  2.08152  160  3.41628  184  -3.9  100   -3.9  0     0     982.7    NA       0.0000   9999     490   0     0    
2019/07/20  19:56:00  BASE  1.72284  158  3.41628  184  -3.9  100   -3.9  0     0     982.7    NA       0.0000   9999     560   0     0    
2019/07/20  19:57:00  BASE  1.28772  166  3.41628  184  -3.9  100   -3.9  0     0     982.7    NA       0.0000   9999     690   0     0    
2019/07/20  19:58:00  BASE  0.97608  170  3.41628  184  -3.9  100   -3.9  0     0     982.7    NA       0.0000   9999     560   0     0    
2019/07/20  19:59:00  BASE  1.04076  174  3.41628  184  -3.9  100   -3.9  0     0     982.7    NA       0.0000   9999     520   0     0    
2019/07/20  20:00:00  BASE  1.28184  183  3.41628  184  -3.9  100   -3.9  0     0     982.7    NA       0.0000   9999     520   0     0    
2019/07/20  20:01:00  BASE  1.24068  188  3.41628  184  -3.9  100   -3.9  0     0     982.7    NA       0.0000   9999     590   0     0    
2019/07/20  20:02:00  BASE  1.18188  187  3.41628  184  -3.9  100   -3.9  0     0     982.7    NA       0.0000   9999     690   0     0    
2019/07/20  20:03:00  BASE  1.18776  173  2.54016  179  -3.9  100   -3.9  0     0     982.7    NA       0.0000   9999     620   0     0    
2019/07/20  20:04:00  BASE  0.94668  168  2.0874   157  -3.9  100   -3.9  0     0     982.7    NA       0.0000   9999     790   0     0    
2019/07/20  20:05:00  BASE  0.84672  180  1.90512  156  -3.9  100   -3.9  0     0     982.7    NA       0.0000   9999     750   0     0    
2019/07/20  20:06:00  BASE  0.78204  198  1.57584  192  -3.9  100   -3.9  0     0     982.7    NA       0.0000   9999     690   0     0    
2019/07/20  20:07:00  BASE  0.74676  207  1.57584  192  -3.9  100   -3.9  0     0     982.7    NA       0.0000   9999     750   0     0    
2019/07/20  20:08:00  BASE  0.9996   194  1.57584  192  -3.9  100   -3.9  0     0     982.7    NA       0.0000   9999     820   0     0    
2019/07/20  20:09:00  BASE  1.42884  183  2.0874   174  -3.8  100   -3.8  0     0     982.7    NA       0.0000   9999     750   0     0    
2019/07/20  20:10:00  BASE  2.00508  182  2.54016  179  -3.8  100   -3.8  0     0     982.7    NA       0.0000   9999     720   0     0    
2019/07/20  20:11:00  BASE  2.18736  178  2.54016  179  -3.8  100   -3.8  0     0     982.7    NA       0.0000   9999     690   0     0    
2019/07/20  20:12:00  BASE  1.92864  172  2.54016  179  -3.8  100   -3.8  0     0     982.7    NA       0.0000   9999     690   0     0    
2019/07/20  20:13:00  BASE  1.94628  181  2.54016  179  -3.8  100   -3.8  0     0     982.7    NA       0.0000   9000     660   0     0    
2019/07/20  20:14:00  BASE  2.3226   205  3.83964  221  -3.8  100   -3.8  0     0     982.7    NA       0.0000   8000     660   0     0    
2019/07/20  20:15:00  BASE  3.07524  218  3.99252  222  -3.8  100   -3.8  0     0     982.7    NA       0.0000   9000     620   0     0    
2019/07/20  20:16:00  BASE  3.55152  221  3.99252  222  -3.7  100   -3.7  0     0     982.7    NA       0.0000   9999     720   0     0    
2019/07/20  20:17:00  BASE  3.41628  220  3.99252  222  -3.7  100   -3.7  0     0     982.7    NA       0.0000   9999     660   0     0    
2019/07/20  20:18:00  BASE  3.27516  215  3.99252  222  -3.7  100   -3.7  0     0     982.7    NA       0.0000   9999     590   0     0    
2019/07/20  20:19:00  BASE  3.18696  226  3.99252  222  -3.7  100   -3.7  0     0     982.7    NA       0.0000   9999     620   0     0    
2019/07/20  20:20:00  BASE  2.56956  243  3.99252  222  -3.7  100   -3.7  0     0     982.8    NA       0.0000   9999     620   0     0    
2019/07/20  20:21:00  BASE  1.65228  238  3.99252  222  -3.7  100   -3.7  0     0     982.8    NA       0.0000   9999     590   0     0    
2019/07/20  20:22:00  BASE  1.21716  227  3.99252  222  -3.8  100   -3.8  0     0     982.8    NA       0.0000   9999     560   0     0    
2019/07/20  20:23:00  BASE  1.18188  226  3.99252  222  -3.8  100   -3.8  0     0     982.8    NA       0.0000   9999     620   0     0    
2019/07/20  20:24:00  BASE  1.55232  225  3.99252  222  -3.8  100   -3.8  0     0     982.8    NA       0.0000   9999     560   0     0    
2019/07/20  20:25:00  BASE  1.87572  222  3.93372  224  -3.8  100   -3.8  0     0     982.8    NA       0.0000   9999     560   0     0    
2019/07/20  20:26:00  BASE  1.75812  223  3.59856  234  -3.8  100   -3.8  0     0     982.8    NA       0.0000   9999     430   0     0    
2019/07/20  20:27:00  BASE  1.5876   219  3.59856  234  -3.8  100   -3.8  0     0     982.8    NA       0.0000   9999     490   0     0    
2019/07/20  20:28:00  BASE  1.617    211  3.59856  234  -3.8  100   -3.8  0     0     982.8    NA       0.0000   9999     460   0     0    
2019/07/20  20:29:00  BASE  1.98156  205  3.35748  200  -3.8  100   -3.8  0     0     982.8    NA       0.0000   9999     520   0     0    
2019/07/20  20:30:00  BASE  2.55192  198  3.35748  200  -3.7  100   -3.7  0     0     982.8    NA       0.0000   9000     590   0     0    
2019/07/20  20:31:00  BASE  2.54604  194  3.35748  200  -3.7  100   -3.7  0     0     982.8    NA       0.0000   8000     490   0     0    
2019/07/20  20:32:00  BASE  2.6166   200  3.35748  200  -3.8  100   -3.8  0     0     982.8    NA       0.0000   BR       7000  590   0    
2019/07/20  20:33:00  BASE  3.36924  200  4.29828  195  -3.8  100   -3.8  0     0     982.7    NA       0.0000   BR       8000  520   0    
2019/07/20  20:34:00  BASE  3.4986   187  4.29828  195  -3.8  100   -3.8  0     0     982.7    NA       0.0000   BR       9000  520   0    
2019/07/20  20:35:00  BASE  3.1752   175  4.29828  195  -3.8  100   -3.8  0     0     982.7    NA       0.0000   BR       8000  620   0    
2019/07/20  20:36:00  BASE  3.39864  175  4.29828  195  -3.8  100   -3.8  0     0     982.7    NA       0.0000   BR       8000  720   0    
2019/07/20  20:37:00  BASE  3.77496  184  4.56876  197  -3.8  100   -3.8  0     0     982.7    NA       0.0000   BR       9999  750   0    
2019/07/20  20:38:00  BASE  4.0572   189  4.59816  186  -3.8  100   -3.8  0     0     982.7    NA       0.0000   BR       9999  490   0    
2019/07/20  20:39:00  BASE  4.33356  187  4.93332  185  -3.9  100   -3.9  0     0     982.6    NA       0.0000   BR       9999  560   0    
2019/07/20  20:40:00  BASE  4.19244  185  4.93332  185  -3.9  100   -3.9  0     0     982.6    NA       0.0000   BR       9999  490   0    
2019/07/20  20:41:00  BASE  3.93372  183  4.93332  185  -3.9  100   -3.9  0     0     982.6    NA       0.0000   9999     490   0     0    
2019/07/20  20:42:00  BASE  3.89256  181  4.93332  185  -3.9  100   -3.9  0     0     982.6    NA       0.0000   9999     620   0     0    
2019/07/20  20:43:00  BASE  3.83376  180  4.93332  185  -3.9  100   -3.9  0     0     982.6    NA       0.0000   9999     620   0     0    
2019/07/20  20:44:00  BASE  3.77496  179  4.93332  185  -3.9  100   -3.9  0     0     982.6    NA       0.0000   9999     660   0     0    
2019/07/20  20:45:00  BASE  3.72792  179  4.93332  185  -3.9  100   -3.9  0     0     982.7    NA       0.0000   9999     690   0     0    
2019/07/20  20:46:00  BASE  3.7632   180  4.93332  185  -4.0  100   -4.0  0     0     982.7    NA       0.0000   9999     750   0     0    
2019/07/20  20:47:00  BASE  3.969    180  4.93332  185  -4.0  100   -4.0  0     0     982.6    NA       0.0000   9999     720   0     0    
2019/07/20  20:48:00  BASE  4.06308  180  4.93332  185  -4.0  100   -4.0  0     0     982.6    NA       0.0000   9999     720   0     0    
2019/07/20  20:49:00  BASE  3.83964  184  4.65696  171  -4.0  100   -4.0  0     0     982.6    NA       0.0000   9999     720   0     0    
2019/07/20  20:50:00  BASE  4.2042   194  4.93332  195  -4.0  100   -4.0  0     0     982.6    NA       0.0000   9999     820   0     0    
2019/07/20  20:51:00  BASE  4.38648  201  4.93332  195  -4.0  100   -4.0  0     0     982.6    NA       0.0000   9999     560   0     0    
2019/07/20  20:52:00  BASE  4.41588  203  4.93332  195  -4.0  100   -4.0  0     0     982.6    NA       0.0000   9999     820   0     0    
2019/07/20  20:53:00  BASE  4.41     203  4.93332  195  -4.1  100   -4.1  0     0     982.6    NA       0.0000   9999     590   0     0    
2019/07/20  20:54:00  BASE  4.1748   203  4.93332  195  -4.1  100   -4.1  0     0     982.6    NA       0.0000   9999     720   0     0    
2019/07/20  20:55:00  BASE  4.3512   205  5.10972  210  -4.1  100   -4.1  0     0     982.6    NA       0.0000   9999     790   0     0    
2019/07/20  20:56:00  BASE  3.822    208  5.10972  210  -4.1  100   -4.1  0     0     982.6    NA       0.0000   9999     620   0     0    
2019/07/20  20:57:00  BASE  3.43392  206  5.10972  210  -4.1  100   -4.1  0     0     982.6    NA       0.0000   9999     790   0     0    
2019/07/20  20:58:00  BASE  3.60444  200  5.10972  210  -4.1  100   -4.1  0     0     982.6    NA       0.0000   9999     720   0     0    
2019/07/20  20:59:00  BASE  3.68676  189  5.10972  210  -4.1  100   -4.1  0     0     982.5    NA       0.0000   9999     660   0     0    
2019/07/20  21:00:00  BASE  3.73968  183  5.10972  210  -4.1  100   -4.1  0     0     982.5    NA       0.0000   9000     390   0     0    
2019/07/20  21:01:00  BASE  3.4986   179  5.10972  210  -4.1  100   -4.1  0     0     982.5    NA       0.0000   9000     460   0     0    
2019/07/20  21:02:00  BASE  3.59856  171  5.10972  210  -4.1  100   -4.1  0     0     982.4    NA       0.0000   8000     460   0     0    
2019/07/20  21:03:00  BASE  3.83964  167  5.10972  210  -4.1  100   -4.1  0     0     982.4    NA       0.0000   9000     520   0     0    
2019/07/20  21:04:00  BASE  3.72792  165  5.10972  210  -4.2  100   -4.2  0     0     982.4    NA       0.0000   9999     520   0     0    
2019/07/20  21:05:00  BASE  3.36336  164  4.41588  180  -4.2  100   -4.2  0     0     982.4    NA       0.0000   9999     590   0     0    
2019/07/20  21:06:00  BASE  3.12228  163  4.41588  180  -4.2  100   -4.2  0     0     982.4    NA       0.0000   9999     620   0     0    
2019/07/20  21:07:00  BASE  2.89296  162  4.41588  180  -4.2  100   -4.2  0     0     982.4    NA       0.0000   9999     590   0     0    
2019/07/20  21:08:00  BASE  2.65188  162  4.41588  180  -4.2  100   -4.2  0     0     982.4    NA       0.0000   9999     620   0     0    
2019/07/20  21:09:00  BASE  2.68128  157  4.1454   171  -4.2  100   -4.2  0     0     982.4    NA       0.0000   9999     560   0     0    
2019/07/20  21:10:00  BASE  2.80476  154  4.1454   171  -4.2  100   -4.2  0     0     982.3    NA       0.0000   9999     520   0     0    
2019/07/20  21:11:00  BASE  2.75772  160  4.1454   171  -4.2  100   -4.2  0     0     982.3    NA       0.0000   9999     460   0     0    
2019/07/20  21:12:00  BASE  2.32848  164  4.116    163  -4.2  100   -4.2  0     0     982.3    NA       0.0000   9999     520   0     0    
2019/07/20  21:13:00  BASE  1.90512  158  3.99252  165  -4.2  100   -4.2  0     0     982.3    NA       0.0000   9999     460   0     0    
2019/07/20  21:14:00  BASE  1.89336  154  3.44568  166  -4.2  100   -4.2  0     0     982.3    NA       0.0000   9999     430   0     0    
2019/07/20  21:15:00  BASE  1.86984  157  3.35748  169  -4.2  100   -4.2  0     0     982.3    NA       0.0000   9000     390   0     0    
2019/07/20  21:16:00  BASE  1.72284  160  3.087    155  -4.2  100   -4.2  0     0     982.3    NA       0.0000   9000     430   0     0    
2019/07/20  21:17:00  BASE  1.65228  168  3.087    155  -4.2  100   -4.2  0     0     982.3    NA       0.0000   9999     430   0     0    
2019/07/20  21:18:00  BASE  1.66992  176  3.087    155  -4.2  100   -4.2  0     0     982.3    NA       0.0000   9999     390   0     0    
2019/07/20  21:19:00  BASE  1.76988  176  3.02232  155  -4.2  100   -4.2  0     0     982.3    NA       0.0000   9000     390   0     0    
2019/07/20  21:20:00  BASE  1.77576  175  2.84592  162  -4.2  100   -4.2  0     0     982.3    NA       0.0000   BR       8000  390   0    
2019/07/20  21:21:00  BASE  1.71696  173  2.51076  159  -4.2  100   -4.2  0     0     982.3    NA       0.0000   BR       8000  390   0    
2019/07/20  21:22:00  BASE  1.66992  174  2.51076  159  -4.2  100   -4.2  0     0     982.3    NA       0.0000   BR       9000  430   0    
2019/07/20  21:23:00  BASE  1.60524  179  2.51076  159  -4.2  100   -4.2  0     0     982.2    NA       0.0000   BR       9999  430   0    
2019/07/20  21:24:00  BASE  1.62288  183  2.1462   152  -4.3  100   -4.3  0     0     982.2    NA       0.0000   BR       9999  430   0    
2019/07/20  21:25:00  BASE  1.94628  187  2.32848  193  -4.3  100   -4.3  0     0     982.2    NA       0.0000   BR       9000  430   0    
2019/07/20  21:26:00  BASE  2.00508  191  2.32848  193  -4.2  100   -4.2  0     0     982.2    NA       0.0000   BR       8000  390   0    
2019/07/20  21:27:00  BASE  1.89924  192  2.42256  187  -4.2  100   -4.2  0     0     982.2    NA       0.0000   BR       8000  430   0    
2019/07/20  21:28:00  BASE  2.09916  189  2.54016  192  -4.3  100   -4.3  0     0     982.2    NA       0.0000   BR       9999  520   0    
2019/07/20  21:29:00  BASE  2.14032  184  2.54016  192  -4.3  100   -4.3  0     0     982.1    NA       0.0000   BR       9999  720   0    
2019/07/20  21:30:00  BASE  1.95804  188  2.54016  192  -4.3  100   -4.3  0     0     982.1    NA       0.0000   BR       9999  720   0    
2019/07/20  21:31:00  BASE  1.78752  182  2.54016  192  -4.3  100   -4.3  0     0     982.1    NA       0.0000   9999     690   0     0    
2019/07/20  21:32:00  BASE  1.8522   165  2.54016  192  -4.3  100   -4.3  0     0     982.1    NA       0.0000   9999     520   0     0    
2019/07/20  21:33:00  BASE  1.96392  150  2.54016  192  -4.3  100   -4.3  0     0     982.1    NA       0.0000   9999     520   0     0    
2019/07/20  21:34:00  BASE  1.8816   137  2.54016  192  -4.3  100   -4.3  0     0     982.1    NA       0.0000   9999     590   0     0    
2019/07/20  21:35:00  BASE  1.89336  132  2.54016  192  -4.3  100   -4.3  0     0     982.0    NA       0.0000   9999     460   0     0    
2019/07/20  21:36:00  BASE  1.3524   142  2.54016  192  -4.3  100   -4.3  0     0     982.0    NA       0.0000   5000     360   0     0    
2019/07/20  21:37:00  BASE  0.77616  152  2.54016  192  -4.4  100   -4.4  0     0     982.0    NA       0.0000   BR       4400  360   0    
2019/07/20  21:38:00  BASE  0.92904  151  2.29908  196  -4.4  100   -4.4  0     0     982.0    NA       0.0000   BR       5000  430   0    
2019/07/20  21:39:00  BASE  1.27596  138  2.29908  196  -4.4  100   -4.4  0     0     982.0    NA       0.0000   BR       7000  490   0    
2019/07/20  21:40:00  BASE  1.36416  127  2.24028  118  -4.4  100   -4.4  0     0     982.0    NA       0.0000   BR       8000  430   0    
2019/07/20  21:41:00  BASE  1.22304  127  2.24028  118  -4.4  100   -4.4  0     0     982.0    NA       0.0000   BR       8000  390   0    
2019/07/20  21:42:00  BASE  1.19952  129  2.24028  118  -4.4  100   -4.4  0     0     982.0    NA       0.0000   BR       6000  360   0    
2019/07/20  21:43:00  BASE  1.16424  135  2.24028  118  -4.3  100   -4.3  0     0     982.0    NA       0.0000   BR       5000  390   0    
2019/07/20  21:44:00  BASE  1.19364  142  2.24028  118  -4.3  100   -4.3  0     0     982.0    NA       0.0000   BR       5000  460   0    
2019/07/20  21:45:00  BASE  1.14072  142  1.54056  129  -4.3  100   -4.3  0     0     982.0    NA       0.0000   BR       6000  430   0    
2019/07/20  21:46:00  BASE  1.0878   142  1.54056  129  -4.3  100   -4.3  0     0     982.0    NA       0.0000   BR       6000  430   0    
2019/07/20  21:47:00  BASE  1.43472  147  2.21088  161  -4.3  100   -4.3  0     0     982.0    NA       0.0000   BR       7000  460   0    
2019/07/20  21:48:00  BASE  1.89336  152  2.35788  150  -4.3  100   -4.3  0     0     982.0    NA       0.0000   BR       8000  460   0    
2019/07/20  21:49:00  BASE  1.96392  159  2.35788  150  -4.3  100   -4.3  0     0     982.0    NA       0.0000   BR       7000  430   0    
2019/07/20  21:50:00  BASE  1.74636  161  2.35788  150  -4.3  100   -4.3  0     0     982.0    NA       0.0000   BR       6000  460   0    
2019/07/20  21:51:00  BASE  1.764    157  2.35788  150  -4.4  100   -4.4  0     0     982.0    NA       0.0000   BR       7000  490   0    
2019/07/20  21:52:00  BASE  2.21088  153  2.84592  145  -4.4  100   -4.4  0     0     982.0    NA       0.0000   BR       8000  520   0    
2019/07/20  21:53:00  BASE  2.65188  156  3.2046   145  -4.4  100   -4.4  0     0     982.0    NA       0.0000   BR       9999  520   0    
2019/07/20  21:54:00  BASE  2.78124  170  3.26928  199  -4.4  100   -4.4  0     0     982.0    NA       0.0000   BR       9999  560   0    
2019/07/20  21:55:00  BASE  3.04584  192  3.72204  201  -4.4  100   -4.4  0     0     982.0    NA       0.0000   BR       9999  750   0    
2019/07/20  21:56:00  BASE  3.54564  202  4.263    202  -4.4  100   -4.4  0     0     982.0    NA       0.0000   BR       9999  720   0    
2019/07/20  21:57:00  BASE  3.52212  208  4.263    202  -4.4  100   -4.4  0     0     982.0    NA       0.0000   BR       9999  560   0    
2019/07/20  21:58:00  BASE  3.24576  211  4.263    202  -4.4  100   -4.4  0     0     982.0    NA       0.0000   BR       9999  620   0    
2019/07/20  21:59:00  BASE  3.27516  207  4.263    202  -4.4  100   -4.4  0     0     982.0    NA       0.0000   9999     660   0     0    
2019/07/20  22:00:00  BASE  3.24576  198  4.263    202  -4.4  100   -4.4  0     0     982.0    NA       0.0000   9999     560   0     0    
2019/07/20  22:01:00  BASE  3.09288  191  4.263    202  -4.4  100   -4.4  0     0     981.9    NA       0.0000   9999     620   0     0    
2019/07/20  22:02:00  BASE  2.48724  189  4.263    202  -4.4  100   -4.4  0     0     981.9    NA       0.0000   9999     560   0     0    
2019/07/20  22:03:00  BASE  2.22264  183  4.263    202  -4.5  100   -4.5  0     0     981.8    NA       0.0000   9999     850   0     0    
2019/07/20  22:04:00  BASE  2.78712  172  4.263    202  -4.5  100   -4.5  0     0     981.8    NA       0.0000   9999     890   0     0    
2019/07/20  22:05:00  BASE  3.09288  166  4.263    202  -4.5  100   -4.5  0     0     981.8    NA       0.0000   9999     890   0     0    
2019/07/20  22:06:00  BASE  2.64012  165  3.78084  216  -4.5  100   -4.5  0     0     981.8    NA       0.0000   9999     820   0     0    
2019/07/20  22:07:00  BASE  2.39316  160  3.69264  208  -4.6  100   -4.6  0     0     981.8    NA       0.0000   9999     590   0     0    
2019/07/20  22:08:00  BASE  2.37552  157  3.62796  163  -4.5  100   -4.5  0     0     981.8    NA       0.0000   9999     430   0     0    
2019/07/20  22:09:00  BASE  2.14032  152  3.62796  163  -4.6  100   -4.6  0     0     981.8    NA       0.0000   9999     620   0     0    
2019/07/20  22:10:00  BASE  2.25792  150  3.62796  163  -4.6  100   -4.6  0     0     981.8    NA       0.0000   9000     460   0     0    
2019/07/20  22:11:00  BASE  2.16384  156  3.62796  163  -4.6  100   -4.6  0     0     981.8    NA       0.0000   9000     460   0     0    
2019/07/20  22:12:00  BASE  1.85808  166  3.62796  163  -4.5  100   -4.5  0     0     981.8    NA       0.0000   9999     490   0     0    
2019/07/20  22:13:00  BASE  2.01684  181  3.62796  163  -4.5  100   -4.5  0     0     981.8    NA       0.0000   9999     430   0     0    
2019/07/20  22:14:00  BASE  2.60484  186  3.26928  161  -4.5  100   -4.5  0     0     981.8    NA       0.0000   9000     390   0     0    
2019/07/20  22:15:00  BASE  2.7636   175  3.2046   184  -4.5  100   -4.5  0     0     981.8    NA       0.0000   7000     430   0     0    
2019/07/20  22:16:00  BASE  2.33436  163  3.2046   184  -4.5  100   -4.5  0     0     981.8    NA       0.0000   7000     660   0     0    
2019/07/20  22:17:00  BASE  1.89924  158  3.2046   184  -4.5  100   -4.5  0     0     981.8    NA       0.0000   BR       9999  660   0    
2019/07/20  22:18:00  BASE  1.84632  161  3.2046   184  -4.5  100   -4.5  0     0     981.8    NA       0.0000   BR       9999  620   0    
2019/07/20  22:19:00  BASE  1.9404   169  3.2046   184  -4.5  100   -4.5  0     0     981.8    NA       0.0000   BR       9999  560   0    
2019/07/20  22:20:00  BASE  1.68756  178  3.2046   184  -4.5  100   -4.5  0     0     981.8    NA       0.0000   BR       9999  490   0    
2019/07/20  22:21:00  BASE  1.617    181  3.2046   184  -4.5  100   -4.5  0     0     981.8    NA       0.0000   9999     520   0     0    
2019/07/20  22:22:00  BASE  1.84044  177  3.2046   184  -4.5  100   -4.5  0     0     981.8    NA       0.0000   9999     560   0     0    
2019/07/20  22:23:00  BASE  2.01096  174  3.2046   184  -4.5  100   -4.5  0     0     981.8    NA       0.0000   9999     720   0     0    
2019/07/20  22:24:00  BASE  2.352    181  3.02232  181  -4.5  100   -4.5  0     0     981.8    NA       0.0000   9999     950   0     0    
2019/07/20  22:25:00  BASE  2.65776  185  3.087    184  -4.5  100   -4.5  0     0     981.8    NA       0.0000   9999     750   0     0    
2019/07/20  22:26:00  BASE  2.646    186  3.29868  193  -4.5  100   -4.5  0     0     981.8    NA       0.0000   9999     720   0     0    
2019/07/20  22:27:00  BASE  3.03996  194  3.78084  199  -4.4  100   -4.4  0     0     981.8    NA       0.0000   9999     750   0     0    
2019/07/20  22:28:00  BASE  3.66324  202  4.44528  204  -4.4  100   -4.4  0     0     981.8    NA       0.0000   9999     720   0     0    
2019/07/20  22:29:00  BASE  3.98664  206  4.44528  204  -4.4  100   -4.4  0     0     981.8    NA       0.0000   9999     750   0     0    
2019/07/20  22:30:00  BASE  3.9396   206  4.44528  204  -4.5  100   -4.5  0     0     981.8    NA       0.0000   9999     690   0     0    
2019/07/20  22:31:00  BASE  3.58092  203  4.44528  204  -4.5  100   -4.5  0     0     981.8    NA       0.0000   9999     750   0     0    
2019/07/20  22:32:00  BASE  3.0576   202  4.44528  204  -4.5  100   -4.5  0     0     981.8    NA       0.0000   9999     920   0     0    
2019/07/20  22:33:00  BASE  2.25204  205  4.44528  204  -4.5  100   -4.5  0     0     981.8    NA       0.0000   9999     820   0     0    
2019/07/20  22:34:00  BASE  1.7052   198  4.44528  204  -4.5  100   -4.5  0     0     981.8    NA       0.0000   9999     520   0     0    
2019/07/20  22:35:00  BASE  1.58172  181  4.44528  204  -4.5  100   -4.5  0     0     981.8    NA       0.0000   9999     460   0     0    
2019/07/20  22:36:00  BASE  1.58172  179  4.44528  204  -4.5  100   -4.5  0     0     981.8    NA       0.0000   9999     460   0     0    
2019/07/20  22:37:00  BASE  1.61112  185  4.44528  204  -4.5  100   -4.5  0     0     981.8    NA       0.0000   9999     430   0     0    
2019/07/20  22:38:00  BASE  1.44648  184  4.35708  206  -4.5  100   -4.5  0     0     981.8    NA       0.0000   9000     430   0     0    
2019/07/20  22:39:00  BASE  1.18188  179  3.96312  209  -4.5  100   -4.5  0     0     981.8    NA       0.0000   9000     560   0     0    
2019/07/20  22:40:00  BASE  0.95844  170  3.86904  204  -4.5  100   -4.5  0     0     981.7    NA       0.0000   9000     560   0     0    
2019/07/20  22:41:00  BASE  0.7938   169  3.087    198  -4.5  100   -4.5  0     0     981.7    NA       0.0000   9000     660   0     0    
2019/07/20  22:42:00  BASE  0.8526   165  2.21088  214  -4.5  100   -4.5  0     0     981.7    NA       0.0000   9999     590   0     0    
2019/07/20  22:43:00  BASE  1.0584   152  1.84632  186  -4.5  100   -4.5  0     0     981.7    NA       0.0000   9999     590   0     0    
2019/07/20  22:44:00  BASE  1.03488  153  1.84632  186  -4.5  100   -4.5  0     0     981.7    NA       0.0000   9000     520   0     0    
2019/07/20  22:45:00  BASE  0.92904  158  1.84632  186  -4.5  100   -4.5  0     0     981.7    NA       0.0000   BR       9000  490   0    
2019/07/20  22:46:00  BASE  1.0584   168  1.75224  190  -4.5  100   -4.5  0     0     981.7    NA       0.0000   BR       9999  560   0    
2019/07/20  22:47:00  BASE  1.51704  184  2.29908  169  -4.5  100   -4.5  0     0     981.7    NA       0.0000   BR       9999  520   0    
2019/07/20  22:48:00  BASE  2.0874   181  2.66364  170  -4.5  100   -4.5  0     0     981.7    NA       0.0000   BR       9000  460   0    
2019/07/20  22:49:00  BASE  2.58132  177  3.1458   176  -4.5  100   -4.5  0     0     981.7    NA       0.0000   BR       9000  430   0    
2019/07/20  22:50:00  BASE  2.92236  178  3.48096  181  -4.4  100   -4.4  0     0     981.7    NA       0.0000   BR       9000  430   0    
2019/07/20  22:51:00  BASE  2.78124  170  3.48096  181  -4.4  100   -4.4  0     0     981.7    NA       0.0000   BR       9999  430   0    
2019/07/20  22:52:00  BASE  2.499    166  3.48096  181  -4.4  100   -4.4  0     0     981.6    NA       0.0000   BR       9999  460   0    
2019/07/20  22:53:00  BASE  2.43432  164  3.48096  181  -4.5  100   -4.5  0     0     981.6    NA       0.0000   BR       9999  460   0    
2019/07/20  22:54:00  BASE  2.39316  161  3.48096  181  -4.5  100   -4.5  0     0     981.6    NA       0.0000   9999     460   0     0    
2019/07/20  22:55:00  BASE  2.2638   156  3.48096  181  -4.5  100   -4.5  0     0     981.6    NA       0.0000   9999     460   0     0    
2019/07/20  22:56:00  BASE  2.30496  160  3.48096  181  -4.5  100   -4.5  0     0     981.6    NA       0.0000   9999     460   0     0    
2019/07/20  22:57:00  BASE  2.4108   168  3.48096  181  -4.5  100   -4.5  0     0     981.6    NA       0.0000   8000     460   0     0    
2019/07/20  22:58:00  BASE  2.42844  169  3.48096  181  -4.5  100   -4.5  0     0     981.6    NA       0.0000   BR       6000  330   0    
2019/07/20  22:59:00  BASE  2.3226   166  3.48096  181  -4.5  100   -4.5  0     0     981.6    NA       0.0000   BR       6000  360   0    
2019/07/20  23:00:00  BASE  2.05212  159  2.90472  165  -4.5  100   -4.5  0     0     981.6    NA       0.0000   BR       7000  430   0    
2019/07/20  23:01:00  BASE  2.11092  157  2.69304  171  -4.5  100   -4.5  0     0     981.6    NA       0.0000   BR       8000  390   0    
2019/07/20  23:02:00  BASE  2.35788  157  2.69304  171  -4.5  100   -4.5  0     0     981.6    NA       0.0000   BR       9000  390   0    
2019/07/20  23:03:00  BASE  2.65776  156  3.2046   158  -4.5  100   -4.5  0     0     981.6    NA       0.0000   BR       8000  390   0    
2019/07/20  23:04:00  BASE  3.12816  154  3.72204  161  -4.5  100   -4.5  0     0     981.6    NA       0.0000   BR       7000  390   0    
2019/07/20  23:05:00  BASE  3.1164   157  3.72204  161  -4.5  100   -4.5  0     0     981.6    NA       0.0000   BR       8000  360   0    
2019/07/20  23:06:00  BASE  2.49312  161  3.72204  161  -4.5  100   -4.5  0     0     981.6    NA       0.0000   BR       7000  330   0    
2019/07/20  23:07:00  BASE  1.9404   169  3.72204  161  -4.5  100   -4.5  0     0     981.6    NA       0.0000   BR       7000  330   0    
2019/07/20  23:08:00  BASE  1.56996  177  3.72204  161  -4.5  100   -4.5  0     0     981.6    NA       0.0000   BR       7000  390   0    
2019/07/20  23:09:00  BASE  1.49352  176  3.72204  161  -4.5  100   -4.5  0     0     981.6    NA       0.0000   BR       7000  430   0    
2019/07/20  23:10:00  BASE  1.51704  171  3.72204  161  -4.5  100   -4.5  0     0     981.6    NA       0.0000   BR       6000  390   0    
2019/07/20  23:11:00  BASE  1.62288  157  3.72204  161  -4.5  100   -4.5  0     0     981.6    NA       0.0000   BR       4600  430   0    
2019/07/20  23:12:00  BASE  2.05212  146  3.72204  161  -4.5  100   -4.5  0     0     981.6    NA       0.0000   BR       4500  390   0    
2019/07/20  23:13:00  BASE  2.35788  147  3.72204  161  -4.5  100   -4.5  0     0     981.6    NA       0.0000   BR       5000  430   0    
2019/07/20  23:14:00  BASE  2.42256  160  3.35748  166  -4.5  100   -4.5  0     0     981.6    NA       0.0000   BR       6000  460   0    
2019/07/20  23:15:00  BASE  2.54016  176  2.81064  183  -4.5  100   -4.5  0     0     981.6    NA       0.0000   BR       8000  460   0    
2019/07/20  23:16:00  BASE  2.54604  173  3.1752   162  -4.5  100   -4.5  0     0     981.6    NA       0.0000   BR       7000  460   0    
2019/07/20  23:17:00  BASE  2.9694   169  3.75144  179  -4.5  100   -4.5  0     0     981.6    NA       0.0000   BR       6000  560   0    
2019/07/20  23:18:00  BASE  3.38688  182  3.78084  194  -4.5  100   -4.5  0     0     981.6    NA       0.0000   BR       8000  460   0    
2019/07/20  23:19:00  BASE  3.28692  188  3.78084  194  -4.5  100   -4.5  0     0     981.6    NA       0.0000   BR       9999  430   0    
2019/07/20  23:20:00  BASE  3.1752   184  3.78084  194  -4.5  100   -4.5  0     0     981.6    NA       0.0000   BR       9999  430   0    
2019/07/20  23:21:00  BASE  3.08112  187  3.78084  194  -4.5  100   -4.5  0     0     981.6    NA       0.0000   BR       9999  590   0    
2019/07/20  23:22:00  BASE  2.9106   197  3.78084  194  -4.5  100   -4.5  0     0     981.6    NA       0.0000   BR       9999  520   0    
2019/07/20  23:23:00  BASE  2.90472  201  3.78084  194  -4.5  100   -4.5  0     0     981.6    NA       0.0000   BR       8000  360   0    
2019/07/20  23:24:00  BASE  3.74556  200  5.05092  198  -4.5  100   -4.5  0     0     981.6    NA       0.0000   BR       8000  390   0    
2019/07/20  23:25:00  BASE  3.88668  198  5.05092  198  -4.5  100   -4.5  0     0     981.6    NA       0.0000   BR       9000  390   0    
2019/07/20  23:26:00  BASE  3.15756  208  5.05092  198  -4.5  100   -4.5  0     0     981.6    NA       0.0000   BR       9000  360   0    
2019/07/20  23:27:00  BASE  2.92824  211  5.05092  198  -4.5  100   -4.5  0     0     981.6    NA       0.0000   BR       9999  430   0    
2019/07/20  23:28:00  BASE  3.39864  204  5.05092  198  -4.5  100   -4.5  0     0     981.6    NA       0.0000   BR       8000  390   0    
2019/07/20  23:29:00  BASE  3.78672  205  5.05092  198  -4.5  100   -4.5  0     0     981.6    NA       0.0000   BR       6000  390   0    
2019/07/20  23:30:00  BASE  3.88668  204  5.05092  198  -4.5  100   -4.5  0     0     981.6    NA       0.0000   BR       5000  330   0    
2019/07/20  23:31:00  BASE  4.08072  203  5.05092  198  -4.5  100   -4.5  0     0     981.6    NA       0.0000   BR       6000  390   0    
2019/07/20  23:32:00  BASE  3.75732  203  5.05092  198  -4.5  100   -4.5  0     0     981.6    NA       0.0000   BR       7000  390   0    
2019/07/20  23:33:00  BASE  3.54564  193  5.05092  198  -4.5  100   -4.5  0     0     981.6    NA       0.0000   BR       8000  430   0    
2019/07/20  23:34:00  BASE  3.81612  184  4.68636  201  -4.5  100   -4.5  0     0     981.6    NA       0.0000   BR       9000  460   0    
2019/07/20  23:35:00  BASE  3.65148  186  4.68636  201  -4.5  100   -4.5  0     0     981.6    NA       0.0000   BR       9999  430   0    
2019/07/20  23:36:00  BASE  3.16344  191  4.68636  201  -4.5  100   -4.5  0     0     981.6    NA       0.0000   BR       9999  520   0    
2019/07/20  23:37:00  BASE  2.9694   196  4.68636  201  -4.6  100   -4.6  0     0     981.6    NA       0.0000   BR       9999  520   0    
2019/07/20  23:38:00  BASE  3.31632  199  4.68636  201  -4.6  100   -4.6  0     0     981.6    NA       0.0000   BR       9999  560   0    
2019/07/20  23:39:00  BASE  3.45156  201  4.68636  201  -4.6  100   -4.6  0     0     981.6    NA       0.0000   BR       9999  590   0    
2019/07/20  23:40:00  BASE  3.37512  208  4.59816  203  -4.6  100   -4.6  0     0     981.5    NA       0.0000   BR       9999  430   0    
2019/07/20  23:41:00  BASE  3.48096  210  4.263    182  -4.6  100   -4.6  0     0     981.5    NA       0.0000   9999     390   0     0    
2019/07/20  23:42:00  BASE  3.2046   211  4.263    182  -4.6  100   -4.6  0     0     981.5    NA       0.0000   9999     360   0     0    
2019/07/20  23:43:00  BASE  2.84004  213  4.263    182  -4.6  100   -4.6  0     0     981.5    NA       0.0000   9999     390   0     0    
2019/07/20  23:44:00  BASE  2.87532  212  4.02192  204  -4.6  100   -4.6  0     0     981.5    NA       0.0000   9999     430   0     0    
2019/07/20  23:45:00  BASE  3.50448  207  4.2336   200  -4.7  100   -4.7  0     0     981.5    NA       0.0000   9999     560   0     0    
2019/07/20  23:46:00  BASE  3.85728  200  4.2336   200  -4.7  100   -4.7  0     0     981.5    NA       0.0000   9999     490   0     0    
2019/07/20  23:47:00  BASE  4.08072  199  4.93332  195  -4.7  100   -4.7  0     0     981.5    NA       0.0000   9999     750   0     0    
2019/07/20  23:48:00  BASE  4.29828  200  4.93332  195  -4.8  100   -4.8  0     0     981.5    NA       0.0000   9999     980   0     0    
2019/07/20  23:49:00  BASE  3.9396   202  4.93332  195  -4.8  100   -4.8  0     0     981.5    NA       0.0000   9999     1050  0     0    
2019/07/20  23:50:00  BASE  3.62208  204  4.93332  195  -4.8  100   -4.8  0     0     981.6    NA       0.0000   9999     920   0     0    
2019/07/20  23:51:00  BASE  3.34572  199  4.93332  195  -4.8  100   -4.8  0     0     981.5    NA       0.0000   9999     690   0     0    
2019/07/20  23:52:00  BASE  3.24576  186  4.93332  195  -4.8  100   -4.8  0     0     981.5    NA       0.0000   9999     460   0     0    
2019/07/20  23:53:00  BASE  3.09288  176  4.93332  195  -4.7  100   -4.7  0     0     981.5    NA       0.0000   9999     360   0     0    
2019/07/20  23:54:00  BASE  2.9988   172  4.93332  195  -4.7  100   -4.7  0     0     981.5    NA       0.0000   9999     390   0     0    
2019/07/20  23:55:00  BASE  2.88708  169  4.93332  195  -4.7  100   -4.7  0     0     981.5    NA       0.0000   9000     360   0     0    
2019/07/20  23:56:00  BASE  2.49312  165  4.93332  195  -4.7  100   -4.7  0     0     981.5    NA       0.0000   8000     360   0     0    
2019/07/20  23:57:00  BASE  2.48724  165  4.38648  202  -4.7  100   -4.7  0     0     981.5    NA       0.0000   6000     390   0     0    
2019/07/20  23:58:00  BASE  2.60484  164  3.96312  209  -4.7  100   -4.7  0     0     981.5    NA       0.0000   BR       5000  390   0    
2019/07/20  23:59:00  BASE  2.5578   164  3.96312  209  -4.7  100   -4.7  0     0     981.5    NA       0.0000   BR       5000  460   0